<?xml version="1.0" encoding="UTF-8" standalone="no" ?>
<gpx xmlns="http://www.topografix.com/GPX/1/1" xmlns:xsi="http://www.w3.org/2001/XMLSchema-instance" xsi:schemaLocation="http://www.topografix.com/GPX/1/1 http://www.topografix.com/GPX/1/1/gpx.xsd" version="1.1" creator="VisuGPX - https://www.visugpx.com">
  <metadata>
    <name>Repérage raid</name>
    <desc><![CDATA[ça travail, ça bosse, ça roule, ça va être bien mais duuuuur! ]]></desc>
  </metadata>
  <trk>
    <name><![CDATA[étape RAID.]]></name>
    <trkseg>
      <trkpt lat="45.46385" lon="4.76518">
        <ele>111.65026855469</ele>
        <time>2013-05-26T06:07:00Z</time>
      </trkpt>
      <trkpt lat="45.46384" lon="4.76516">
        <ele>113.09228515625</ele>
        <time>2013-05-26T06:07:06Z</time>
      </trkpt>
      <trkpt lat="45.46384" lon="4.76517">
        <ele>111.65026855469</ele>
        <time>2013-05-26T06:07:08Z</time>
      </trkpt>
      <trkpt lat="45.46385" lon="4.76517">
        <ele>116.45678710938</ele>
        <time>2013-05-26T06:07:11Z</time>
      </trkpt>
      <trkpt lat="45.46385" lon="4.76517">
        <ele>120.30212402344</ele>
        <time>2013-05-26T06:07:14Z</time>
      </trkpt>
      <trkpt lat="45.46385" lon="4.76517">
        <ele>124.14733886719</ele>
        <time>2013-05-26T06:07:16Z</time>
      </trkpt>
      <trkpt lat="45.46385" lon="4.76516">
        <ele>127.51196289062</ele>
        <time>2013-05-26T06:07:18Z</time>
      </trkpt>
      <trkpt lat="45.46385" lon="4.76516">
        <ele>131.35729980469</ele>
        <time>2013-05-26T06:07:21Z</time>
      </trkpt>
      <trkpt lat="45.46385" lon="4.76516">
        <ele>135.20251464844</ele>
        <time>2013-05-26T06:07:24Z</time>
      </trkpt>
      <trkpt lat="45.46385" lon="4.76516">
        <ele>138.56726074219</ele>
        <time>2013-05-26T06:07:27Z</time>
      </trkpt>
      <trkpt lat="45.46385" lon="4.76517">
        <ele>142.41247558594</ele>
        <time>2013-05-26T06:07:31Z</time>
      </trkpt>
      <trkpt lat="45.46385" lon="4.76517">
        <ele>146.2578125</ele>
        <time>2013-05-26T06:07:35Z</time>
      </trkpt>
      <trkpt lat="45.46385" lon="4.76517">
        <ele>149.1416015625</ele>
        <time>2013-05-26T06:07:39Z</time>
      </trkpt>
      <trkpt lat="45.46385" lon="4.76517">
        <ele>151.544921875</ele>
        <time>2013-05-26T06:07:43Z</time>
      </trkpt>
      <trkpt lat="45.46385" lon="4.76517">
        <ele>154.90954589844</ele>
        <time>2013-05-26T06:07:48Z</time>
      </trkpt>
      <trkpt lat="45.46386" lon="4.76517">
        <ele>158.27416992188</ele>
        <time>2013-05-26T06:07:56Z</time>
      </trkpt>
      <trkpt lat="45.46386" lon="4.76517">
        <ele>161.158203125</ele>
        <time>2013-05-26T06:08:05Z</time>
      </trkpt>
      <trkpt lat="45.46386" lon="4.76517">
        <ele>164.52270507812</ele>
        <time>2013-05-26T06:08:19Z</time>
      </trkpt>
      <trkpt lat="45.46389" lon="4.76517">
        <ele>165.96472167969</ele>
        <time>2013-05-26T06:08:35Z</time>
      </trkpt>
      <trkpt lat="45.46417" lon="4.76519">
        <ele>164.04211425781</ele>
        <time>2013-05-26T06:08:41Z</time>
      </trkpt>
      <trkpt lat="45.46435" lon="4.76558">
        <ele>162.11950683594</ele>
        <time>2013-05-26T06:08:47Z</time>
      </trkpt>
      <trkpt lat="45.46395" lon="4.76588">
        <ele>160.67749023438</ele>
        <time>2013-05-26T06:08:54Z</time>
      </trkpt>
      <trkpt lat="45.4633" lon="4.76584">
        <ele>158.75476074219</ele>
        <time>2013-05-26T06:09:08Z</time>
      </trkpt>
      <trkpt lat="45.46327" lon="4.7658">
        <ele>159.23547363281</ele>
        <time>2013-05-26T06:09:09Z</time>
      </trkpt>
      <trkpt lat="45.46303" lon="4.76543">
        <ele>157.31286621094</ele>
        <time>2013-05-26T06:09:17Z</time>
      </trkpt>
      <trkpt lat="45.46265" lon="4.76471">
        <ele>156.83215332031</ele>
        <time>2013-05-26T06:09:30Z</time>
      </trkpt>
      <trkpt lat="45.46221" lon="4.76366">
        <ele>154.90954589844</ele>
        <time>2013-05-26T06:09:48Z</time>
      </trkpt>
      <trkpt lat="45.46171" lon="4.76268">
        <ele>154.42895507812</ele>
        <time>2013-05-26T06:10:10Z</time>
      </trkpt>
      <trkpt lat="45.46168" lon="4.76259">
        <ele>154.90954589844</ele>
        <time>2013-05-26T06:10:12Z</time>
      </trkpt>
      <trkpt lat="45.46149" lon="4.76203">
        <ele>153.46765136719</ele>
        <time>2013-05-26T06:10:21Z</time>
      </trkpt>
      <trkpt lat="45.46102" lon="4.76134">
        <ele>152.02575683594</ele>
        <time>2013-05-26T06:10:34Z</time>
      </trkpt>
      <trkpt lat="45.46097" lon="4.76109">
        <ele>152.50634765625</ele>
        <time>2013-05-26T06:10:39Z</time>
      </trkpt>
      <trkpt lat="45.46096" lon="4.76092">
        <ele>152.02575683594</ele>
        <time>2013-05-26T06:10:42Z</time>
      </trkpt>
      <trkpt lat="45.46081" lon="4.76072">
        <ele>152.02575683594</ele>
        <time>2013-05-26T06:10:47Z</time>
      </trkpt>
      <trkpt lat="45.46059" lon="4.76044">
        <ele>152.98693847656</ele>
        <time>2013-05-26T06:10:55Z</time>
      </trkpt>
      <trkpt lat="45.46019" lon="4.75978">
        <ele>152.50634765625</ele>
        <time>2013-05-26T06:11:09Z</time>
      </trkpt>
      <trkpt lat="45.46009" lon="4.75943">
        <ele>153.46765136719</ele>
        <time>2013-05-26T06:11:18Z</time>
      </trkpt>
      <trkpt lat="45.46015" lon="4.75945">
        <ele>153.94836425781</ele>
        <time>2013-05-26T06:11:24Z</time>
      </trkpt>
      <trkpt lat="45.46017" lon="4.75943">
        <ele>153.46765136719</ele>
        <time>2013-05-26T06:11:28Z</time>
      </trkpt>
      <trkpt lat="45.46009" lon="4.75936">
        <ele>152.98693847656</ele>
        <time>2013-05-26T06:11:32Z</time>
      </trkpt>
      <trkpt lat="45.45973" lon="4.75956">
        <ele>152.50634765625</ele>
        <time>2013-05-26T06:11:42Z</time>
      </trkpt>
      <trkpt lat="45.45939" lon="4.75921">
        <ele>152.98693847656</ele>
        <time>2013-05-26T06:11:52Z</time>
      </trkpt>
      <trkpt lat="45.45895" lon="4.75887">
        <ele>151.06420898438</ele>
        <time>2013-05-26T06:12:05Z</time>
      </trkpt>
      <trkpt lat="45.4588" lon="4.75896">
        <ele>150.58361816406</ele>
        <time>2013-05-26T06:12:08Z</time>
      </trkpt>
      <trkpt lat="45.45867" lon="4.75907">
        <ele>150.10302734375</ele>
        <time>2013-05-26T06:12:11Z</time>
      </trkpt>
      <trkpt lat="45.45835" lon="4.75962">
        <ele>150.58361816406</ele>
        <time>2013-05-26T06:12:22Z</time>
      </trkpt>
      <trkpt lat="45.45824" lon="4.75955">
        <ele>150.58361816406</ele>
        <time>2013-05-26T06:12:27Z</time>
      </trkpt>
      <trkpt lat="45.45787" lon="4.75844">
        <ele>149.1416015625</ele>
        <time>2013-05-26T06:12:45Z</time>
      </trkpt>
      <trkpt lat="45.4575" lon="4.75739">
        <ele>149.1416015625</ele>
        <time>2013-05-26T06:13:06Z</time>
      </trkpt>
      <trkpt lat="45.45746" lon="4.75727">
        <ele>148.18041992188</ele>
        <time>2013-05-26T06:13:16Z</time>
      </trkpt>
      <trkpt lat="45.45738" lon="4.7571">
        <ele>149.1416015625</ele>
        <time>2013-05-26T06:13:34Z</time>
      </trkpt>
      <trkpt lat="45.45707" lon="4.75635">
        <ele>149.1416015625</ele>
        <time>2013-05-26T06:13:49Z</time>
      </trkpt>
      <trkpt lat="45.45692" lon="4.75592">
        <ele>149.62231445312</ele>
        <time>2013-05-26T06:13:58Z</time>
      </trkpt>
      <trkpt lat="45.45644" lon="4.75501">
        <ele>149.62231445312</ele>
        <time>2013-05-26T06:14:18Z</time>
      </trkpt>
      <trkpt lat="45.45653" lon="4.75467">
        <ele>150.10302734375</ele>
        <time>2013-05-26T06:14:25Z</time>
      </trkpt>
      <trkpt lat="45.45687" lon="4.75409">
        <ele>151.06420898438</ele>
        <time>2013-05-26T06:14:41Z</time>
      </trkpt>
      <trkpt lat="45.45676" lon="4.75382">
        <ele>152.50634765625</ele>
        <time>2013-05-26T06:14:50Z</time>
      </trkpt>
      <trkpt lat="45.45644" lon="4.7536">
        <ele>155.87097167969</ele>
        <time>2013-05-26T06:15:03Z</time>
      </trkpt>
      <trkpt lat="45.45659" lon="4.75335">
        <ele>157.31286621094</ele>
        <time>2013-05-26T06:15:12Z</time>
      </trkpt>
      <trkpt lat="45.45675" lon="4.7534">
        <ele>158.75476074219</ele>
        <time>2013-05-26T06:15:17Z</time>
      </trkpt>
      <trkpt lat="45.4571" lon="4.75357">
        <ele>161.63891601562</ele>
        <time>2013-05-26T06:15:30Z</time>
      </trkpt>
      <trkpt lat="45.45745" lon="4.75367">
        <ele>164.52270507812</ele>
        <time>2013-05-26T06:15:44Z</time>
      </trkpt>
      <trkpt lat="45.45769" lon="4.75357">
        <ele>167.88732910156</ele>
        <time>2013-05-26T06:15:55Z</time>
      </trkpt>
      <trkpt lat="45.45781" lon="4.75352">
        <ele>168.84875488281</ele>
        <time>2013-05-26T06:16:00Z</time>
      </trkpt>
      <trkpt lat="45.45814" lon="4.75345">
        <ele>172.21325683594</ele>
        <time>2013-05-26T06:16:15Z</time>
      </trkpt>
      <trkpt lat="45.45846" lon="4.75327">
        <ele>175.09729003906</ele>
        <time>2013-05-26T06:16:32Z</time>
      </trkpt>
      <trkpt lat="45.45887" lon="4.75293">
        <ele>178.4619140625</ele>
        <time>2013-05-26T06:16:54Z</time>
      </trkpt>
      <trkpt lat="45.45898" lon="4.75261">
        <ele>181.82641601562</ele>
        <time>2013-05-26T06:17:09Z</time>
      </trkpt>
      <trkpt lat="45.45865" lon="4.75247">
        <ele>184.71057128906</ele>
        <time>2013-05-26T06:17:25Z</time>
      </trkpt>
      <trkpt lat="45.45831" lon="4.75273">
        <ele>187.59436035156</ele>
        <time>2013-05-26T06:17:44Z</time>
      </trkpt>
      <trkpt lat="45.45792" lon="4.75284">
        <ele>190.958984375</ele>
        <time>2013-05-26T06:18:02Z</time>
      </trkpt>
      <trkpt lat="45.4576" lon="4.75298">
        <ele>193.84301757812</ele>
        <time>2013-05-26T06:18:18Z</time>
      </trkpt>
      <trkpt lat="45.45732" lon="4.75274">
        <ele>197.20751953125</ele>
        <time>2013-05-26T06:18:34Z</time>
      </trkpt>
      <trkpt lat="45.45719" lon="4.75236">
        <ele>200.09167480469</ele>
        <time>2013-05-26T06:18:48Z</time>
      </trkpt>
      <trkpt lat="45.45697" lon="4.75204">
        <ele>203.45617675781</ele>
        <time>2013-05-26T06:19:03Z</time>
      </trkpt>
      <trkpt lat="45.45666" lon="4.75185">
        <ele>206.34008789062</ele>
        <time>2013-05-26T06:19:20Z</time>
      </trkpt>
      <trkpt lat="45.45664" lon="4.75184">
        <ele>206.34008789062</ele>
        <time>2013-05-26T06:19:21Z</time>
      </trkpt>
      <trkpt lat="45.45635" lon="4.7517">
        <ele>209.70483398438</ele>
        <time>2013-05-26T06:19:36Z</time>
      </trkpt>
      <trkpt lat="45.45638" lon="4.75127">
        <ele>212.58862304688</ele>
        <time>2013-05-26T06:19:51Z</time>
      </trkpt>
      <trkpt lat="45.45647" lon="4.75075">
        <ele>215.95324707031</ele>
        <time>2013-05-26T06:20:10Z</time>
      </trkpt>
      <trkpt lat="45.45619" lon="4.75059">
        <ele>218.83728027344</ele>
        <time>2013-05-26T06:20:24Z</time>
      </trkpt>
      <trkpt lat="45.45595" lon="4.75071">
        <ele>221.24060058594</ele>
        <time>2013-05-26T06:20:36Z</time>
      </trkpt>
      <trkpt lat="45.4556" lon="4.75094">
        <ele>223.64379882812</ele>
        <time>2013-05-26T06:20:54Z</time>
      </trkpt>
      <trkpt lat="45.45547" lon="4.75099">
        <ele>224.60522460938</ele>
        <time>2013-05-26T06:21:00Z</time>
      </trkpt>
      <trkpt lat="45.45543" lon="4.7509">
        <ele>226.52783203125</ele>
        <time>2013-05-26T06:21:06Z</time>
      </trkpt>
      <trkpt lat="45.45581" lon="4.75068">
        <ele>229.89233398438</ele>
        <time>2013-05-26T06:21:25Z</time>
      </trkpt>
      <trkpt lat="45.45623" lon="4.7504">
        <ele>232.29577636719</ele>
        <time>2013-05-26T06:21:47Z</time>
      </trkpt>
      <trkpt lat="45.45642" lon="4.75024">
        <ele>235.1796875</ele>
        <time>2013-05-26T06:21:58Z</time>
      </trkpt>
      <trkpt lat="45.45669" lon="4.75023">
        <ele>235.66027832031</ele>
        <time>2013-05-26T06:22:11Z</time>
      </trkpt>
      <trkpt lat="45.457" lon="4.75095">
        <ele>238.54431152344</ele>
        <time>2013-05-26T06:22:35Z</time>
      </trkpt>
      <trkpt lat="45.45758" lon="4.75121">
        <ele>241.42822265625</ele>
        <time>2013-05-26T06:22:56Z</time>
      </trkpt>
      <trkpt lat="45.45808" lon="4.75122">
        <ele>244.79284667969</ele>
        <time>2013-05-26T06:23:14Z</time>
      </trkpt>
      <trkpt lat="45.45833" lon="4.7508">
        <ele>247.19604492188</ele>
        <time>2013-05-26T06:23:29Z</time>
      </trkpt>
      <trkpt lat="45.4585" lon="4.75043">
        <ele>250.08020019531</ele>
        <time>2013-05-26T06:23:42Z</time>
      </trkpt>
      <trkpt lat="45.45875" lon="4.74988">
        <ele>253.44470214844</ele>
        <time>2013-05-26T06:24:02Z</time>
      </trkpt>
      <trkpt lat="45.45891" lon="4.74971">
        <ele>255.36730957031</ele>
        <time>2013-05-26T06:24:11Z</time>
      </trkpt>
      <trkpt lat="45.45932" lon="4.74968">
        <ele>259.21264648438</ele>
        <time>2013-05-26T06:24:30Z</time>
      </trkpt>
      <trkpt lat="45.45938" lon="4.74971">
        <ele>260.65454101562</ele>
        <time>2013-05-26T06:24:33Z</time>
      </trkpt>
      <trkpt lat="45.45966" lon="4.75003">
        <ele>263.53857421875</ele>
        <time>2013-05-26T06:24:51Z</time>
      </trkpt>
      <trkpt lat="45.45992" lon="4.75005">
        <ele>266.42248535156</ele>
        <time>2013-05-26T06:25:04Z</time>
      </trkpt>
      <trkpt lat="45.46" lon="4.74965">
        <ele>268.82580566406</ele>
        <time>2013-05-26T06:25:19Z</time>
      </trkpt>
      <trkpt lat="45.45997" lon="4.74957">
        <ele>269.30651855469</ele>
        <time>2013-05-26T06:25:22Z</time>
      </trkpt>
      <trkpt lat="45.45966" lon="4.74925">
        <ele>273.63244628906</ele>
        <time>2013-05-26T06:25:40Z</time>
      </trkpt>
      <trkpt lat="45.45938" lon="4.74898">
        <ele>276.51635742188</ele>
        <time>2013-05-26T06:25:57Z</time>
      </trkpt>
      <trkpt lat="45.45899" lon="4.74882">
        <ele>279.40026855469</ele>
        <time>2013-05-26T06:26:17Z</time>
      </trkpt>
      <trkpt lat="45.45864" lon="4.74903">
        <ele>282.76501464844</ele>
        <time>2013-05-26T06:26:34Z</time>
      </trkpt>
      <trkpt lat="45.45832" lon="4.74922">
        <ele>286.12951660156</ele>
        <time>2013-05-26T06:26:49Z</time>
      </trkpt>
      <trkpt lat="45.45819" lon="4.74891">
        <ele>289.01354980469</ele>
        <time>2013-05-26T06:27:01Z</time>
      </trkpt>
      <trkpt lat="45.45853" lon="4.74861">
        <ele>291.8974609375</ele>
        <time>2013-05-26T06:27:17Z</time>
      </trkpt>
      <trkpt lat="45.45887" lon="4.74836">
        <ele>294.78137207031</ele>
        <time>2013-05-26T06:27:33Z</time>
      </trkpt>
      <trkpt lat="45.45909" lon="4.7482">
        <ele>297.18469238281</ele>
        <time>2013-05-26T06:27:44Z</time>
      </trkpt>
      <trkpt lat="45.45947" lon="4.74798">
        <ele>299.58801269531</ele>
        <time>2013-05-26T06:28:02Z</time>
      </trkpt>
      <trkpt lat="45.4593" lon="4.74778">
        <ele>299.58801269531</ele>
        <time>2013-05-26T06:28:11Z</time>
      </trkpt>
      <trkpt lat="45.45892" lon="4.74783">
        <ele>302.47192382812</ele>
        <time>2013-05-26T06:28:26Z</time>
      </trkpt>
      <trkpt lat="45.45854" lon="4.7475">
        <ele>305.83666992188</ele>
        <time>2013-05-26T06:28:44Z</time>
      </trkpt>
      <trkpt lat="45.45833" lon="4.74685">
        <ele>309.68188476562</ele>
        <time>2013-05-26T06:29:04Z</time>
      </trkpt>
      <trkpt lat="45.45813" lon="4.74655">
        <ele>311.6044921875</ele>
        <time>2013-05-26T06:29:15Z</time>
      </trkpt>
      <trkpt lat="45.45819" lon="4.74641">
        <ele>312.56579589844</ele>
        <time>2013-05-26T06:29:21Z</time>
      </trkpt>
      <trkpt lat="45.45832" lon="4.74641">
        <ele>313.52722167969</ele>
        <time>2013-05-26T06:29:25Z</time>
      </trkpt>
      <trkpt lat="45.45871" lon="4.74672">
        <ele>316.41101074219</ele>
        <time>2013-05-26T06:29:44Z</time>
      </trkpt>
      <trkpt lat="45.45915" lon="4.74665">
        <ele>318.81433105469</ele>
        <time>2013-05-26T06:30:01Z</time>
      </trkpt>
      <trkpt lat="45.45934" lon="4.7462">
        <ele>320.73706054688</ele>
        <time>2013-05-26T06:30:16Z</time>
      </trkpt>
      <trkpt lat="45.4593" lon="4.74555">
        <ele>324.1015625</ele>
        <time>2013-05-26T06:30:33Z</time>
      </trkpt>
      <trkpt lat="45.4592" lon="4.74459">
        <ele>326.98559570312</ele>
        <time>2013-05-26T06:30:58Z</time>
      </trkpt>
      <trkpt lat="45.45913" lon="4.74387">
        <ele>330.35021972656</ele>
        <time>2013-05-26T06:31:17Z</time>
      </trkpt>
      <trkpt lat="45.45905" lon="4.74306">
        <ele>333.71472167969</ele>
        <time>2013-05-26T06:31:39Z</time>
      </trkpt>
      <trkpt lat="45.45881" lon="4.74203">
        <ele>337.07946777344</ele>
        <time>2013-05-26T06:32:05Z</time>
      </trkpt>
      <trkpt lat="45.45872" lon="4.74103">
        <ele>338.521484375</ele>
        <time>2013-05-26T06:32:30Z</time>
      </trkpt>
      <trkpt lat="45.45881" lon="4.73972">
        <ele>339.48266601562</ele>
        <time>2013-05-26T06:32:59Z</time>
      </trkpt>
      <trkpt lat="45.45891" lon="4.73813">
        <ele>339.96337890625</ele>
        <time>2013-05-26T06:33:27Z</time>
      </trkpt>
      <trkpt lat="45.45895" lon="4.73697">
        <ele>342.84729003906</ele>
        <time>2013-05-26T06:33:48Z</time>
      </trkpt>
      <trkpt lat="45.45908" lon="4.7354">
        <ele>344.77001953125</ele>
        <time>2013-05-26T06:34:18Z</time>
      </trkpt>
      <trkpt lat="45.45933" lon="4.734">
        <ele>347.17321777344</ele>
        <time>2013-05-26T06:34:46Z</time>
      </trkpt>
      <trkpt lat="45.45968" lon="4.7325">
        <ele>348.13464355469</ele>
        <time>2013-05-26T06:35:17Z</time>
      </trkpt>
      <trkpt lat="45.45954" lon="4.73188">
        <ele>349.09582519531</ele>
        <time>2013-05-26T06:35:29Z</time>
      </trkpt>
      <trkpt lat="45.45913" lon="4.73078">
        <ele>350.53784179688</ele>
        <time>2013-05-26T06:35:54Z</time>
      </trkpt>
      <trkpt lat="45.4591" lon="4.72959">
        <ele>353.421875</ele>
        <time>2013-05-26T06:36:19Z</time>
      </trkpt>
      <trkpt lat="45.45929" lon="4.72881">
        <ele>356.30578613281</ele>
        <time>2013-05-26T06:36:38Z</time>
      </trkpt>
      <trkpt lat="45.45937" lon="4.72799">
        <ele>358.22839355469</ele>
        <time>2013-05-26T06:36:58Z</time>
      </trkpt>
      <trkpt lat="45.45912" lon="4.72725">
        <ele>361.11242675781</ele>
        <time>2013-05-26T06:37:17Z</time>
      </trkpt>
      <trkpt lat="45.45913" lon="4.72623">
        <ele>363.51574707031</ele>
        <time>2013-05-26T06:37:41Z</time>
      </trkpt>
      <trkpt lat="45.45932" lon="4.72492">
        <ele>366.88024902344</ele>
        <time>2013-05-26T06:38:12Z</time>
      </trkpt>
      <trkpt lat="45.45949" lon="4.72394">
        <ele>368.80297851562</ele>
        <time>2013-05-26T06:38:35Z</time>
      </trkpt>
      <trkpt lat="45.45925" lon="4.72308">
        <ele>371.20629882812</ele>
        <time>2013-05-26T06:38:56Z</time>
      </trkpt>
      <trkpt lat="45.45902" lon="4.72231">
        <ele>374.57080078125</ele>
        <time>2013-05-26T06:39:16Z</time>
      </trkpt>
      <trkpt lat="45.45886" lon="4.72151">
        <ele>378.41613769531</ele>
        <time>2013-05-26T06:39:36Z</time>
      </trkpt>
      <trkpt lat="45.4587" lon="4.72045">
        <ele>381.78063964844</ele>
        <time>2013-05-26T06:40:02Z</time>
      </trkpt>
      <trkpt lat="45.45848" lon="4.71945">
        <ele>385.14538574219</ele>
        <time>2013-05-26T06:40:26Z</time>
      </trkpt>
      <trkpt lat="45.45827" lon="4.71832">
        <ele>383.22265625</ele>
        <time>2013-05-26T06:40:47Z</time>
      </trkpt>
      <trkpt lat="45.45826" lon="4.71709">
        <ele>380.33874511719</ele>
        <time>2013-05-26T06:41:04Z</time>
      </trkpt>
      <trkpt lat="45.45835" lon="4.71557">
        <ele>379.37744140625</ele>
        <time>2013-05-26T06:41:27Z</time>
      </trkpt>
      <trkpt lat="45.45833" lon="4.71414">
        <ele>379.85803222656</ele>
        <time>2013-05-26T06:41:49Z</time>
      </trkpt>
      <trkpt lat="45.45803" lon="4.71254">
        <ele>379.85803222656</ele>
        <time>2013-05-26T06:42:15Z</time>
      </trkpt>
      <trkpt lat="45.45775" lon="4.71176">
        <ele>379.37744140625</ele>
        <time>2013-05-26T06:42:28Z</time>
      </trkpt>
      <trkpt lat="45.45769" lon="4.7115">
        <ele>379.37744140625</ele>
        <time>2013-05-26T06:42:32Z</time>
      </trkpt>
      <trkpt lat="45.45747" lon="4.71037">
        <ele>382.26135253906</ele>
        <time>2013-05-26T06:42:53Z</time>
      </trkpt>
      <trkpt lat="45.45739" lon="4.71013">
        <ele>383.70324707031</ele>
        <time>2013-05-26T06:42:58Z</time>
      </trkpt>
      <trkpt lat="45.4573" lon="4.70972">
        <ele>385.6259765625</ele>
        <time>2013-05-26T06:43:07Z</time>
      </trkpt>
      <trkpt lat="45.45727" lon="4.70865">
        <ele>387.54858398438</ele>
        <time>2013-05-26T06:43:27Z</time>
      </trkpt>
      <trkpt lat="45.45718" lon="4.70753">
        <ele>387.54858398438</ele>
        <time>2013-05-26T06:43:49Z</time>
      </trkpt>
      <trkpt lat="45.45723" lon="4.70708">
        <ele>387.54858398438</ele>
        <time>2013-05-26T06:44:01Z</time>
      </trkpt>
      <trkpt lat="45.45733" lon="4.70692">
        <ele>388.99060058594</ele>
        <time>2013-05-26T06:44:08Z</time>
      </trkpt>
      <trkpt lat="45.45746" lon="4.70643">
        <ele>389.95190429688</ele>
        <time>2013-05-26T06:44:20Z</time>
      </trkpt>
      <trkpt lat="45.45741" lon="4.70554">
        <ele>393.31652832031</ele>
        <time>2013-05-26T06:44:40Z</time>
      </trkpt>
      <trkpt lat="45.45728" lon="4.70449">
        <ele>396.20056152344</ele>
        <time>2013-05-26T06:45:06Z</time>
      </trkpt>
      <trkpt lat="45.45731" lon="4.7041">
        <ele>399.56506347656</ele>
        <time>2013-05-26T06:45:17Z</time>
      </trkpt>
      <trkpt lat="45.45736" lon="4.70363">
        <ele>402.44909667969</ele>
        <time>2013-05-26T06:45:31Z</time>
      </trkpt>
      <trkpt lat="45.45743" lon="4.70314">
        <ele>405.81372070312</ele>
        <time>2013-05-26T06:45:47Z</time>
      </trkpt>
      <trkpt lat="45.45753" lon="4.70251">
        <ele>409.17834472656</ele>
        <time>2013-05-26T06:46:07Z</time>
      </trkpt>
      <trkpt lat="45.45757" lon="4.70189">
        <ele>412.06225585938</ele>
        <time>2013-05-26T06:46:24Z</time>
      </trkpt>
      <trkpt lat="45.45759" lon="4.70154">
        <ele>414.46545410156</ele>
        <time>2013-05-26T06:46:34Z</time>
      </trkpt>
      <trkpt lat="45.45765" lon="4.70127">
        <ele>416.38818359375</ele>
        <time>2013-05-26T06:46:43Z</time>
      </trkpt>
      <trkpt lat="45.45776" lon="4.70078">
        <ele>419.75280761719</ele>
        <time>2013-05-26T06:46:57Z</time>
      </trkpt>
      <trkpt lat="45.45786" lon="4.70016">
        <ele>422.63671875</ele>
        <time>2013-05-26T06:47:14Z</time>
      </trkpt>
      <trkpt lat="45.45782" lon="4.69938">
        <ele>426.48205566406</ele>
        <time>2013-05-26T06:47:36Z</time>
      </trkpt>
      <trkpt lat="45.45787" lon="4.69886">
        <ele>429.36596679688</ele>
        <time>2013-05-26T06:47:51Z</time>
      </trkpt>
      <trkpt lat="45.45806" lon="4.6981">
        <ele>432.73071289062</ele>
        <time>2013-05-26T06:48:14Z</time>
      </trkpt>
      <trkpt lat="45.45825" lon="4.69738">
        <ele>435.61450195312</ele>
        <time>2013-05-26T06:48:36Z</time>
      </trkpt>
      <trkpt lat="45.45842" lon="4.69674">
        <ele>439.45971679688</ele>
        <time>2013-05-26T06:48:55Z</time>
      </trkpt>
      <trkpt lat="45.45854" lon="4.69627">
        <ele>442.34387207031</ele>
        <time>2013-05-26T06:49:09Z</time>
      </trkpt>
      <trkpt lat="45.45855" lon="4.69549">
        <ele>445.70837402344</ele>
        <time>2013-05-26T06:49:31Z</time>
      </trkpt>
      <trkpt lat="45.45833" lon="4.6949">
        <ele>447.15026855469</ele>
        <time>2013-05-26T06:49:52Z</time>
      </trkpt>
      <trkpt lat="45.4582" lon="4.6948">
        <ele>448.11181640625</ele>
        <time>2013-05-26T06:50:04Z</time>
      </trkpt>
      <trkpt lat="45.45813" lon="4.69477">
        <ele>448.59240722656</ele>
        <time>2013-05-26T06:50:10Z</time>
      </trkpt>
      <trkpt lat="45.45802" lon="4.69467">
        <ele>450.51501464844</ele>
        <time>2013-05-26T06:50:20Z</time>
      </trkpt>
      <trkpt lat="45.45801" lon="4.69466">
        <ele>449.5537109375</ele>
        <time>2013-05-26T06:50:21Z</time>
      </trkpt>
      <trkpt lat="45.45793" lon="4.69459">
        <ele>450.99560546875</ele>
        <time>2013-05-26T06:50:28Z</time>
      </trkpt>
      <trkpt lat="45.45785" lon="4.69448">
        <ele>451.47631835938</ele>
        <time>2013-05-26T06:50:37Z</time>
      </trkpt>
      <trkpt lat="45.45772" lon="4.69442">
        <ele>452.43762207031</ele>
        <time>2013-05-26T06:50:45Z</time>
      </trkpt>
      <trkpt lat="45.45762" lon="4.69432">
        <ele>453.39892578125</ele>
        <time>2013-05-26T06:50:51Z</time>
      </trkpt>
      <trkpt lat="45.45729" lon="4.69407">
        <ele>455.80224609375</ele>
        <time>2013-05-26T06:51:12Z</time>
      </trkpt>
      <trkpt lat="45.4569" lon="4.69379">
        <ele>458.68615722656</ele>
        <time>2013-05-26T06:51:33Z</time>
      </trkpt>
      <trkpt lat="45.45652" lon="4.69341">
        <ele>459.64758300781</ele>
        <time>2013-05-26T06:51:55Z</time>
      </trkpt>
      <trkpt lat="45.45605" lon="4.69322">
        <ele>460.12817382812</ele>
        <time>2013-05-26T06:52:12Z</time>
      </trkpt>
      <trkpt lat="45.45603" lon="4.69319">
        <ele>458.68615722656</ele>
        <time>2013-05-26T06:52:27Z</time>
      </trkpt>
      <trkpt lat="45.45603" lon="4.69319">
        <ele>460.12817382812</ele>
        <time>2013-05-26T06:53:03Z</time>
      </trkpt>
      <trkpt lat="45.45603" lon="4.69319">
        <ele>459.64758300781</ele>
        <time>2013-05-26T06:53:19Z</time>
      </trkpt>
      <trkpt lat="45.45603" lon="4.6932">
        <ele>460.12817382812</ele>
        <time>2013-05-26T06:53:54Z</time>
      </trkpt>
      <trkpt lat="45.45589" lon="4.69311">
        <ele>457.72497558594</ele>
        <time>2013-05-26T06:54:15Z</time>
      </trkpt>
      <trkpt lat="45.45581" lon="4.69305">
        <ele>456.76354980469</ele>
        <time>2013-05-26T06:54:17Z</time>
      </trkpt>
      <trkpt lat="45.45548" lon="4.69294">
        <ele>454.36022949219</ele>
        <time>2013-05-26T06:54:20Z</time>
      </trkpt>
      <trkpt lat="45.4554" lon="4.69296">
        <ele>453.87963867188</ele>
        <time>2013-05-26T06:54:21Z</time>
      </trkpt>
      <trkpt lat="45.45518" lon="4.69309">
        <ele>451.95703125</ele>
        <time>2013-05-26T06:54:28Z</time>
      </trkpt>
      <trkpt lat="45.45519" lon="4.69312">
        <ele>452.43762207031</ele>
        <time>2013-05-26T06:54:31Z</time>
      </trkpt>
      <trkpt lat="45.45512" lon="4.69353">
        <ele>449.5537109375</ele>
        <time>2013-05-26T06:54:46Z</time>
      </trkpt>
      <trkpt lat="45.4551" lon="4.69357">
        <ele>449.5537109375</ele>
        <time>2013-05-26T06:54:47Z</time>
      </trkpt>
      <trkpt lat="45.45508" lon="4.69361">
        <ele>449.5537109375</ele>
        <time>2013-05-26T06:54:48Z</time>
      </trkpt>
      <trkpt lat="45.45449" lon="4.69406">
        <ele>446.18908691406</ele>
        <time>2013-05-26T06:55:00Z</time>
      </trkpt>
      <trkpt lat="45.45436" lon="4.69416">
        <ele>445.22766113281</ele>
        <time>2013-05-26T06:55:03Z</time>
      </trkpt>
      <trkpt lat="45.45422" lon="4.69439">
        <ele>442.34387207031</ele>
        <time>2013-05-26T06:55:07Z</time>
      </trkpt>
      <trkpt lat="45.45419" lon="4.69456">
        <ele>441.38244628906</ele>
        <time>2013-05-26T06:55:09Z</time>
      </trkpt>
      <trkpt lat="45.45399" lon="4.69487">
        <ele>440.42126464844</ele>
        <time>2013-05-26T06:55:16Z</time>
      </trkpt>
      <trkpt lat="45.45372" lon="4.69501">
        <ele>440.90185546875</ele>
        <time>2013-05-26T06:55:27Z</time>
      </trkpt>
      <trkpt lat="45.45369" lon="4.69511">
        <ele>441.86315917969</ele>
        <time>2013-05-26T06:55:31Z</time>
      </trkpt>
      <trkpt lat="45.45371" lon="4.69547">
        <ele>444.7470703125</ele>
        <time>2013-05-26T06:55:42Z</time>
      </trkpt>
      <trkpt lat="45.4537" lon="4.69583">
        <ele>447.63098144531</ele>
        <time>2013-05-26T06:55:54Z</time>
      </trkpt>
      <trkpt lat="45.4537" lon="4.69585">
        <ele>447.15026855469</ele>
        <time>2013-05-26T06:55:55Z</time>
      </trkpt>
      <trkpt lat="45.4537" lon="4.69612">
        <ele>450.03442382812</ele>
        <time>2013-05-26T06:56:04Z</time>
      </trkpt>
      <trkpt lat="45.45364" lon="4.69636">
        <ele>453.39892578125</ele>
        <time>2013-05-26T06:56:12Z</time>
      </trkpt>
      <trkpt lat="45.45349" lon="4.69669">
        <ele>456.28295898438</ele>
        <time>2013-05-26T06:56:24Z</time>
      </trkpt>
      <trkpt lat="45.45329" lon="4.69706">
        <ele>459.16687011719</ele>
        <time>2013-05-26T06:56:41Z</time>
      </trkpt>
      <trkpt lat="45.45316" lon="4.69711">
        <ele>463.01208496094</ele>
        <time>2013-05-26T06:56:49Z</time>
      </trkpt>
      <trkpt lat="45.45307" lon="4.69714">
        <ele>464.93481445312</ele>
        <time>2013-05-26T06:56:55Z</time>
      </trkpt>
      <trkpt lat="45.45305" lon="4.69714">
        <ele>465.41552734375</ele>
        <time>2013-05-26T06:56:56Z</time>
      </trkpt>
      <trkpt lat="45.45299" lon="4.69695">
        <ele>466.37670898438</ele>
        <time>2013-05-26T06:57:04Z</time>
      </trkpt>
      <trkpt lat="45.45296" lon="4.69677">
        <ele>467.81872558594</ele>
        <time>2013-05-26T06:57:11Z</time>
      </trkpt>
      <trkpt lat="45.45286" lon="4.69639">
        <ele>471.66394042969</ele>
        <time>2013-05-26T06:57:28Z</time>
      </trkpt>
      <trkpt lat="45.45285" lon="4.69636">
        <ele>471.18334960938</ele>
        <time>2013-05-26T06:57:29Z</time>
      </trkpt>
      <trkpt lat="45.45274" lon="4.69609">
        <ele>474.54797363281</ele>
        <time>2013-05-26T06:57:41Z</time>
      </trkpt>
      <trkpt lat="45.45263" lon="4.69592">
        <ele>475.98986816406</ele>
        <time>2013-05-26T06:57:51Z</time>
      </trkpt>
      <trkpt lat="45.45246" lon="4.69601">
        <ele>479.3544921875</ele>
        <time>2013-05-26T06:58:03Z</time>
      </trkpt>
      <trkpt lat="45.4524" lon="4.69611">
        <ele>481.27722167969</ele>
        <time>2013-05-26T06:58:09Z</time>
      </trkpt>
      <trkpt lat="45.45231" lon="4.69643">
        <ele>484.1611328125</ele>
        <time>2013-05-26T06:58:25Z</time>
      </trkpt>
      <trkpt lat="45.45219" lon="4.69658">
        <ele>486.08374023438</ele>
        <time>2013-05-26T06:58:36Z</time>
      </trkpt>
      <trkpt lat="45.45213" lon="4.69662">
        <ele>487.52563476562</ele>
        <time>2013-05-26T06:58:41Z</time>
      </trkpt>
      <trkpt lat="45.45191" lon="4.6967">
        <ele>490.89038085938</ele>
        <time>2013-05-26T06:58:55Z</time>
      </trkpt>
      <trkpt lat="45.45152" lon="4.69698">
        <ele>492.81298828125</ele>
        <time>2013-05-26T06:59:18Z</time>
      </trkpt>
      <trkpt lat="45.45107" lon="4.69724">
        <ele>495.21618652344</ele>
        <time>2013-05-26T06:59:42Z</time>
      </trkpt>
      <trkpt lat="45.4506" lon="4.69747">
        <ele>496.177734375</ele>
        <time>2013-05-26T07:00:09Z</time>
      </trkpt>
      <trkpt lat="45.45047" lon="4.6972">
        <ele>499.0615234375</ele>
        <time>2013-05-26T07:00:26Z</time>
      </trkpt>
      <trkpt lat="45.45037" lon="4.69689">
        <ele>500.98413085938</ele>
        <time>2013-05-26T07:00:43Z</time>
      </trkpt>
      <trkpt lat="45.45014" lon="4.69657">
        <ele>503.38745117188</ele>
        <time>2013-05-26T07:01:04Z</time>
      </trkpt>
      <trkpt lat="45.44979" lon="4.69629">
        <ele>505.31018066406</ele>
        <time>2013-05-26T07:01:29Z</time>
      </trkpt>
      <trkpt lat="45.44968" lon="4.69609">
        <ele>507.71350097656</ele>
        <time>2013-05-26T07:01:40Z</time>
      </trkpt>
      <trkpt lat="45.44956" lon="4.69577">
        <ele>511.07800292969</ele>
        <time>2013-05-26T07:01:55Z</time>
      </trkpt>
      <trkpt lat="45.44955" lon="4.69536">
        <ele>513.96203613281</ele>
        <time>2013-05-26T07:02:12Z</time>
      </trkpt>
      <trkpt lat="45.44942" lon="4.69511">
        <ele>517.80725097656</ele>
        <time>2013-05-26T07:02:26Z</time>
      </trkpt>
      <trkpt lat="45.4491" lon="4.69496">
        <ele>521.17199707031</ele>
        <time>2013-05-26T07:02:45Z</time>
      </trkpt>
      <trkpt lat="45.44895" lon="4.69478">
        <ele>522.61389160156</ele>
        <time>2013-05-26T07:02:57Z</time>
      </trkpt>
      <trkpt lat="45.44879" lon="4.69454">
        <ele>523.5751953125</ele>
        <time>2013-05-26T07:03:17Z</time>
      </trkpt>
      <trkpt lat="45.44863" lon="4.69424">
        <ele>523.5751953125</ele>
        <time>2013-05-26T07:03:41Z</time>
      </trkpt>
      <trkpt lat="45.44849" lon="4.69399">
        <ele>525.49780273438</ele>
        <time>2013-05-26T07:03:58Z</time>
      </trkpt>
      <trkpt lat="45.44833" lon="4.6936">
        <ele>527.42041015625</ele>
        <time>2013-05-26T07:04:20Z</time>
      </trkpt>
      <trkpt lat="45.44819" lon="4.69307">
        <ele>530.78515625</ele>
        <time>2013-05-26T07:04:44Z</time>
      </trkpt>
      <trkpt lat="45.4482" lon="4.69263">
        <ele>533.6689453125</ele>
        <time>2013-05-26T07:05:05Z</time>
      </trkpt>
      <trkpt lat="45.44824" lon="4.69243">
        <ele>533.18835449219</ele>
        <time>2013-05-26T07:05:22Z</time>
      </trkpt>
      <trkpt lat="45.44823" lon="4.69241">
        <ele>535.11096191406</ele>
        <time>2013-05-26T07:05:38Z</time>
      </trkpt>
      <trkpt lat="45.44815" lon="4.69234">
        <ele>533.6689453125</ele>
        <time>2013-05-26T07:05:44Z</time>
      </trkpt>
      <trkpt lat="45.44787" lon="4.69229">
        <ele>534.63037109375</ele>
        <time>2013-05-26T07:06:02Z</time>
      </trkpt>
      <trkpt lat="45.44763" lon="4.69208">
        <ele>534.63037109375</ele>
        <time>2013-05-26T07:06:11Z</time>
      </trkpt>
      <trkpt lat="45.44736" lon="4.69183">
        <ele>534.63037109375</ele>
        <time>2013-05-26T07:06:23Z</time>
      </trkpt>
      <trkpt lat="45.44706" lon="4.69155">
        <ele>535.11096191406</ele>
        <time>2013-05-26T07:06:33Z</time>
      </trkpt>
      <trkpt lat="45.44662" lon="4.69118">
        <ele>534.63037109375</ele>
        <time>2013-05-26T07:06:51Z</time>
      </trkpt>
      <trkpt lat="45.4459" lon="4.69056">
        <ele>533.6689453125</ele>
        <time>2013-05-26T07:07:13Z</time>
      </trkpt>
      <trkpt lat="45.44538" lon="4.68999">
        <ele>534.14965820312</ele>
        <time>2013-05-26T07:07:32Z</time>
      </trkpt>
      <trkpt lat="45.44484" lon="4.6894">
        <ele>533.6689453125</ele>
        <time>2013-05-26T07:07:52Z</time>
      </trkpt>
      <trkpt lat="45.44416" lon="4.68913">
        <ele>532.22705078125</ele>
        <time>2013-05-26T07:08:12Z</time>
      </trkpt>
      <trkpt lat="45.44387" lon="4.68899">
        <ele>532.70776367188</ele>
        <time>2013-05-26T07:08:20Z</time>
      </trkpt>
      <trkpt lat="45.44353" lon="4.68821">
        <ele>530.30444335938</ele>
        <time>2013-05-26T07:08:33Z</time>
      </trkpt>
      <trkpt lat="45.44344" lon="4.68697">
        <ele>528.86254882812</ele>
        <time>2013-05-26T07:08:46Z</time>
      </trkpt>
      <trkpt lat="45.44364" lon="4.68593">
        <ele>527.42041015625</ele>
        <time>2013-05-26T07:09:00Z</time>
      </trkpt>
      <trkpt lat="45.44394" lon="4.68491">
        <ele>529.34313964844</ele>
        <time>2013-05-26T07:09:19Z</time>
      </trkpt>
      <trkpt lat="45.44397" lon="4.6848">
        <ele>529.82373046875</ele>
        <time>2013-05-26T07:09:21Z</time>
      </trkpt>
      <trkpt lat="45.44399" lon="4.68457">
        <ele>528.3818359375</ele>
        <time>2013-05-26T07:09:25Z</time>
      </trkpt>
      <trkpt lat="45.444" lon="4.68404">
        <ele>527.42041015625</ele>
        <time>2013-05-26T07:09:33Z</time>
      </trkpt>
      <trkpt lat="45.44408" lon="4.68393">
        <ele>527.90100097656</ele>
        <time>2013-05-26T07:09:35Z</time>
      </trkpt>
      <trkpt lat="45.44431" lon="4.68369">
        <ele>527.42041015625</ele>
        <time>2013-05-26T07:09:40Z</time>
      </trkpt>
      <trkpt lat="45.44485" lon="4.68312">
        <ele>525.49780273438</ele>
        <time>2013-05-26T07:09:54Z</time>
      </trkpt>
      <trkpt lat="45.44492" lon="4.68268">
        <ele>523.5751953125</ele>
        <time>2013-05-26T07:10:01Z</time>
      </trkpt>
      <trkpt lat="45.4445" lon="4.68138">
        <ele>520.69128417969</ele>
        <time>2013-05-26T07:10:17Z</time>
      </trkpt>
      <trkpt lat="45.44449" lon="4.68115">
        <ele>520.21057128906</ele>
        <time>2013-05-26T07:10:20Z</time>
      </trkpt>
      <trkpt lat="45.4444" lon="4.68087">
        <ele>520.21057128906</ele>
        <time>2013-05-26T07:10:25Z</time>
      </trkpt>
      <trkpt lat="45.44419" lon="4.6806">
        <ele>517.80725097656</ele>
        <time>2013-05-26T07:10:30Z</time>
      </trkpt>
      <trkpt lat="45.44377" lon="4.68006">
        <ele>514.44262695312</ele>
        <time>2013-05-26T07:10:38Z</time>
      </trkpt>
      <trkpt lat="45.44371" lon="4.67998">
        <ele>514.44262695312</ele>
        <time>2013-05-26T07:10:39Z</time>
      </trkpt>
      <trkpt lat="45.44342" lon="4.67963">
        <ele>510.59729003906</ele>
        <time>2013-05-26T07:10:44Z</time>
      </trkpt>
      <trkpt lat="45.44314" lon="4.67935">
        <ele>508.19409179688</ele>
        <time>2013-05-26T07:10:49Z</time>
      </trkpt>
      <trkpt lat="45.44305" lon="4.67884">
        <ele>509.63610839844</ele>
        <time>2013-05-26T07:10:57Z</time>
      </trkpt>
      <trkpt lat="45.44306" lon="4.67809">
        <ele>511.55871582031</ele>
        <time>2013-05-26T07:11:12Z</time>
      </trkpt>
      <trkpt lat="45.44306" lon="4.6775">
        <ele>514.92333984375</ele>
        <time>2013-05-26T07:11:25Z</time>
      </trkpt>
      <trkpt lat="45.44305" lon="4.67702">
        <ele>518.28784179688</ele>
        <time>2013-05-26T07:11:37Z</time>
      </trkpt>
      <trkpt lat="45.44303" lon="4.67682">
        <ele>519.72985839844</ele>
        <time>2013-05-26T07:11:42Z</time>
      </trkpt>
      <trkpt lat="45.4429" lon="4.67616">
        <ele>522.61389160156</ele>
        <time>2013-05-26T07:11:59Z</time>
      </trkpt>
      <trkpt lat="45.44273" lon="4.67528">
        <ele>526.45910644531</ele>
        <time>2013-05-26T07:12:22Z</time>
      </trkpt>
      <trkpt lat="45.44257" lon="4.67477">
        <ele>529.34313964844</ele>
        <time>2013-05-26T07:12:36Z</time>
      </trkpt>
      <trkpt lat="45.44227" lon="4.67453">
        <ele>532.70776367188</ele>
        <time>2013-05-26T07:12:49Z</time>
      </trkpt>
      <trkpt lat="45.44178" lon="4.67449">
        <ele>534.14965820312</ele>
        <time>2013-05-26T07:13:07Z</time>
      </trkpt>
      <trkpt lat="45.44177" lon="4.6744">
        <ele>534.63037109375</ele>
        <time>2013-05-26T07:13:12Z</time>
      </trkpt>
      <trkpt lat="45.44179" lon="4.67434">
        <ele>535.59155273438</ele>
        <time>2013-05-26T07:13:14Z</time>
      </trkpt>
      <trkpt lat="45.44188" lon="4.67404">
        <ele>538.95629882812</ele>
        <time>2013-05-26T07:13:25Z</time>
      </trkpt>
      <trkpt lat="45.44189" lon="4.67378">
        <ele>541.84020996094</ele>
        <time>2013-05-26T07:13:36Z</time>
      </trkpt>
      <trkpt lat="45.44188" lon="4.67367">
        <ele>543.76281738281</ele>
        <time>2013-05-26T07:13:51Z</time>
      </trkpt>
      <trkpt lat="45.44191" lon="4.67358">
        <ele>543.28210449219</ele>
        <time>2013-05-26T07:14:12Z</time>
      </trkpt>
      <trkpt lat="45.44191" lon="4.67358">
        <ele>543.76281738281</ele>
        <time>2013-05-26T07:14:33Z</time>
      </trkpt>
      <trkpt lat="45.44196" lon="4.67355">
        <ele>544.72424316406</ele>
        <time>2013-05-26T07:14:52Z</time>
      </trkpt>
      <trkpt lat="45.44196" lon="4.67355">
        <ele>544.24365234375</ele>
        <time>2013-05-26T07:15:03Z</time>
      </trkpt>
      <trkpt lat="45.44196" lon="4.67349">
        <ele>545.20483398438</ele>
        <time>2013-05-26T07:15:28Z</time>
      </trkpt>
      <trkpt lat="45.44196" lon="4.67351">
        <ele>544.72424316406</ele>
        <time>2013-05-26T07:15:41Z</time>
      </trkpt>
      <trkpt lat="45.44197" lon="4.67351">
        <ele>544.24365234375</ele>
        <time>2013-05-26T07:15:56Z</time>
      </trkpt>
      <trkpt lat="45.44196" lon="4.67351">
        <ele>544.72424316406</ele>
        <time>2013-05-26T07:17:01Z</time>
      </trkpt>
      <trkpt lat="45.44195" lon="4.6735">
        <ele>545.20483398438</ele>
        <time>2013-05-26T07:17:50Z</time>
      </trkpt>
      <trkpt lat="45.44195" lon="4.67348">
        <ele>545.20483398438</ele>
        <time>2013-05-26T07:18:10Z</time>
      </trkpt>
      <trkpt lat="45.44193" lon="4.6735">
        <ele>544.72424316406</ele>
        <time>2013-05-26T07:18:31Z</time>
      </trkpt>
      <trkpt lat="45.44192" lon="4.67354">
        <ele>542.80151367188</ele>
        <time>2013-05-26T07:19:01Z</time>
      </trkpt>
      <trkpt lat="45.44188" lon="4.67357">
        <ele>542.80151367188</ele>
        <time>2013-05-26T07:19:18Z</time>
      </trkpt>
      <trkpt lat="45.44188" lon="4.67362">
        <ele>541.35949707031</ele>
        <time>2013-05-26T07:19:36Z</time>
      </trkpt>
      <trkpt lat="45.44188" lon="4.67363">
        <ele>547.12744140625</ele>
        <time>2013-05-26T07:21:38Z</time>
      </trkpt>
      <trkpt lat="45.44188" lon="4.67363">
        <ele>542.32092285156</ele>
        <time>2013-05-26T07:21:39Z</time>
      </trkpt>
      <trkpt lat="45.44188" lon="4.67363">
        <ele>542.80151367188</ele>
        <time>2013-05-26T07:21:58Z</time>
      </trkpt>
      <trkpt lat="45.44188" lon="4.67363">
        <ele>542.80151367188</ele>
        <time>2013-05-26T07:22:03Z</time>
      </trkpt>
      <trkpt lat="45.44189" lon="4.67373">
        <ele>542.80151367188</ele>
        <time>2013-05-26T07:22:08Z</time>
      </trkpt>
      <trkpt lat="45.44184" lon="4.67422">
        <ele>538.95629882812</ele>
        <time>2013-05-26T07:22:13Z</time>
      </trkpt>
      <trkpt lat="45.44179" lon="4.67437">
        <ele>536.07238769531</ele>
        <time>2013-05-26T07:22:15Z</time>
      </trkpt>
      <trkpt lat="45.44155" lon="4.6744">
        <ele>534.14965820312</ele>
        <time>2013-05-26T07:22:21Z</time>
      </trkpt>
      <trkpt lat="45.44111" lon="4.67388">
        <ele>536.07238769531</ele>
        <time>2013-05-26T07:22:37Z</time>
      </trkpt>
      <trkpt lat="45.44096" lon="4.67354">
        <ele>537.99499511719</ele>
        <time>2013-05-26T07:22:45Z</time>
      </trkpt>
      <trkpt lat="45.44047" lon="4.67288">
        <ele>537.51428222656</ele>
        <time>2013-05-26T07:23:02Z</time>
      </trkpt>
      <trkpt lat="45.44032" lon="4.67265">
        <ele>537.99499511719</ele>
        <time>2013-05-26T07:23:07Z</time>
      </trkpt>
      <trkpt lat="45.4402" lon="4.67218">
        <ele>539.91760253906</ele>
        <time>2013-05-26T07:23:17Z</time>
      </trkpt>
      <trkpt lat="45.4399" lon="4.6715">
        <ele>541.84020996094</ele>
        <time>2013-05-26T07:23:35Z</time>
      </trkpt>
      <trkpt lat="45.4395" lon="4.67066">
        <ele>543.76281738281</ele>
        <time>2013-05-26T07:23:57Z</time>
      </trkpt>
      <trkpt lat="45.43923" lon="4.67001">
        <ele>545.20483398438</ele>
        <time>2013-05-26T07:24:14Z</time>
      </trkpt>
      <trkpt lat="45.43871" lon="4.66904">
        <ele>541.84020996094</ele>
        <time>2013-05-26T07:24:32Z</time>
      </trkpt>
      <trkpt lat="45.43843" lon="4.66837">
        <ele>538.95629882812</ele>
        <time>2013-05-26T07:24:42Z</time>
      </trkpt>
      <trkpt lat="45.43838" lon="4.66805">
        <ele>537.51428222656</ele>
        <time>2013-05-26T07:24:45Z</time>
      </trkpt>
      <trkpt lat="45.43835" lon="4.66772">
        <ele>535.11096191406</ele>
        <time>2013-05-26T07:24:48Z</time>
      </trkpt>
      <trkpt lat="45.43829" lon="4.66751">
        <ele>531.26574707031</ele>
        <time>2013-05-26T07:24:52Z</time>
      </trkpt>
      <trkpt lat="45.43829" lon="4.66755">
        <ele>531.26574707031</ele>
        <time>2013-05-26T07:24:54Z</time>
      </trkpt>
      <trkpt lat="45.43835" lon="4.66763">
        <ele>531.26574707031</ele>
        <time>2013-05-26T07:24:59Z</time>
      </trkpt>
      <trkpt lat="45.4384" lon="4.66759">
        <ele>532.70776367188</ele>
        <time>2013-05-26T07:25:02Z</time>
      </trkpt>
      <trkpt lat="45.43845" lon="4.66738">
        <ele>536.55310058594</ele>
        <time>2013-05-26T07:25:07Z</time>
      </trkpt>
      <trkpt lat="45.43845" lon="4.66733">
        <ele>536.55310058594</ele>
        <time>2013-05-26T07:25:08Z</time>
      </trkpt>
      <trkpt lat="45.43848" lon="4.66712">
        <ele>538.95629882812</ele>
        <time>2013-05-26T07:25:13Z</time>
      </trkpt>
      <trkpt lat="45.4386" lon="4.66649">
        <ele>540.87890625</ele>
        <time>2013-05-26T07:25:34Z</time>
      </trkpt>
      <trkpt lat="45.43866" lon="4.66604">
        <ele>543.76281738281</ele>
        <time>2013-05-26T07:25:51Z</time>
      </trkpt>
      <trkpt lat="45.4387" lon="4.6659">
        <ele>545.685546875</ele>
        <time>2013-05-26T07:25:57Z</time>
      </trkpt>
      <trkpt lat="45.43879" lon="4.66573">
        <ele>549.05004882812</ele>
        <time>2013-05-26T07:26:07Z</time>
      </trkpt>
      <trkpt lat="45.43886" lon="4.66548">
        <ele>551.93408203125</ele>
        <time>2013-05-26T07:26:19Z</time>
      </trkpt>
      <trkpt lat="45.43891" lon="4.66528">
        <ele>555.29858398438</ele>
        <time>2013-05-26T07:26:30Z</time>
      </trkpt>
      <trkpt lat="45.43899" lon="4.66504">
        <ele>558.66333007812</ele>
        <time>2013-05-26T07:26:42Z</time>
      </trkpt>
      <trkpt lat="45.43911" lon="4.66473">
        <ele>561.54736328125</ele>
        <time>2013-05-26T07:26:58Z</time>
      </trkpt>
      <trkpt lat="45.43922" lon="4.66451">
        <ele>564.91186523438</ele>
        <time>2013-05-26T07:27:11Z</time>
      </trkpt>
      <trkpt lat="45.43927" lon="4.66431">
        <ele>568.2763671875</ele>
        <time>2013-05-26T07:27:23Z</time>
      </trkpt>
      <trkpt lat="45.43934" lon="4.66403">
        <ele>571.64086914062</ele>
        <time>2013-05-26T07:27:39Z</time>
      </trkpt>
      <trkpt lat="45.43939" lon="4.66394">
        <ele>574.04443359375</ele>
        <time>2013-05-26T07:27:46Z</time>
      </trkpt>
      <trkpt lat="45.43941" lon="4.66388">
        <ele>574.04443359375</ele>
        <time>2013-05-26T07:27:50Z</time>
      </trkpt>
      <trkpt lat="45.43953" lon="4.66372">
        <ele>576.44775390625</ele>
        <time>2013-05-26T07:28:03Z</time>
      </trkpt>
      <trkpt lat="45.43965" lon="4.66352">
        <ele>579.33154296875</ele>
        <time>2013-05-26T07:28:17Z</time>
      </trkpt>
      <trkpt lat="45.43978" lon="4.66316">
        <ele>582.21557617188</ele>
        <time>2013-05-26T07:28:35Z</time>
      </trkpt>
      <trkpt lat="45.44" lon="4.66279">
        <ele>585.580078125</ele>
        <time>2013-05-26T07:28:56Z</time>
      </trkpt>
      <trkpt lat="45.44017" lon="4.66256">
        <ele>587.02197265625</ele>
        <time>2013-05-26T07:29:12Z</time>
      </trkpt>
      <trkpt lat="45.44051" lon="4.66236">
        <ele>587.50268554688</ele>
        <time>2013-05-26T07:29:30Z</time>
      </trkpt>
      <trkpt lat="45.44085" lon="4.66225">
        <ele>588.46435546875</ele>
        <time>2013-05-26T07:29:45Z</time>
      </trkpt>
      <trkpt lat="45.44132" lon="4.66221">
        <ele>587.9833984375</ele>
        <time>2013-05-26T07:30:01Z</time>
      </trkpt>
      <trkpt lat="45.44154" lon="4.66205">
        <ele>587.50268554688</ele>
        <time>2013-05-26T07:30:12Z</time>
      </trkpt>
      <trkpt lat="45.44178" lon="4.66161">
        <ele>590.38696289062</ele>
        <time>2013-05-26T07:30:28Z</time>
      </trkpt>
      <trkpt lat="45.44192" lon="4.66132">
        <ele>592.79028320312</ele>
        <time>2013-05-26T07:30:39Z</time>
      </trkpt>
      <trkpt lat="45.44193" lon="4.66126">
        <ele>592.79028320312</ele>
        <time>2013-05-26T07:30:42Z</time>
      </trkpt>
      <trkpt lat="45.44202" lon="4.66076">
        <ele>593.27075195312</ele>
        <time>2013-05-26T07:30:57Z</time>
      </trkpt>
      <trkpt lat="45.442" lon="4.6604">
        <ele>594.71264648438</ele>
        <time>2013-05-26T07:31:10Z</time>
      </trkpt>
      <trkpt lat="45.44196" lon="4.66024">
        <ele>596.15478515625</ele>
        <time>2013-05-26T07:31:18Z</time>
      </trkpt>
      <trkpt lat="45.44196" lon="4.66018">
        <ele>596.15478515625</ele>
        <time>2013-05-26T07:31:20Z</time>
      </trkpt>
      <trkpt lat="45.44198" lon="4.66002">
        <ele>596.15478515625</ele>
        <time>2013-05-26T07:31:26Z</time>
      </trkpt>
      <trkpt lat="45.44199" lon="4.65988">
        <ele>596.63549804688</ele>
        <time>2013-05-26T07:31:30Z</time>
      </trkpt>
      <trkpt lat="45.442" lon="4.6597">
        <ele>596.63549804688</ele>
        <time>2013-05-26T07:31:35Z</time>
      </trkpt>
      <trkpt lat="45.44202" lon="4.65951">
        <ele>597.11596679688</ele>
        <time>2013-05-26T07:31:40Z</time>
      </trkpt>
      <trkpt lat="45.44202" lon="4.65937">
        <ele>597.11596679688</ele>
        <time>2013-05-26T07:31:45Z</time>
      </trkpt>
      <trkpt lat="45.44203" lon="4.65923">
        <ele>597.5966796875</ele>
        <time>2013-05-26T07:31:49Z</time>
      </trkpt>
      <trkpt lat="45.44199" lon="4.65909">
        <ele>598.07739257812</ele>
        <time>2013-05-26T07:31:54Z</time>
      </trkpt>
      <trkpt lat="45.44191" lon="4.65857">
        <ele>600.48071289062</ele>
        <time>2013-05-26T07:32:08Z</time>
      </trkpt>
      <trkpt lat="45.44186" lon="4.65829">
        <ele>602.40307617188</ele>
        <time>2013-05-26T07:32:17Z</time>
      </trkpt>
      <trkpt lat="45.44186" lon="4.65814">
        <ele>603.36450195312</ele>
        <time>2013-05-26T07:32:23Z</time>
      </trkpt>
      <trkpt lat="45.44187" lon="4.658">
        <ele>605.76806640625</ele>
        <time>2013-05-26T07:32:31Z</time>
      </trkpt>
      <trkpt lat="45.4419" lon="4.65775">
        <ele>608.17138671875</ele>
        <time>2013-05-26T07:32:40Z</time>
      </trkpt>
      <trkpt lat="45.44194" lon="4.65755">
        <ele>611.53588867188</ele>
        <time>2013-05-26T07:32:53Z</time>
      </trkpt>
      <trkpt lat="45.44194" lon="4.65754">
        <ele>611.05517578125</ele>
        <time>2013-05-26T07:32:57Z</time>
      </trkpt>
      <trkpt lat="45.44194" lon="4.65726">
        <ele>614.41967773438</ele>
        <time>2013-05-26T07:33:09Z</time>
      </trkpt>
      <trkpt lat="45.44193" lon="4.65722">
        <ele>613.93896484375</ele>
        <time>2013-05-26T07:33:11Z</time>
      </trkpt>
      <trkpt lat="45.44194" lon="4.65697">
        <ele>617.3037109375</ele>
        <time>2013-05-26T07:33:24Z</time>
      </trkpt>
      <trkpt lat="45.44196" lon="4.65674">
        <ele>621.14916992188</ele>
        <time>2013-05-26T07:33:35Z</time>
      </trkpt>
      <trkpt lat="45.44197" lon="4.65657">
        <ele>622.1103515625</ele>
        <time>2013-05-26T07:33:52Z</time>
      </trkpt>
      <trkpt lat="45.44197" lon="4.65654">
        <ele>622.59106445312</ele>
        <time>2013-05-26T07:33:57Z</time>
      </trkpt>
      <trkpt lat="45.44197" lon="4.65649">
        <ele>624.03295898438</ele>
        <time>2013-05-26T07:34:01Z</time>
      </trkpt>
      <trkpt lat="45.44199" lon="4.65637">
        <ele>626.43627929688</ele>
        <time>2013-05-26T07:34:14Z</time>
      </trkpt>
      <trkpt lat="45.44202" lon="4.65615">
        <ele>629.80078125</ele>
        <time>2013-05-26T07:34:28Z</time>
      </trkpt>
      <trkpt lat="45.442" lon="4.65598">
        <ele>633.16528320312</ele>
        <time>2013-05-26T07:34:39Z</time>
      </trkpt>
      <trkpt lat="45.44199" lon="4.65589">
        <ele>634.12670898438</ele>
        <time>2013-05-26T07:34:46Z</time>
      </trkpt>
      <trkpt lat="45.44198" lon="4.65578">
        <ele>636.04956054688</ele>
        <time>2013-05-26T07:34:54Z</time>
      </trkpt>
      <trkpt lat="45.442" lon="4.65568">
        <ele>637.49145507812</ele>
        <time>2013-05-26T07:34:58Z</time>
      </trkpt>
      <trkpt lat="45.44206" lon="4.65541">
        <ele>640.37548828125</ele>
        <time>2013-05-26T07:35:12Z</time>
      </trkpt>
      <trkpt lat="45.44208" lon="4.65514">
        <ele>643.73999023438</ele>
        <time>2013-05-26T07:35:25Z</time>
      </trkpt>
      <trkpt lat="45.44212" lon="4.65483">
        <ele>645.66259765625</ele>
        <time>2013-05-26T07:35:40Z</time>
      </trkpt>
      <trkpt lat="45.44215" lon="4.65466">
        <ele>648.06591796875</ele>
        <time>2013-05-26T07:35:48Z</time>
      </trkpt>
      <trkpt lat="45.44219" lon="4.65458">
        <ele>647.58520507812</ele>
        <time>2013-05-26T07:35:53Z</time>
      </trkpt>
      <trkpt lat="45.44224" lon="4.65444">
        <ele>647.58520507812</ele>
        <time>2013-05-26T07:36:00Z</time>
      </trkpt>
      <trkpt lat="45.44229" lon="4.65425">
        <ele>649.98852539062</ele>
        <time>2013-05-26T07:36:10Z</time>
      </trkpt>
      <trkpt lat="45.44235" lon="4.65405">
        <ele>652.39184570312</ele>
        <time>2013-05-26T07:36:20Z</time>
      </trkpt>
      <trkpt lat="45.44241" lon="4.65369">
        <ele>653.833984375</ele>
        <time>2013-05-26T07:36:38Z</time>
      </trkpt>
      <trkpt lat="45.44245" lon="4.65351">
        <ele>657.19848632812</ele>
        <time>2013-05-26T07:36:48Z</time>
      </trkpt>
      <trkpt lat="45.44254" lon="4.65325">
        <ele>659.60180664062</ele>
        <time>2013-05-26T07:37:03Z</time>
      </trkpt>
      <trkpt lat="45.44263" lon="4.6531">
        <ele>662.48559570312</ele>
        <time>2013-05-26T07:37:15Z</time>
      </trkpt>
      <trkpt lat="45.44275" lon="4.65292">
        <ele>664.408203125</ele>
        <time>2013-05-26T07:37:27Z</time>
      </trkpt>
      <trkpt lat="45.44285" lon="4.65271">
        <ele>666.8115234375</ele>
        <time>2013-05-26T07:37:41Z</time>
      </trkpt>
      <trkpt lat="45.4429" lon="4.65253">
        <ele>669.21508789062</ele>
        <time>2013-05-26T07:37:50Z</time>
      </trkpt>
      <trkpt lat="45.44292" lon="4.65243">
        <ele>670.17626953125</ele>
        <time>2013-05-26T07:37:56Z</time>
      </trkpt>
      <trkpt lat="45.44303" lon="4.65219">
        <ele>672.09887695312</ele>
        <time>2013-05-26T07:38:12Z</time>
      </trkpt>
      <trkpt lat="45.44311" lon="4.65206">
        <ele>674.50219726562</ele>
        <time>2013-05-26T07:38:24Z</time>
      </trkpt>
      <trkpt lat="45.44321" lon="4.65189">
        <ele>675.94409179688</ele>
        <time>2013-05-26T07:38:34Z</time>
      </trkpt>
      <trkpt lat="45.44331" lon="4.65176">
        <ele>678.828125</ele>
        <time>2013-05-26T07:38:46Z</time>
      </trkpt>
      <trkpt lat="45.4434" lon="4.65161">
        <ele>681.2314453125</ele>
        <time>2013-05-26T07:39:01Z</time>
      </trkpt>
      <trkpt lat="45.44353" lon="4.6514">
        <ele>683.15380859375</ele>
        <time>2013-05-26T07:39:14Z</time>
      </trkpt>
      <trkpt lat="45.44362" lon="4.65115">
        <ele>686.51879882812</ele>
        <time>2013-05-26T07:39:27Z</time>
      </trkpt>
      <trkpt lat="45.44371" lon="4.65093">
        <ele>686.0380859375</ele>
        <time>2013-05-26T07:39:43Z</time>
      </trkpt>
      <trkpt lat="45.44388" lon="4.65065">
        <ele>689.40258789062</ele>
        <time>2013-05-26T07:40:02Z</time>
      </trkpt>
      <trkpt lat="45.44401" lon="4.65038">
        <ele>689.88330078125</ele>
        <time>2013-05-26T07:40:24Z</time>
      </trkpt>
      <trkpt lat="45.44403" lon="4.65037">
        <ele>689.40258789062</ele>
        <time>2013-05-26T07:40:45Z</time>
      </trkpt>
      <trkpt lat="45.444" lon="4.65041">
        <ele>690.36401367188</ele>
        <time>2013-05-26T07:41:04Z</time>
      </trkpt>
      <trkpt lat="45.44404" lon="4.65045">
        <ele>689.40258789062</ele>
        <time>2013-05-26T07:41:25Z</time>
      </trkpt>
      <trkpt lat="45.44401" lon="4.65049">
        <ele>689.40258789062</ele>
        <time>2013-05-26T07:43:21Z</time>
      </trkpt>
      <trkpt lat="45.44403" lon="4.65045">
        <ele>691.3251953125</ele>
        <time>2013-05-26T07:44:11Z</time>
      </trkpt>
      <trkpt lat="45.44402" lon="4.65033">
        <ele>690.84448242188</ele>
        <time>2013-05-26T07:44:29Z</time>
      </trkpt>
      <trkpt lat="45.44397" lon="4.65031">
        <ele>691.3251953125</ele>
        <time>2013-05-26T07:45:07Z</time>
      </trkpt>
      <trkpt lat="45.44403" lon="4.65028">
        <ele>693.24780273438</ele>
        <time>2013-05-26T07:45:43Z</time>
      </trkpt>
      <trkpt lat="45.44423" lon="4.64999">
        <ele>694.68969726562</ele>
        <time>2013-05-26T07:45:59Z</time>
      </trkpt>
      <trkpt lat="45.44424" lon="4.64997">
        <ele>694.68969726562</ele>
        <time>2013-05-26T07:46:00Z</time>
      </trkpt>
      <trkpt lat="45.44445" lon="4.64981">
        <ele>695.17041015625</ele>
        <time>2013-05-26T07:46:13Z</time>
      </trkpt>
      <trkpt lat="45.44465" lon="4.64965">
        <ele>696.1318359375</ele>
        <time>2013-05-26T07:46:25Z</time>
      </trkpt>
      <trkpt lat="45.44483" lon="4.64949">
        <ele>696.61254882812</ele>
        <time>2013-05-26T07:46:37Z</time>
      </trkpt>
      <trkpt lat="45.44506" lon="4.64919">
        <ele>698.53491210938</ele>
        <time>2013-05-26T07:46:50Z</time>
      </trkpt>
      <trkpt lat="45.44523" lon="4.64883">
        <ele>700.4580078125</ele>
        <time>2013-05-26T07:47:02Z</time>
      </trkpt>
      <trkpt lat="45.44545" lon="4.64853">
        <ele>702.38037109375</ele>
        <time>2013-05-26T07:47:17Z</time>
      </trkpt>
      <trkpt lat="45.44548" lon="4.64849">
        <ele>703.82250976562</ele>
        <time>2013-05-26T07:47:19Z</time>
      </trkpt>
      <trkpt lat="45.44561" lon="4.64814">
        <ele>706.70629882812</ele>
        <time>2013-05-26T07:47:35Z</time>
      </trkpt>
      <trkpt lat="45.4457" lon="4.64785">
        <ele>710.07080078125</ele>
        <time>2013-05-26T07:47:50Z</time>
      </trkpt>
      <trkpt lat="45.44583" lon="4.64756">
        <ele>712.95483398438</ele>
        <time>2013-05-26T07:48:06Z</time>
      </trkpt>
      <trkpt lat="45.44587" lon="4.64737">
        <ele>715.35815429688</ele>
        <time>2013-05-26T07:48:17Z</time>
      </trkpt>
      <trkpt lat="45.44586" lon="4.64701">
        <ele>717.28100585938</ele>
        <time>2013-05-26T07:48:34Z</time>
      </trkpt>
      <trkpt lat="45.44581" lon="4.6467">
        <ele>720.6455078125</ele>
        <time>2013-05-26T07:48:49Z</time>
      </trkpt>
      <trkpt lat="45.4458" lon="4.64661">
        <ele>721.12622070312</ele>
        <time>2013-05-26T07:48:55Z</time>
      </trkpt>
      <trkpt lat="45.44584" lon="4.64662">
        <ele>722.08740234375</ele>
        <time>2013-05-26T07:49:02Z</time>
      </trkpt>
      <trkpt lat="45.44584" lon="4.64664">
        <ele>721.60668945312</ele>
        <time>2013-05-26T07:49:03Z</time>
      </trkpt>
      <trkpt lat="45.44585" lon="4.64668">
        <ele>720.6455078125</ele>
        <time>2013-05-26T07:49:05Z</time>
      </trkpt>
      <trkpt lat="45.44588" lon="4.64673">
        <ele>722.56811523438</ele>
        <time>2013-05-26T07:49:09Z</time>
      </trkpt>
      <trkpt lat="45.44589" lon="4.6466">
        <ele>723.048828125</ele>
        <time>2013-05-26T07:49:15Z</time>
      </trkpt>
      <trkpt lat="45.44585" lon="4.64617">
        <ele>724.01000976562</ele>
        <time>2013-05-26T07:49:34Z</time>
      </trkpt>
      <trkpt lat="45.44586" lon="4.64589">
        <ele>725.45190429688</ele>
        <time>2013-05-26T07:49:47Z</time>
      </trkpt>
      <trkpt lat="45.44586" lon="4.64577">
        <ele>725.9326171875</ele>
        <time>2013-05-26T07:49:53Z</time>
      </trkpt>
      <trkpt lat="45.44587" lon="4.64572">
        <ele>727.37475585938</ele>
        <time>2013-05-26T07:49:55Z</time>
      </trkpt>
      <trkpt lat="45.44587" lon="4.64562">
        <ele>726.89404296875</ele>
        <time>2013-05-26T07:49:59Z</time>
      </trkpt>
      <trkpt lat="45.44588" lon="4.64552">
        <ele>728.3359375</ele>
        <time>2013-05-26T07:50:04Z</time>
      </trkpt>
      <trkpt lat="45.4459" lon="4.64505">
        <ele>730.7392578125</ele>
        <time>2013-05-26T07:50:24Z</time>
      </trkpt>
      <trkpt lat="45.44593" lon="4.64494">
        <ele>732.18139648438</ele>
        <time>2013-05-26T07:50:29Z</time>
      </trkpt>
      <trkpt lat="45.44595" lon="4.64451">
        <ele>736.02661132812</ele>
        <time>2013-05-26T07:50:49Z</time>
      </trkpt>
      <trkpt lat="45.44598" lon="4.64422">
        <ele>737.46850585938</ele>
        <time>2013-05-26T07:51:03Z</time>
      </trkpt>
      <trkpt lat="45.44599" lon="4.64371">
        <ele>740.3525390625</ele>
        <time>2013-05-26T07:51:21Z</time>
      </trkpt>
      <trkpt lat="45.446" lon="4.64319">
        <ele>743.236328125</ele>
        <time>2013-05-26T07:51:36Z</time>
      </trkpt>
      <trkpt lat="45.446" lon="4.64274">
        <ele>746.12036132812</ele>
        <time>2013-05-26T07:51:51Z</time>
      </trkpt>
      <trkpt lat="45.446" lon="4.64265">
        <ele>746.60107421875</ele>
        <time>2013-05-26T07:51:54Z</time>
      </trkpt>
      <trkpt lat="45.44598" lon="4.64241">
        <ele>749.48510742188</ele>
        <time>2013-05-26T07:52:06Z</time>
      </trkpt>
      <trkpt lat="45.44599" lon="4.64229">
        <ele>749.9658203125</ele>
        <time>2013-05-26T07:52:11Z</time>
      </trkpt>
      <trkpt lat="45.44599" lon="4.64198">
        <ele>752.849609375</ele>
        <time>2013-05-26T07:52:20Z</time>
      </trkpt>
      <trkpt lat="45.44601" lon="4.64169">
        <ele>756.69482421875</ele>
        <time>2013-05-26T07:52:33Z</time>
      </trkpt>
      <trkpt lat="45.446" lon="4.6413">
        <ele>759.57885742188</ele>
        <time>2013-05-26T07:52:49Z</time>
      </trkpt>
      <trkpt lat="45.446" lon="4.64105">
        <ele>762.46264648438</ele>
        <time>2013-05-26T07:53:00Z</time>
      </trkpt>
      <trkpt lat="45.44599" lon="4.64096">
        <ele>763.42407226562</ele>
        <time>2013-05-26T07:53:05Z</time>
      </trkpt>
      <trkpt lat="45.44598" lon="4.64088">
        <ele>764.38549804688</ele>
        <time>2013-05-26T07:53:09Z</time>
      </trkpt>
      <trkpt lat="45.44598" lon="4.64059">
        <ele>768.23071289062</ele>
        <time>2013-05-26T07:53:21Z</time>
      </trkpt>
      <trkpt lat="45.44599" lon="4.6405">
        <ele>769.6728515625</ele>
        <time>2013-05-26T07:53:27Z</time>
      </trkpt>
      <trkpt lat="45.44599" lon="4.64045">
        <ele>770.1533203125</ele>
        <time>2013-05-26T07:53:29Z</time>
      </trkpt>
      <trkpt lat="45.446" lon="4.64038">
        <ele>771.11474609375</ele>
        <time>2013-05-26T07:53:32Z</time>
      </trkpt>
      <trkpt lat="45.44603" lon="4.64011">
        <ele>773.51806640625</ele>
        <time>2013-05-26T07:53:43Z</time>
      </trkpt>
      <trkpt lat="45.44603" lon="4.64003">
        <ele>773.51806640625</ele>
        <time>2013-05-26T07:53:47Z</time>
      </trkpt>
      <trkpt lat="45.44602" lon="4.63985">
        <ele>775.4404296875</ele>
        <time>2013-05-26T07:53:56Z</time>
      </trkpt>
      <trkpt lat="45.44603" lon="4.63971">
        <ele>775.92114257812</ele>
        <time>2013-05-26T07:54:16Z</time>
      </trkpt>
      <trkpt lat="45.446" lon="4.63948">
        <ele>778.80517578125</ele>
        <time>2013-05-26T08:00:34Z</time>
      </trkpt>
      <trkpt lat="45.446" lon="4.63911">
        <ele>782.169921875</ele>
        <time>2013-05-26T08:00:49Z</time>
      </trkpt>
      <trkpt lat="45.44599" lon="4.63885">
        <ele>784.09252929688</ele>
        <time>2013-05-26T08:01:00Z</time>
      </trkpt>
      <trkpt lat="45.44594" lon="4.63855">
        <ele>785.53442382812</ele>
        <time>2013-05-26T08:01:14Z</time>
      </trkpt>
      <trkpt lat="45.44587" lon="4.63823">
        <ele>787.45703125</ele>
        <time>2013-05-26T08:01:28Z</time>
      </trkpt>
      <trkpt lat="45.44585" lon="4.63813">
        <ele>787.45703125</ele>
        <time>2013-05-26T08:01:32Z</time>
      </trkpt>
      <trkpt lat="45.44581" lon="4.63801">
        <ele>788.41845703125</ele>
        <time>2013-05-26T08:01:38Z</time>
      </trkpt>
      <trkpt lat="45.44573" lon="4.63768">
        <ele>789.8603515625</ele>
        <time>2013-05-26T08:01:51Z</time>
      </trkpt>
      <trkpt lat="45.44564" lon="4.63738">
        <ele>791.78295898438</ele>
        <time>2013-05-26T08:02:03Z</time>
      </trkpt>
      <trkpt lat="45.44562" lon="4.63725">
        <ele>792.263671875</ele>
        <time>2013-05-26T08:02:07Z</time>
      </trkpt>
      <trkpt lat="45.44557" lon="4.63695">
        <ele>794.66674804688</ele>
        <time>2013-05-26T08:02:19Z</time>
      </trkpt>
      <trkpt lat="45.44556" lon="4.63677">
        <ele>796.58984375</ele>
        <time>2013-05-26T08:02:26Z</time>
      </trkpt>
      <trkpt lat="45.44559" lon="4.63674">
        <ele>797.55102539062</ele>
        <time>2013-05-26T08:02:31Z</time>
      </trkpt>
      <trkpt lat="45.44569" lon="4.63687">
        <ele>800.43505859375</ele>
        <time>2013-05-26T08:02:39Z</time>
      </trkpt>
      <trkpt lat="45.44586" lon="4.63706">
        <ele>800.91552734375</ele>
        <time>2013-05-26T08:02:51Z</time>
      </trkpt>
      <trkpt lat="45.44594" lon="4.63731">
        <ele>803.79956054688</ele>
        <time>2013-05-26T08:03:05Z</time>
      </trkpt>
      <trkpt lat="45.44611" lon="4.63767">
        <ele>807.1640625</ele>
        <time>2013-05-26T08:03:25Z</time>
      </trkpt>
      <trkpt lat="45.44627" lon="4.63795">
        <ele>810.52856445312</ele>
        <time>2013-05-26T08:03:42Z</time>
      </trkpt>
      <trkpt lat="45.44641" lon="4.6382">
        <ele>813.41284179688</ele>
        <time>2013-05-26T08:03:56Z</time>
      </trkpt>
      <trkpt lat="45.44654" lon="4.63845">
        <ele>816.77734375</ele>
        <time>2013-05-26T08:04:10Z</time>
      </trkpt>
      <trkpt lat="45.44673" lon="4.63877">
        <ele>820.14184570312</ele>
        <time>2013-05-26T08:04:29Z</time>
      </trkpt>
      <trkpt lat="45.44686" lon="4.63903">
        <ele>823.50659179688</ele>
        <time>2013-05-26T08:04:43Z</time>
      </trkpt>
      <trkpt lat="45.44699" lon="4.63933">
        <ele>826.87109375</ele>
        <time>2013-05-26T08:04:59Z</time>
      </trkpt>
      <trkpt lat="45.44715" lon="4.63969">
        <ele>830.23583984375</ele>
        <time>2013-05-26T08:05:17Z</time>
      </trkpt>
      <trkpt lat="45.44728" lon="4.63995">
        <ele>833.60034179688</ele>
        <time>2013-05-26T08:05:31Z</time>
      </trkpt>
      <trkpt lat="45.44746" lon="4.64031">
        <ele>836.484375</ele>
        <time>2013-05-26T08:05:49Z</time>
      </trkpt>
      <trkpt lat="45.44759" lon="4.6407">
        <ele>839.84887695312</ele>
        <time>2013-05-26T08:06:04Z</time>
      </trkpt>
      <trkpt lat="45.44775" lon="4.64107">
        <ele>842.73291015625</ele>
        <time>2013-05-26T08:06:19Z</time>
      </trkpt>
      <trkpt lat="45.44789" lon="4.64146">
        <ele>845.13623046875</ele>
        <time>2013-05-26T08:06:35Z</time>
      </trkpt>
      <trkpt lat="45.44791" lon="4.64148">
        <ele>845.61694335938</ele>
        <time>2013-05-26T08:06:36Z</time>
      </trkpt>
      <trkpt lat="45.44805" lon="4.64183">
        <ele>848.02026367188</ele>
        <time>2013-05-26T08:06:51Z</time>
      </trkpt>
      <trkpt lat="45.44817" lon="4.64225">
        <ele>850.42358398438</ele>
        <time>2013-05-26T08:07:06Z</time>
      </trkpt>
      <trkpt lat="45.44826" lon="4.64276">
        <ele>851.86547851562</ele>
        <time>2013-05-26T08:07:24Z</time>
      </trkpt>
      <trkpt lat="45.44841" lon="4.64329">
        <ele>854.74926757812</ele>
        <time>2013-05-26T08:07:43Z</time>
      </trkpt>
      <trkpt lat="45.44853" lon="4.6438">
        <ele>856.671875</ele>
        <time>2013-05-26T08:07:59Z</time>
      </trkpt>
      <trkpt lat="45.44866" lon="4.64421">
        <ele>860.03662109375</ele>
        <time>2013-05-26T08:08:14Z</time>
      </trkpt>
      <trkpt lat="45.44881" lon="4.64476">
        <ele>862.43994140625</ele>
        <time>2013-05-26T08:08:33Z</time>
      </trkpt>
      <trkpt lat="45.44891" lon="4.64501">
        <ele>865.32397460938</ele>
        <time>2013-05-26T08:08:43Z</time>
      </trkpt>
      <trkpt lat="45.44908" lon="4.64539">
        <ele>868.6884765625</ele>
        <time>2013-05-26T08:08:58Z</time>
      </trkpt>
      <trkpt lat="45.44925" lon="4.64582">
        <ele>870.13037109375</ele>
        <time>2013-05-26T08:09:19Z</time>
      </trkpt>
      <trkpt lat="45.44924" lon="4.6458">
        <ele>869.64990234375</ele>
        <time>2013-05-26T08:09:35Z</time>
      </trkpt>
      <trkpt lat="45.44924" lon="4.6458">
        <ele>869.64990234375</ele>
        <time>2013-05-26T08:10:22Z</time>
      </trkpt>
      <trkpt lat="45.44924" lon="4.6458">
        <ele>869.64990234375</ele>
        <time>2013-05-26T08:12:13Z</time>
      </trkpt>
      <trkpt lat="45.44923" lon="4.64581">
        <ele>869.16918945312</ele>
        <time>2013-05-26T08:12:30Z</time>
      </trkpt>
      <trkpt lat="45.44924" lon="4.64581">
        <ele>868.6884765625</ele>
        <time>2013-05-26T08:13:10Z</time>
      </trkpt>
      <trkpt lat="45.44924" lon="4.6458">
        <ele>867.24658203125</ele>
        <time>2013-05-26T08:16:13Z</time>
      </trkpt>
      <trkpt lat="45.4493" lon="4.64604">
        <ele>865.8046875</ele>
        <time>2013-05-26T08:16:24Z</time>
      </trkpt>
      <trkpt lat="45.44932" lon="4.64608">
        <ele>865.32397460938</ele>
        <time>2013-05-26T08:16:25Z</time>
      </trkpt>
      <trkpt lat="45.44937" lon="4.64632">
        <ele>863.8818359375</ele>
        <time>2013-05-26T08:16:29Z</time>
      </trkpt>
      <trkpt lat="45.44938" lon="4.64656">
        <ele>861.95947265625</ele>
        <time>2013-05-26T08:16:32Z</time>
      </trkpt>
      <trkpt lat="45.4494" lon="4.64705">
        <ele>858.11401367188</ele>
        <time>2013-05-26T08:16:37Z</time>
      </trkpt>
      <trkpt lat="45.4494" lon="4.64712">
        <ele>858.11401367188</ele>
        <time>2013-05-26T08:16:38Z</time>
      </trkpt>
      <trkpt lat="45.4494" lon="4.64737">
        <ele>855.71069335938</ele>
        <time>2013-05-26T08:16:42Z</time>
      </trkpt>
      <trkpt lat="45.44942" lon="4.64746">
        <ele>854.74926757812</ele>
        <time>2013-05-26T08:16:45Z</time>
      </trkpt>
      <trkpt lat="45.44946" lon="4.64764">
        <ele>851.384765625</ele>
        <time>2013-05-26T08:16:51Z</time>
      </trkpt>
      <trkpt lat="45.44948" lon="4.64779">
        <ele>849.94287109375</ele>
        <time>2013-05-26T08:16:55Z</time>
      </trkpt>
      <trkpt lat="45.44949" lon="4.64784">
        <ele>849.94287109375</ele>
        <time>2013-05-26T08:16:56Z</time>
      </trkpt>
      <trkpt lat="45.44957" lon="4.64828">
        <ele>845.61694335938</ele>
        <time>2013-05-26T08:17:03Z</time>
      </trkpt>
      <trkpt lat="45.44952" lon="4.64879">
        <ele>842.73291015625</ele>
        <time>2013-05-26T08:17:13Z</time>
      </trkpt>
      <trkpt lat="45.4495" lon="4.64898">
        <ele>841.29077148438</ele>
        <time>2013-05-26T08:17:16Z</time>
      </trkpt>
      <trkpt lat="45.44949" lon="4.6492">
        <ele>840.81005859375</ele>
        <time>2013-05-26T08:17:19Z</time>
      </trkpt>
      <trkpt lat="45.44946" lon="4.6498">
        <ele>839.3681640625</ele>
        <time>2013-05-26T08:17:30Z</time>
      </trkpt>
      <trkpt lat="45.44945" lon="4.65032">
        <ele>842.25219726562</ele>
        <time>2013-05-26T08:17:45Z</time>
      </trkpt>
      <trkpt lat="45.44945" lon="4.65073">
        <ele>845.13623046875</ele>
        <time>2013-05-26T08:18:01Z</time>
      </trkpt>
      <trkpt lat="45.44946" lon="4.65087">
        <ele>846.09765625</ele>
        <time>2013-05-26T08:18:15Z</time>
      </trkpt>
      <trkpt lat="45.44945" lon="4.65086">
        <ele>846.09765625</ele>
        <time>2013-05-26T08:18:18Z</time>
      </trkpt>
      <trkpt lat="45.44947" lon="4.65078">
        <ele>845.13623046875</ele>
        <time>2013-05-26T08:18:29Z</time>
      </trkpt>
      <trkpt lat="45.44946" lon="4.65087">
        <ele>846.09765625</ele>
        <time>2013-05-26T08:18:33Z</time>
      </trkpt>
      <trkpt lat="45.44946" lon="4.65092">
        <ele>847.05883789062</ele>
        <time>2013-05-26T08:18:37Z</time>
      </trkpt>
      <trkpt lat="45.44942" lon="4.65116">
        <ele>848.9814453125</ele>
        <time>2013-05-26T08:18:53Z</time>
      </trkpt>
      <trkpt lat="45.44945" lon="4.65137">
        <ele>852.34594726562</ele>
        <time>2013-05-26T08:19:02Z</time>
      </trkpt>
      <trkpt lat="45.44933" lon="4.65156">
        <ele>855.22998046875</ele>
        <time>2013-05-26T08:19:14Z</time>
      </trkpt>
      <trkpt lat="45.4493" lon="4.65164">
        <ele>856.19116210938</ele>
        <time>2013-05-26T08:19:26Z</time>
      </trkpt>
      <trkpt lat="45.44932" lon="4.65177">
        <ele>858.11401367188</ele>
        <time>2013-05-26T08:19:38Z</time>
      </trkpt>
      <trkpt lat="45.44935" lon="4.65189">
        <ele>860.03662109375</ele>
        <time>2013-05-26T08:19:54Z</time>
      </trkpt>
      <trkpt lat="45.44935" lon="4.65191">
        <ele>860.51733398438</ele>
        <time>2013-05-26T08:20:00Z</time>
      </trkpt>
      <trkpt lat="45.4493" lon="4.65205">
        <ele>862.92065429688</ele>
        <time>2013-05-26T08:20:11Z</time>
      </trkpt>
      <trkpt lat="45.44924" lon="4.65221">
        <ele>865.32397460938</ele>
        <time>2013-05-26T08:20:25Z</time>
      </trkpt>
      <trkpt lat="45.44916" lon="4.65247">
        <ele>868.6884765625</ele>
        <time>2013-05-26T08:20:37Z</time>
      </trkpt>
      <trkpt lat="45.44912" lon="4.65255">
        <ele>868.6884765625</ele>
        <time>2013-05-26T08:20:42Z</time>
      </trkpt>
      <trkpt lat="45.44908" lon="4.65289">
        <ele>872.05297851562</ele>
        <time>2013-05-26T08:20:59Z</time>
      </trkpt>
      <trkpt lat="45.44904" lon="4.65318">
        <ele>875.41748046875</ele>
        <time>2013-05-26T08:21:13Z</time>
      </trkpt>
      <trkpt lat="45.44904" lon="4.65319">
        <ele>874.45629882812</ele>
        <time>2013-05-26T08:21:15Z</time>
      </trkpt>
      <trkpt lat="45.44905" lon="4.6533">
        <ele>875.89819335938</ele>
        <time>2013-05-26T08:21:22Z</time>
      </trkpt>
      <trkpt lat="45.44904" lon="4.65371">
        <ele>879.26293945312</ele>
        <time>2013-05-26T08:21:42Z</time>
      </trkpt>
      <trkpt lat="45.44898" lon="4.65415">
        <ele>880.22436523438</ele>
        <time>2013-05-26T08:21:59Z</time>
      </trkpt>
      <trkpt lat="45.4492" lon="4.65465">
        <ele>878.3017578125</ele>
        <time>2013-05-26T08:22:13Z</time>
      </trkpt>
      <trkpt lat="45.44933" lon="4.65488">
        <ele>877.34057617188</ele>
        <time>2013-05-26T08:22:18Z</time>
      </trkpt>
      <trkpt lat="45.44952" lon="4.65528">
        <ele>876.37915039062</ele>
        <time>2013-05-26T08:22:24Z</time>
      </trkpt>
      <trkpt lat="45.44947" lon="4.65559">
        <ele>874.45629882812</ele>
        <time>2013-05-26T08:22:31Z</time>
      </trkpt>
      <trkpt lat="45.44946" lon="4.65581">
        <ele>873.9755859375</ele>
        <time>2013-05-26T08:22:35Z</time>
      </trkpt>
      <trkpt lat="45.44941" lon="4.65599">
        <ele>873.4951171875</ele>
        <time>2013-05-26T08:22:38Z</time>
      </trkpt>
      <trkpt lat="45.44939" lon="4.65621">
        <ele>870.13037109375</ele>
        <time>2013-05-26T08:22:46Z</time>
      </trkpt>
      <trkpt lat="45.44939" lon="4.6563">
        <ele>868.6884765625</ele>
        <time>2013-05-26T08:24:44Z</time>
      </trkpt>
      <trkpt lat="45.44937" lon="4.65649">
        <ele>867.72705078125</ele>
        <time>2013-05-26T08:24:47Z</time>
      </trkpt>
      <trkpt lat="45.44935" lon="4.65674">
        <ele>865.8046875</ele>
        <time>2013-05-26T08:24:50Z</time>
      </trkpt>
      <trkpt lat="45.4493" lon="4.65701">
        <ele>863.4013671875</ele>
        <time>2013-05-26T08:24:54Z</time>
      </trkpt>
      <trkpt lat="45.44925" lon="4.65712">
        <ele>862.92065429688</ele>
        <time>2013-05-26T08:24:56Z</time>
      </trkpt>
      <trkpt lat="45.44921" lon="4.65739">
        <ele>857.63330078125</ele>
        <time>2013-05-26T08:25:01Z</time>
      </trkpt>
      <trkpt lat="45.4492" lon="4.65743">
        <ele>857.63330078125</ele>
        <time>2013-05-26T08:25:02Z</time>
      </trkpt>
      <trkpt lat="45.44908" lon="4.65763">
        <ele>855.22998046875</ele>
        <time>2013-05-26T08:25:06Z</time>
      </trkpt>
      <trkpt lat="45.44902" lon="4.65779">
        <ele>854.26879882812</ele>
        <time>2013-05-26T08:25:08Z</time>
      </trkpt>
      <trkpt lat="45.44896" lon="4.65795">
        <ele>853.30737304688</ele>
        <time>2013-05-26T08:25:10Z</time>
      </trkpt>
      <trkpt lat="45.44894" lon="4.65836">
        <ele>851.86547851562</ele>
        <time>2013-05-26T08:25:16Z</time>
      </trkpt>
      <trkpt lat="45.44893" lon="4.65869">
        <ele>850.90405273438</ele>
        <time>2013-05-26T08:25:21Z</time>
      </trkpt>
      <trkpt lat="45.44902" lon="4.659">
        <ele>851.86547851562</ele>
        <time>2013-05-26T08:25:28Z</time>
      </trkpt>
      <trkpt lat="45.44892" lon="4.65945">
        <ele>855.71069335938</ele>
        <time>2013-05-26T08:25:39Z</time>
      </trkpt>
      <trkpt lat="45.44892" lon="4.65956">
        <ele>856.19116210938</ele>
        <time>2013-05-26T08:25:43Z</time>
      </trkpt>
      <trkpt lat="45.44891" lon="4.65963">
        <ele>857.15258789062</ele>
        <time>2013-05-26T08:25:47Z</time>
      </trkpt>
      <trkpt lat="45.44894" lon="4.65979">
        <ele>859.55590820312</ele>
        <time>2013-05-26T08:25:58Z</time>
      </trkpt>
      <trkpt lat="45.44894" lon="4.65982">
        <ele>859.55590820312</ele>
        <time>2013-05-26T08:25:59Z</time>
      </trkpt>
      <trkpt lat="45.44893" lon="4.66003">
        <ele>861.95947265625</ele>
        <time>2013-05-26T08:26:08Z</time>
      </trkpt>
      <trkpt lat="45.449" lon="4.66013">
        <ele>862.92065429688</ele>
        <time>2013-05-26T08:26:13Z</time>
      </trkpt>
      <trkpt lat="45.44902" lon="4.66026">
        <ele>863.8818359375</ele>
        <time>2013-05-26T08:26:19Z</time>
      </trkpt>
      <trkpt lat="45.44911" lon="4.6604">
        <ele>864.84326171875</ele>
        <time>2013-05-26T08:26:26Z</time>
      </trkpt>
      <trkpt lat="45.44924" lon="4.6606">
        <ele>865.32397460938</ele>
        <time>2013-05-26T08:26:34Z</time>
      </trkpt>
      <trkpt lat="45.44928" lon="4.66097">
        <ele>867.24658203125</ele>
        <time>2013-05-26T08:26:45Z</time>
      </trkpt>
      <trkpt lat="45.44936" lon="4.66115">
        <ele>867.24658203125</ele>
        <time>2013-05-26T08:26:53Z</time>
      </trkpt>
      <trkpt lat="45.44938" lon="4.66139">
        <ele>867.24658203125</ele>
        <time>2013-05-26T08:26:59Z</time>
      </trkpt>
      <trkpt lat="45.44938" lon="4.66156">
        <ele>869.16918945312</ele>
        <time>2013-05-26T08:27:05Z</time>
      </trkpt>
      <trkpt lat="45.44941" lon="4.66168">
        <ele>870.13037109375</ele>
        <time>2013-05-26T08:27:09Z</time>
      </trkpt>
      <trkpt lat="45.44934" lon="4.66209">
        <ele>873.01440429688</ele>
        <time>2013-05-26T08:27:19Z</time>
      </trkpt>
      <trkpt lat="45.44935" lon="4.66213">
        <ele>873.01440429688</ele>
        <time>2013-05-26T08:27:20Z</time>
      </trkpt>
      <trkpt lat="45.44934" lon="4.66226">
        <ele>873.9755859375</ele>
        <time>2013-05-26T08:27:25Z</time>
      </trkpt>
      <trkpt lat="45.44927" lon="4.66264">
        <ele>875.41748046875</ele>
        <time>2013-05-26T08:27:35Z</time>
      </trkpt>
      <trkpt lat="45.44925" lon="4.66287">
        <ele>874.93701171875</ele>
        <time>2013-05-26T08:27:41Z</time>
      </trkpt>
      <trkpt lat="45.44927" lon="4.66302">
        <ele>875.41748046875</ele>
        <time>2013-05-26T08:27:47Z</time>
      </trkpt>
      <trkpt lat="45.44932" lon="4.66322">
        <ele>874.93701171875</ele>
        <time>2013-05-26T08:27:53Z</time>
      </trkpt>
      <trkpt lat="45.44935" lon="4.66326">
        <ele>875.41748046875</ele>
        <time>2013-05-26T08:27:55Z</time>
      </trkpt>
      <trkpt lat="45.44946" lon="4.66343">
        <ele>875.41748046875</ele>
        <time>2013-05-26T08:28:08Z</time>
      </trkpt>
      <trkpt lat="45.44946" lon="4.66346">
        <ele>875.41748046875</ele>
        <time>2013-05-26T08:28:54Z</time>
      </trkpt>
      <trkpt lat="45.44947" lon="4.66349">
        <ele>875.41748046875</ele>
        <time>2013-05-26T08:30:01Z</time>
      </trkpt>
      <trkpt lat="45.4495" lon="4.66346">
        <ele>876.85986328125</ele>
        <time>2013-05-26T08:30:34Z</time>
      </trkpt>
      <trkpt lat="45.44959" lon="4.66353">
        <ele>876.37915039062</ele>
        <time>2013-05-26T08:30:55Z</time>
      </trkpt>
      <trkpt lat="45.44995" lon="4.66362">
        <ele>873.9755859375</ele>
        <time>2013-05-26T08:31:07Z</time>
      </trkpt>
      <trkpt lat="45.4502" lon="4.66369">
        <ele>873.01440429688</ele>
        <time>2013-05-26T08:31:16Z</time>
      </trkpt>
      <trkpt lat="45.45033" lon="4.66388">
        <ele>874.45629882812</ele>
        <time>2013-05-26T08:31:24Z</time>
      </trkpt>
      <trkpt lat="45.45062" lon="4.66408">
        <ele>876.85986328125</ele>
        <time>2013-05-26T08:31:37Z</time>
      </trkpt>
      <trkpt lat="45.45078" lon="4.66428">
        <ele>878.78247070312</ele>
        <time>2013-05-26T08:31:48Z</time>
      </trkpt>
      <trkpt lat="45.45079" lon="4.66429">
        <ele>878.78247070312</ele>
        <time>2013-05-26T08:31:49Z</time>
      </trkpt>
      <trkpt lat="45.45091" lon="4.6645">
        <ele>882.14697265625</ele>
        <time>2013-05-26T08:32:02Z</time>
      </trkpt>
      <trkpt lat="45.45097" lon="4.66458">
        <ele>882.14697265625</ele>
        <time>2013-05-26T08:32:06Z</time>
      </trkpt>
      <trkpt lat="45.45104" lon="4.66481">
        <ele>883.10815429688</ele>
        <time>2013-05-26T08:32:18Z</time>
      </trkpt>
      <trkpt lat="45.45109" lon="4.66481">
        <ele>884.06958007812</ele>
        <time>2013-05-26T08:32:22Z</time>
      </trkpt>
      <trkpt lat="45.45115" lon="4.66486">
        <ele>885.03100585938</ele>
        <time>2013-05-26T08:32:28Z</time>
      </trkpt>
      <trkpt lat="45.45125" lon="4.66488">
        <ele>885.51147460938</ele>
        <time>2013-05-26T08:32:36Z</time>
      </trkpt>
      <trkpt lat="45.45129" lon="4.66491">
        <ele>886.47290039062</ele>
        <time>2013-05-26T08:32:39Z</time>
      </trkpt>
      <trkpt lat="45.45133" lon="4.66491">
        <ele>885.9921875</ele>
        <time>2013-05-26T08:32:43Z</time>
      </trkpt>
      <trkpt lat="45.45146" lon="4.66489">
        <ele>887.43408203125</ele>
        <time>2013-05-26T08:32:51Z</time>
      </trkpt>
      <trkpt lat="45.45151" lon="4.66488">
        <ele>888.3955078125</ele>
        <time>2013-05-26T08:32:54Z</time>
      </trkpt>
      <trkpt lat="45.45163" lon="4.66491">
        <ele>888.3955078125</ele>
        <time>2013-05-26T08:33:01Z</time>
      </trkpt>
      <trkpt lat="45.45176" lon="4.66517">
        <ele>888.87622070312</ele>
        <time>2013-05-26T08:33:14Z</time>
      </trkpt>
      <trkpt lat="45.45183" lon="4.66551">
        <ele>889.83740234375</ele>
        <time>2013-05-26T08:33:28Z</time>
      </trkpt>
      <trkpt lat="45.45195" lon="4.66552">
        <ele>889.83740234375</ele>
        <time>2013-05-26T08:33:34Z</time>
      </trkpt>
      <trkpt lat="45.45203" lon="4.66558">
        <ele>890.31811523438</ele>
        <time>2013-05-26T08:33:39Z</time>
      </trkpt>
      <trkpt lat="45.45211" lon="4.66563">
        <ele>891.279296875</ele>
        <time>2013-05-26T08:33:44Z</time>
      </trkpt>
      <trkpt lat="45.45215" lon="4.66564">
        <ele>891.76000976562</ele>
        <time>2013-05-26T08:33:47Z</time>
      </trkpt>
      <trkpt lat="45.45224" lon="4.66569">
        <ele>892.7216796875</ele>
        <time>2013-05-26T08:33:59Z</time>
      </trkpt>
      <trkpt lat="45.45229" lon="4.66574">
        <ele>892.7216796875</ele>
        <time>2013-05-26T08:34:14Z</time>
      </trkpt>
      <trkpt lat="45.45233" lon="4.66574">
        <ele>893.68286132812</ele>
        <time>2013-05-26T08:34:18Z</time>
      </trkpt>
      <trkpt lat="45.45242" lon="4.66578">
        <ele>894.64404296875</ele>
        <time>2013-05-26T08:34:29Z</time>
      </trkpt>
      <trkpt lat="45.45251" lon="4.66583">
        <ele>894.64404296875</ele>
        <time>2013-05-26T08:34:37Z</time>
      </trkpt>
      <trkpt lat="45.45269" lon="4.66597">
        <ele>895.12475585938</ele>
        <time>2013-05-26T08:34:49Z</time>
      </trkpt>
      <trkpt lat="45.45273" lon="4.66601">
        <ele>895.12475585938</ele>
        <time>2013-05-26T08:35:02Z</time>
      </trkpt>
      <trkpt lat="45.45274" lon="4.66601">
        <ele>895.60546875</ele>
        <time>2013-05-26T08:35:19Z</time>
      </trkpt>
      <trkpt lat="45.45284" lon="4.66606">
        <ele>893.2021484375</ele>
        <time>2013-05-26T08:35:27Z</time>
      </trkpt>
      <trkpt lat="45.45288" lon="4.66609">
        <ele>892.7216796875</ele>
        <time>2013-05-26T08:35:29Z</time>
      </trkpt>
      <trkpt lat="45.45294" lon="4.6663">
        <ele>890.79858398438</ele>
        <time>2013-05-26T08:35:38Z</time>
      </trkpt>
      <trkpt lat="45.45312" lon="4.66662">
        <ele>887.91479492188</ele>
        <time>2013-05-26T08:35:46Z</time>
      </trkpt>
      <trkpt lat="45.45322" lon="4.66682">
        <ele>886.95336914062</ele>
        <time>2013-05-26T08:35:50Z</time>
      </trkpt>
      <trkpt lat="45.4534" lon="4.66715">
        <ele>886.47290039062</ele>
        <time>2013-05-26T08:35:59Z</time>
      </trkpt>
      <trkpt lat="45.45366" lon="4.66757">
        <ele>886.47290039062</ele>
        <time>2013-05-26T08:36:10Z</time>
      </trkpt>
      <trkpt lat="45.45393" lon="4.66811">
        <ele>886.95336914062</ele>
        <time>2013-05-26T08:36:23Z</time>
      </trkpt>
      <trkpt lat="45.45425" lon="4.66879">
        <ele>887.43408203125</ele>
        <time>2013-05-26T08:36:39Z</time>
      </trkpt>
      <trkpt lat="45.45439" lon="4.6691">
        <ele>887.43408203125</ele>
        <time>2013-05-26T08:36:49Z</time>
      </trkpt>
      <trkpt lat="45.45443" lon="4.66921">
        <ele>887.43408203125</ele>
        <time>2013-05-26T08:37:02Z</time>
      </trkpt>
      <trkpt lat="45.45454" lon="4.66951">
        <ele>884.55029296875</ele>
        <time>2013-05-26T08:37:10Z</time>
      </trkpt>
      <trkpt lat="45.45459" lon="4.66952">
        <ele>884.06958007812</ele>
        <time>2013-05-26T08:37:19Z</time>
      </trkpt>
      <trkpt lat="45.45459" lon="4.66952">
        <ele>883.5888671875</ele>
        <time>2013-05-26T08:38:23Z</time>
      </trkpt>
      <trkpt lat="45.45459" lon="4.66952">
        <ele>884.06958007812</ele>
        <time>2013-05-26T08:39:05Z</time>
      </trkpt>
      <trkpt lat="45.45473" lon="4.66948">
        <ele>882.62768554688</ele>
        <time>2013-05-26T08:39:13Z</time>
      </trkpt>
      <trkpt lat="45.45502" lon="4.66951">
        <ele>880.22436523438</ele>
        <time>2013-05-26T08:39:17Z</time>
      </trkpt>
      <trkpt lat="45.45534" lon="4.66975">
        <ele>876.85986328125</ele>
        <time>2013-05-26T08:39:22Z</time>
      </trkpt>
      <trkpt lat="45.45539" lon="4.66981">
        <ele>875.41748046875</ele>
        <time>2013-05-26T08:39:23Z</time>
      </trkpt>
      <trkpt lat="45.4556" lon="4.67003">
        <ele>871.572265625</ele>
        <time>2013-05-26T08:39:27Z</time>
      </trkpt>
      <trkpt lat="45.45577" lon="4.6702">
        <ele>869.16918945312</ele>
        <time>2013-05-26T08:39:30Z</time>
      </trkpt>
      <trkpt lat="45.45593" lon="4.6704">
        <ele>866.76586914062</ele>
        <time>2013-05-26T08:39:33Z</time>
      </trkpt>
      <trkpt lat="45.45616" lon="4.67063">
        <ele>861.95947265625</ele>
        <time>2013-05-26T08:39:37Z</time>
      </trkpt>
      <trkpt lat="45.45645" lon="4.6708">
        <ele>858.59448242188</ele>
        <time>2013-05-26T08:39:41Z</time>
      </trkpt>
      <trkpt lat="45.45652" lon="4.67082">
        <ele>858.11401367188</ele>
        <time>2013-05-26T08:39:42Z</time>
      </trkpt>
      <trkpt lat="45.45681" lon="4.67079">
        <ele>853.7880859375</ele>
        <time>2013-05-26T08:39:46Z</time>
      </trkpt>
      <trkpt lat="45.45687" lon="4.67074">
        <ele>852.82666015625</ele>
        <time>2013-05-26T08:39:47Z</time>
      </trkpt>
      <trkpt lat="45.45696" lon="4.67063">
        <ele>851.86547851562</ele>
        <time>2013-05-26T08:39:49Z</time>
      </trkpt>
      <trkpt lat="45.45707" lon="4.6704">
        <ele>849.94287109375</ele>
        <time>2013-05-26T08:39:53Z</time>
      </trkpt>
      <trkpt lat="45.45709" lon="4.67012">
        <ele>845.61694335938</ele>
        <time>2013-05-26T08:39:59Z</time>
      </trkpt>
      <trkpt lat="45.45709" lon="4.6701">
        <ele>845.13623046875</ele>
        <time>2013-05-26T08:40:09Z</time>
      </trkpt>
      <trkpt lat="45.45711" lon="4.67009">
        <ele>844.65551757812</ele>
        <time>2013-05-26T08:40:23Z</time>
      </trkpt>
      <trkpt lat="45.45711" lon="4.6701">
        <ele>844.65551757812</ele>
        <time>2013-05-26T08:41:24Z</time>
      </trkpt>
      <trkpt lat="45.45711" lon="4.6701">
        <ele>844.65551757812</ele>
        <time>2013-05-26T08:41:56Z</time>
      </trkpt>
      <trkpt lat="45.45721" lon="4.67024">
        <ele>845.13623046875</ele>
        <time>2013-05-26T08:42:03Z</time>
      </trkpt>
      <trkpt lat="45.45735" lon="4.67083">
        <ele>844.65551757812</ele>
        <time>2013-05-26T08:42:18Z</time>
      </trkpt>
      <trkpt lat="45.4575" lon="4.6714">
        <ele>843.21337890625</ele>
        <time>2013-05-26T08:42:29Z</time>
      </trkpt>
      <trkpt lat="45.45764" lon="4.6719">
        <ele>841.29077148438</ele>
        <time>2013-05-26T08:42:36Z</time>
      </trkpt>
      <trkpt lat="45.45771" lon="4.67224">
        <ele>840.81005859375</ele>
        <time>2013-05-26T08:42:47Z</time>
      </trkpt>
      <trkpt lat="45.45778" lon="4.6726">
        <ele>840.32958984375</ele>
        <time>2013-05-26T08:42:54Z</time>
      </trkpt>
      <trkpt lat="45.45788" lon="4.67307">
        <ele>840.32958984375</ele>
        <time>2013-05-26T08:43:01Z</time>
      </trkpt>
      <trkpt lat="45.45805" lon="4.674">
        <ele>836.96484375</ele>
        <time>2013-05-26T08:43:12Z</time>
      </trkpt>
      <trkpt lat="45.45812" lon="4.67426">
        <ele>836.00366210938</ele>
        <time>2013-05-26T08:43:15Z</time>
      </trkpt>
      <trkpt lat="45.4582" lon="4.67449">
        <ele>834.56176757812</ele>
        <time>2013-05-26T08:43:18Z</time>
      </trkpt>
      <trkpt lat="45.45824" lon="4.67473">
        <ele>833.11962890625</ele>
        <time>2013-05-26T08:43:21Z</time>
      </trkpt>
      <trkpt lat="45.45823" lon="4.67482">
        <ele>832.63916015625</ele>
        <time>2013-05-26T08:43:22Z</time>
      </trkpt>
      <trkpt lat="45.45809" lon="4.67565">
        <ele>831.197265625</ele>
        <time>2013-05-26T08:43:33Z</time>
      </trkpt>
      <trkpt lat="45.45809" lon="4.67571">
        <ele>830.71655273438</ele>
        <time>2013-05-26T08:43:34Z</time>
      </trkpt>
      <trkpt lat="45.45802" lon="4.67629">
        <ele>832.63916015625</ele>
        <time>2013-05-26T08:43:46Z</time>
      </trkpt>
      <trkpt lat="45.458" lon="4.67656">
        <ele>835.04248046875</ele>
        <time>2013-05-26T08:43:53Z</time>
      </trkpt>
      <trkpt lat="45.45795" lon="4.67664">
        <ele>835.52294921875</ele>
        <time>2013-05-26T08:43:58Z</time>
      </trkpt>
      <trkpt lat="45.45792" lon="4.67678">
        <ele>834.0810546875</ele>
        <time>2013-05-26T08:44:04Z</time>
      </trkpt>
      <trkpt lat="45.4579" lon="4.67685">
        <ele>833.11962890625</ele>
        <time>2013-05-26T08:44:06Z</time>
      </trkpt>
      <trkpt lat="45.45785" lon="4.67694">
        <ele>831.677734375</ele>
        <time>2013-05-26T08:44:09Z</time>
      </trkpt>
      <trkpt lat="45.45776" lon="4.67706">
        <ele>831.197265625</ele>
        <time>2013-05-26T08:44:12Z</time>
      </trkpt>
      <trkpt lat="45.45753" lon="4.67699">
        <ele>828.31323242188</ele>
        <time>2013-05-26T08:44:18Z</time>
      </trkpt>
      <trkpt lat="45.45741" lon="4.67693">
        <ele>827.35180664062</ele>
        <time>2013-05-26T08:44:21Z</time>
      </trkpt>
      <trkpt lat="45.45736" lon="4.67693">
        <ele>826.39038085938</ele>
        <time>2013-05-26T08:44:22Z</time>
      </trkpt>
      <trkpt lat="45.45702" lon="4.67687">
        <ele>822.064453125</ele>
        <time>2013-05-26T08:44:28Z</time>
      </trkpt>
      <trkpt lat="45.45675" lon="4.67682">
        <ele>818.69995117188</ele>
        <time>2013-05-26T08:44:32Z</time>
      </trkpt>
      <trkpt lat="45.45655" lon="4.67679">
        <ele>816.29663085938</ele>
        <time>2013-05-26T08:44:35Z</time>
      </trkpt>
      <trkpt lat="45.45642" lon="4.67672">
        <ele>815.33544921875</ele>
        <time>2013-05-26T08:44:37Z</time>
      </trkpt>
      <trkpt lat="45.45625" lon="4.67659">
        <ele>811.970703125</ele>
        <time>2013-05-26T08:44:41Z</time>
      </trkpt>
      <trkpt lat="45.45622" lon="4.67657">
        <ele>811.48999023438</ele>
        <time>2013-05-26T08:44:42Z</time>
      </trkpt>
      <trkpt lat="45.45615" lon="4.67653">
        <ele>810.52856445312</ele>
        <time>2013-05-26T08:44:44Z</time>
      </trkpt>
      <trkpt lat="45.45611" lon="4.6765">
        <ele>810.0478515625</ele>
        <time>2013-05-26T08:44:45Z</time>
      </trkpt>
      <trkpt lat="45.4559" lon="4.67641">
        <ele>806.68334960938</ele>
        <time>2013-05-26T08:44:50Z</time>
      </trkpt>
      <trkpt lat="45.45578" lon="4.67637">
        <ele>805.24145507812</ele>
        <time>2013-05-26T08:44:53Z</time>
      </trkpt>
      <trkpt lat="45.45557" lon="4.67631">
        <ele>802.357421875</ele>
        <time>2013-05-26T08:44:58Z</time>
      </trkpt>
      <trkpt lat="45.45533" lon="4.6761">
        <ele>798.99291992188</ele>
        <time>2013-05-26T08:45:07Z</time>
      </trkpt>
      <trkpt lat="45.4553" lon="4.67608">
        <ele>799.4736328125</ele>
        <time>2013-05-26T08:45:08Z</time>
      </trkpt>
      <trkpt lat="45.45521" lon="4.67606">
        <ele>797.55102539062</ele>
        <time>2013-05-26T08:45:21Z</time>
      </trkpt>
      <trkpt lat="45.45522" lon="4.67607">
        <ele>796.58984375</ele>
        <time>2013-05-26T08:45:24Z</time>
      </trkpt>
      <trkpt lat="45.45525" lon="4.67607">
        <ele>796.58984375</ele>
        <time>2013-05-26T08:45:29Z</time>
      </trkpt>
      <trkpt lat="45.45529" lon="4.6761">
        <ele>796.10913085938</ele>
        <time>2013-05-26T08:45:32Z</time>
      </trkpt>
      <trkpt lat="45.45531" lon="4.67619">
        <ele>795.62817382812</ele>
        <time>2013-05-26T08:45:39Z</time>
      </trkpt>
      <trkpt lat="45.4553" lon="4.67624">
        <ele>795.1474609375</ele>
        <time>2013-05-26T08:45:42Z</time>
      </trkpt>
      <trkpt lat="45.45532" lon="4.67632">
        <ele>794.66674804688</ele>
        <time>2013-05-26T08:45:55Z</time>
      </trkpt>
      <trkpt lat="45.45551" lon="4.67668">
        <ele>791.30224609375</ele>
        <time>2013-05-26T08:46:07Z</time>
      </trkpt>
      <trkpt lat="45.45556" lon="4.67677">
        <ele>790.34106445312</ele>
        <time>2013-05-26T08:46:09Z</time>
      </trkpt>
      <trkpt lat="45.45562" lon="4.67687">
        <ele>789.37963867188</ele>
        <time>2013-05-26T08:46:11Z</time>
      </trkpt>
      <trkpt lat="45.4557" lon="4.67698">
        <ele>787.93774414062</ele>
        <time>2013-05-26T08:46:14Z</time>
      </trkpt>
      <trkpt lat="45.4559" lon="4.67724">
        <ele>784.5732421875</ele>
        <time>2013-05-26T08:46:20Z</time>
      </trkpt>
      <trkpt lat="45.45575" lon="4.67731">
        <ele>780.72802734375</ele>
        <time>2013-05-26T08:46:25Z</time>
      </trkpt>
      <trkpt lat="45.45572" lon="4.67729">
        <ele>780.72802734375</ele>
        <time>2013-05-26T08:46:26Z</time>
      </trkpt>
      <trkpt lat="45.45564" lon="4.67728">
        <ele>779.76635742188</ele>
        <time>2013-05-26T08:46:28Z</time>
      </trkpt>
      <trkpt lat="45.45552" lon="4.67734">
        <ele>776.40185546875</ele>
        <time>2013-05-26T08:46:32Z</time>
      </trkpt>
      <trkpt lat="45.45547" lon="4.67735">
        <ele>775.92114257812</ele>
        <time>2013-05-26T08:46:34Z</time>
      </trkpt>
      <trkpt lat="45.45553" lon="4.67744">
        <ele>774.9599609375</ele>
        <time>2013-05-26T08:46:39Z</time>
      </trkpt>
      <trkpt lat="45.45563" lon="4.67747">
        <ele>774.47924804688</ele>
        <time>2013-05-26T08:46:51Z</time>
      </trkpt>
      <trkpt lat="45.45581" lon="4.67761">
        <ele>776.40185546875</ele>
        <time>2013-05-26T08:48:58Z</time>
      </trkpt>
      <trkpt lat="45.4561" lon="4.67781">
        <ele>776.40185546875</ele>
        <time>2013-05-26T08:49:09Z</time>
      </trkpt>
      <trkpt lat="45.45637" lon="4.67811">
        <ele>776.88256835938</ele>
        <time>2013-05-26T08:49:20Z</time>
      </trkpt>
      <trkpt lat="45.45668" lon="4.67837">
        <ele>777.36328125</ele>
        <time>2013-05-26T08:49:31Z</time>
      </trkpt>
      <trkpt lat="45.45697" lon="4.6789">
        <ele>777.36328125</ele>
        <time>2013-05-26T08:49:47Z</time>
      </trkpt>
      <trkpt lat="45.45725" lon="4.67914">
        <ele>776.40185546875</ele>
        <time>2013-05-26T08:50:03Z</time>
      </trkpt>
      <trkpt lat="45.4573" lon="4.67917">
        <ele>777.36328125</ele>
        <time>2013-05-26T08:50:28Z</time>
      </trkpt>
      <trkpt lat="45.45773" lon="4.67934">
        <ele>777.36328125</ele>
        <time>2013-05-26T08:50:38Z</time>
      </trkpt>
      <trkpt lat="45.45815" lon="4.67921">
        <ele>776.88256835938</ele>
        <time>2013-05-26T08:50:51Z</time>
      </trkpt>
      <trkpt lat="45.4587" lon="4.67907">
        <ele>777.36328125</ele>
        <time>2013-05-26T08:51:09Z</time>
      </trkpt>
      <trkpt lat="45.45931" lon="4.67889">
        <ele>776.88256835938</ele>
        <time>2013-05-26T08:51:26Z</time>
      </trkpt>
      <trkpt lat="45.45992" lon="4.67845">
        <ele>778.32446289062</ele>
        <time>2013-05-26T08:51:44Z</time>
      </trkpt>
      <trkpt lat="45.46008" lon="4.67778">
        <ele>776.88256835938</ele>
        <time>2013-05-26T08:51:57Z</time>
      </trkpt>
      <trkpt lat="45.46014" lon="4.6772">
        <ele>779.76635742188</ele>
        <time>2013-05-26T08:52:10Z</time>
      </trkpt>
      <trkpt lat="45.46009" lon="4.67671">
        <ele>781.68920898438</ele>
        <time>2013-05-26T08:52:26Z</time>
      </trkpt>
      <trkpt lat="45.46009" lon="4.67673">
        <ele>781.20874023438</ele>
        <time>2013-05-26T08:53:42Z</time>
      </trkpt>
      <trkpt lat="45.46009" lon="4.67673">
        <ele>781.68920898438</ele>
        <time>2013-05-26T08:53:59Z</time>
      </trkpt>
      <trkpt lat="45.46015" lon="4.67664">
        <ele>779.28564453125</ele>
        <time>2013-05-26T08:54:06Z</time>
      </trkpt>
      <trkpt lat="45.46023" lon="4.67659">
        <ele>775.92114257812</ele>
        <time>2013-05-26T08:54:09Z</time>
      </trkpt>
      <trkpt lat="45.46037" lon="4.67659">
        <ele>771.59521484375</ele>
        <time>2013-05-26T08:54:13Z</time>
      </trkpt>
      <trkpt lat="45.46049" lon="4.67657">
        <ele>768.23071289062</ele>
        <time>2013-05-26T08:54:17Z</time>
      </trkpt>
      <trkpt lat="45.46055" lon="4.67654">
        <ele>767.26953125</ele>
        <time>2013-05-26T08:54:37Z</time>
      </trkpt>
      <trkpt lat="45.46055" lon="4.67665">
        <ele>766.30810546875</ele>
        <time>2013-05-26T08:55:21Z</time>
      </trkpt>
      <trkpt lat="45.46052" lon="4.67655">
        <ele>769.6728515625</ele>
        <time>2013-05-26T08:58:57Z</time>
      </trkpt>
      <trkpt lat="45.46038" lon="4.67654">
        <ele>773.03735351562</ele>
        <time>2013-05-26T08:59:14Z</time>
      </trkpt>
      <trkpt lat="45.46027" lon="4.67653">
        <ele>775.92114257812</ele>
        <time>2013-05-26T08:59:27Z</time>
      </trkpt>
      <trkpt lat="45.46015" lon="4.67659">
        <ele>779.28564453125</ele>
        <time>2013-05-26T08:59:41Z</time>
      </trkpt>
      <trkpt lat="45.46007" lon="4.6767">
        <ele>781.20874023438</ele>
        <time>2013-05-26T08:59:50Z</time>
      </trkpt>
      <trkpt lat="45.46006" lon="4.67678">
        <ele>781.20874023438</ele>
        <time>2013-05-26T09:00:05Z</time>
      </trkpt>
      <trkpt lat="45.46005" lon="4.67679">
        <ele>781.20874023438</ele>
        <time>2013-05-26T09:00:40Z</time>
      </trkpt>
      <trkpt lat="45.46013" lon="4.67731">
        <ele>778.80517578125</ele>
        <time>2013-05-26T09:00:53Z</time>
      </trkpt>
      <trkpt lat="45.46014" lon="4.67744">
        <ele>777.84375</ele>
        <time>2013-05-26T09:00:55Z</time>
      </trkpt>
      <trkpt lat="45.46005" lon="4.67806">
        <ele>777.36328125</ele>
        <time>2013-05-26T09:01:05Z</time>
      </trkpt>
      <trkpt lat="45.45967" lon="4.67863">
        <ele>776.88256835938</ele>
        <time>2013-05-26T09:01:19Z</time>
      </trkpt>
      <trkpt lat="45.45899" lon="4.67892">
        <ele>778.32446289062</ele>
        <time>2013-05-26T09:01:38Z</time>
      </trkpt>
      <trkpt lat="45.4584" lon="4.67904">
        <ele>777.36328125</ele>
        <time>2013-05-26T09:01:54Z</time>
      </trkpt>
      <trkpt lat="45.45788" lon="4.67925">
        <ele>776.40185546875</ele>
        <time>2013-05-26T09:02:09Z</time>
      </trkpt>
      <trkpt lat="45.45756" lon="4.67925">
        <ele>777.36328125</ele>
        <time>2013-05-26T09:02:20Z</time>
      </trkpt>
      <trkpt lat="45.4572" lon="4.67903">
        <ele>777.84375</ele>
        <time>2013-05-26T09:02:31Z</time>
      </trkpt>
      <trkpt lat="45.45681" lon="4.67857">
        <ele>777.84375</ele>
        <time>2013-05-26T09:02:45Z</time>
      </trkpt>
      <trkpt lat="45.45672" lon="4.67839">
        <ele>777.36328125</ele>
        <time>2013-05-26T09:02:49Z</time>
      </trkpt>
      <trkpt lat="45.45638" lon="4.67801">
        <ele>776.88256835938</ele>
        <time>2013-05-26T09:03:02Z</time>
      </trkpt>
      <trkpt lat="45.45604" lon="4.6777">
        <ele>776.40185546875</ele>
        <time>2013-05-26T09:03:15Z</time>
      </trkpt>
      <trkpt lat="45.45575" lon="4.6775">
        <ele>776.88256835938</ele>
        <time>2013-05-26T09:03:24Z</time>
      </trkpt>
      <trkpt lat="45.45532" lon="4.6772">
        <ele>775.92114257812</ele>
        <time>2013-05-26T09:03:39Z</time>
      </trkpt>
      <trkpt lat="45.45533" lon="4.6772">
        <ele>775.92114257812</ele>
        <time>2013-05-26T09:03:48Z</time>
      </trkpt>
      <trkpt lat="45.45528" lon="4.67723">
        <ele>775.4404296875</ele>
        <time>2013-05-26T09:03:52Z</time>
      </trkpt>
      <trkpt lat="45.45508" lon="4.67723">
        <ele>772.556640625</ele>
        <time>2013-05-26T09:03:59Z</time>
      </trkpt>
      <trkpt lat="45.45505" lon="4.67722">
        <ele>772.07592773438</ele>
        <time>2013-05-26T09:04:00Z</time>
      </trkpt>
      <trkpt lat="45.455" lon="4.67727">
        <ele>769.6728515625</ele>
        <time>2013-05-26T09:04:08Z</time>
      </trkpt>
      <trkpt lat="45.45531" lon="4.67764">
        <ele>767.26953125</ele>
        <time>2013-05-26T09:04:19Z</time>
      </trkpt>
      <trkpt lat="45.4555" lon="4.67784">
        <ele>763.42407226562</ele>
        <time>2013-05-26T09:04:26Z</time>
      </trkpt>
      <trkpt lat="45.45558" lon="4.67794">
        <ele>761.98217773438</ele>
        <time>2013-05-26T09:04:28Z</time>
      </trkpt>
      <trkpt lat="45.45578" lon="4.67816">
        <ele>757.65625</ele>
        <time>2013-05-26T09:04:34Z</time>
      </trkpt>
      <trkpt lat="45.45578" lon="4.67832">
        <ele>755.2529296875</ele>
        <time>2013-05-26T09:04:40Z</time>
      </trkpt>
      <trkpt lat="45.4557" lon="4.6783">
        <ele>755.2529296875</ele>
        <time>2013-05-26T09:04:43Z</time>
      </trkpt>
      <trkpt lat="45.45552" lon="4.67831">
        <ele>752.849609375</ele>
        <time>2013-05-26T09:04:48Z</time>
      </trkpt>
      <trkpt lat="45.45538" lon="4.67823">
        <ele>751.40771484375</ele>
        <time>2013-05-26T09:04:53Z</time>
      </trkpt>
      <trkpt lat="45.45512" lon="4.67818">
        <ele>749.48510742188</ele>
        <time>2013-05-26T09:05:01Z</time>
      </trkpt>
      <trkpt lat="45.45499" lon="4.67821">
        <ele>747.56225585938</ele>
        <time>2013-05-26T09:05:06Z</time>
      </trkpt>
      <trkpt lat="45.45491" lon="4.67832">
        <ele>745.15893554688</ele>
        <time>2013-05-26T09:05:10Z</time>
      </trkpt>
      <trkpt lat="45.45469" lon="4.67838">
        <ele>741.79443359375</ele>
        <time>2013-05-26T09:05:17Z</time>
      </trkpt>
      <trkpt lat="45.4546" lon="4.67843">
        <ele>740.3525390625</ele>
        <time>2013-05-26T09:05:20Z</time>
      </trkpt>
      <trkpt lat="45.45452" lon="4.67843">
        <ele>738.42993164062</ele>
        <time>2013-05-26T09:05:23Z</time>
      </trkpt>
      <trkpt lat="45.4544" lon="4.67832">
        <ele>736.02661132812</ele>
        <time>2013-05-26T09:05:27Z</time>
      </trkpt>
      <trkpt lat="45.45435" lon="4.67846">
        <ele>733.142578125</ele>
        <time>2013-05-26T09:05:33Z</time>
      </trkpt>
      <trkpt lat="45.45438" lon="4.67851">
        <ele>733.142578125</ele>
        <time>2013-05-26T09:05:34Z</time>
      </trkpt>
      <trkpt lat="45.4544" lon="4.67853">
        <ele>731.70043945312</ele>
        <time>2013-05-26T09:05:35Z</time>
      </trkpt>
      <trkpt lat="45.45443" lon="4.67855">
        <ele>731.21997070312</ele>
        <time>2013-05-26T09:05:37Z</time>
      </trkpt>
      <trkpt lat="45.45447" lon="4.67863">
        <ele>729.77783203125</ele>
        <time>2013-05-26T09:05:40Z</time>
      </trkpt>
      <trkpt lat="45.45448" lon="4.67865">
        <ele>728.81665039062</ele>
        <time>2013-05-26T09:05:41Z</time>
      </trkpt>
      <trkpt lat="45.45454" lon="4.67883">
        <ele>725.45190429688</ele>
        <time>2013-05-26T09:05:49Z</time>
      </trkpt>
      <trkpt lat="45.45456" lon="4.67885">
        <ele>724.49072265625</ele>
        <time>2013-05-26T09:05:51Z</time>
      </trkpt>
      <trkpt lat="45.45467" lon="4.67901">
        <ele>721.12622070312</ele>
        <time>2013-05-26T09:05:57Z</time>
      </trkpt>
      <trkpt lat="45.45469" lon="4.67904">
        <ele>721.60668945312</ele>
        <time>2013-05-26T09:05:58Z</time>
      </trkpt>
      <trkpt lat="45.45478" lon="4.67915">
        <ele>719.68432617188</ele>
        <time>2013-05-26T09:06:01Z</time>
      </trkpt>
      <trkpt lat="45.45494" lon="4.67923">
        <ele>717.76147460938</ele>
        <time>2013-05-26T09:06:04Z</time>
      </trkpt>
      <trkpt lat="45.4553" lon="4.67942">
        <ele>715.35815429688</ele>
        <time>2013-05-26T09:06:15Z</time>
      </trkpt>
      <trkpt lat="45.45556" lon="4.67968">
        <ele>711.99365234375</ele>
        <time>2013-05-26T09:06:22Z</time>
      </trkpt>
      <trkpt lat="45.4556" lon="4.67973">
        <ele>711.99365234375</ele>
        <time>2013-05-26T09:06:23Z</time>
      </trkpt>
      <trkpt lat="45.45574" lon="4.67989">
        <ele>710.55151367188</ele>
        <time>2013-05-26T09:06:26Z</time>
      </trkpt>
      <trkpt lat="45.45578" lon="4.67995">
        <ele>709.59033203125</ele>
        <time>2013-05-26T09:06:27Z</time>
      </trkpt>
      <trkpt lat="45.45594" lon="4.6802">
        <ele>707.66772460938</ele>
        <time>2013-05-26T09:06:31Z</time>
      </trkpt>
      <trkpt lat="45.45603" lon="4.68042">
        <ele>705.7451171875</ele>
        <time>2013-05-26T09:06:35Z</time>
      </trkpt>
      <trkpt lat="45.45623" lon="4.68063">
        <ele>703.341796875</ele>
        <time>2013-05-26T09:06:41Z</time>
      </trkpt>
      <trkpt lat="45.45638" lon="4.68075">
        <ele>701.89990234375</ele>
        <time>2013-05-26T09:06:45Z</time>
      </trkpt>
      <trkpt lat="45.4565" lon="4.6809">
        <ele>700.4580078125</ele>
        <time>2013-05-26T09:06:48Z</time>
      </trkpt>
      <trkpt lat="45.4566" lon="4.68105">
        <ele>699.015625</ele>
        <time>2013-05-26T09:06:51Z</time>
      </trkpt>
      <trkpt lat="45.4567" lon="4.68121">
        <ele>697.57373046875</ele>
        <time>2013-05-26T09:06:54Z</time>
      </trkpt>
      <trkpt lat="45.45677" lon="4.68132">
        <ele>696.1318359375</ele>
        <time>2013-05-26T09:06:56Z</time>
      </trkpt>
      <trkpt lat="45.45685" lon="4.68141">
        <ele>695.17041015625</ele>
        <time>2013-05-26T09:06:58Z</time>
      </trkpt>
      <trkpt lat="45.45701" lon="4.68156">
        <ele>693.728515625</ele>
        <time>2013-05-26T09:07:02Z</time>
      </trkpt>
      <trkpt lat="45.45712" lon="4.68166">
        <ele>692.28662109375</ele>
        <time>2013-05-26T09:07:05Z</time>
      </trkpt>
      <trkpt lat="45.45719" lon="4.68174">
        <ele>691.3251953125</ele>
        <time>2013-05-26T09:07:07Z</time>
      </trkpt>
      <trkpt lat="45.45723" lon="4.68177">
        <ele>690.36401367188</ele>
        <time>2013-05-26T09:07:08Z</time>
      </trkpt>
      <trkpt lat="45.45742" lon="4.6819">
        <ele>687.47998046875</ele>
        <time>2013-05-26T09:07:12Z</time>
      </trkpt>
      <trkpt lat="45.4577" lon="4.68208">
        <ele>684.11547851562</ele>
        <time>2013-05-26T09:07:23Z</time>
      </trkpt>
      <trkpt lat="45.45795" lon="4.68212">
        <ele>681.2314453125</ele>
        <time>2013-05-26T09:07:32Z</time>
      </trkpt>
      <trkpt lat="45.45809" lon="4.68211">
        <ele>680.75073242188</ele>
        <time>2013-05-26T09:07:36Z</time>
      </trkpt>
      <trkpt lat="45.4583" lon="4.68215">
        <ele>679.30859375</ele>
        <time>2013-05-26T09:07:45Z</time>
      </trkpt>
      <trkpt lat="45.45846" lon="4.68216">
        <ele>678.828125</ele>
        <time>2013-05-26T09:07:51Z</time>
      </trkpt>
      <trkpt lat="45.45853" lon="4.68215">
        <ele>678.34741210938</ele>
        <time>2013-05-26T09:07:53Z</time>
      </trkpt>
      <trkpt lat="45.45881" lon="4.68218">
        <ele>678.828125</ele>
        <time>2013-05-26T09:08:02Z</time>
      </trkpt>
      <trkpt lat="45.45894" lon="4.68224">
        <ele>677.86669921875</ele>
        <time>2013-05-26T09:08:09Z</time>
      </trkpt>
      <trkpt lat="45.45901" lon="4.68222">
        <ele>677.86669921875</ele>
        <time>2013-05-26T09:08:13Z</time>
      </trkpt>
      <trkpt lat="45.45909" lon="4.6822">
        <ele>677.86669921875</ele>
        <time>2013-05-26T09:08:16Z</time>
      </trkpt>
      <trkpt lat="45.45918" lon="4.68216">
        <ele>678.34741210938</ele>
        <time>2013-05-26T09:08:20Z</time>
      </trkpt>
      <trkpt lat="45.45923" lon="4.68212">
        <ele>677.38623046875</ele>
        <time>2013-05-26T09:08:35Z</time>
      </trkpt>
      <trkpt lat="45.45914" lon="4.68212">
        <ele>677.86669921875</ele>
        <time>2013-05-26T09:08:54Z</time>
      </trkpt>
      <trkpt lat="45.4592" lon="4.68214">
        <ele>678.34741210938</ele>
        <time>2013-05-26T09:09:15Z</time>
      </trkpt>
      <trkpt lat="45.45927" lon="4.68215">
        <ele>678.34741210938</ele>
        <time>2013-05-26T09:09:29Z</time>
      </trkpt>
      <trkpt lat="45.45934" lon="4.68214">
        <ele>678.34741210938</ele>
        <time>2013-05-26T09:09:36Z</time>
      </trkpt>
      <trkpt lat="45.45956" lon="4.68216">
        <ele>677.38623046875</ele>
        <time>2013-05-26T09:09:42Z</time>
      </trkpt>
      <trkpt lat="45.45973" lon="4.68215">
        <ele>675.94409179688</ele>
        <time>2013-05-26T09:09:46Z</time>
      </trkpt>
      <trkpt lat="45.4598" lon="4.68212">
        <ele>674.98291015625</ele>
        <time>2013-05-26T09:09:48Z</time>
      </trkpt>
      <trkpt lat="45.46009" lon="4.68195">
        <ele>673.06030273438</ele>
        <time>2013-05-26T09:09:58Z</time>
      </trkpt>
      <trkpt lat="45.46037" lon="4.68175">
        <ele>674.021484375</ele>
        <time>2013-05-26T09:10:08Z</time>
      </trkpt>
      <trkpt lat="45.46056" lon="4.68165">
        <ele>674.98291015625</ele>
        <time>2013-05-26T09:10:13Z</time>
      </trkpt>
      <trkpt lat="45.46079" lon="4.6814">
        <ele>677.86669921875</ele>
        <time>2013-05-26T09:10:25Z</time>
      </trkpt>
      <trkpt lat="45.46093" lon="4.6812">
        <ele>680.27001953125</ele>
        <time>2013-05-26T09:10:32Z</time>
      </trkpt>
      <trkpt lat="45.46114" lon="4.68096">
        <ele>681.7119140625</ele>
        <time>2013-05-26T09:10:41Z</time>
      </trkpt>
      <trkpt lat="45.46137" lon="4.68079">
        <ele>680.27001953125</ele>
        <time>2013-05-26T09:10:52Z</time>
      </trkpt>
      <trkpt lat="45.46155" lon="4.68056">
        <ele>677.38623046875</ele>
        <time>2013-05-26T09:10:59Z</time>
      </trkpt>
      <trkpt lat="45.46169" lon="4.68032">
        <ele>674.98291015625</ele>
        <time>2013-05-26T09:11:04Z</time>
      </trkpt>
      <trkpt lat="45.46191" lon="4.68004">
        <ele>672.57958984375</ele>
        <time>2013-05-26T09:11:14Z</time>
      </trkpt>
      <trkpt lat="45.46196" lon="4.67998">
        <ele>673.06030273438</ele>
        <time>2013-05-26T09:11:21Z</time>
      </trkpt>
      <trkpt lat="45.46226" lon="4.67985">
        <ele>672.09887695312</ele>
        <time>2013-05-26T09:11:32Z</time>
      </trkpt>
      <trkpt lat="45.46252" lon="4.6798">
        <ele>672.09887695312</ele>
        <time>2013-05-26T09:11:42Z</time>
      </trkpt>
      <trkpt lat="45.46265" lon="4.67969">
        <ele>671.6181640625</ele>
        <time>2013-05-26T09:11:48Z</time>
      </trkpt>
      <trkpt lat="45.46276" lon="4.67965">
        <ele>669.21508789062</ele>
        <time>2013-05-26T09:11:53Z</time>
      </trkpt>
      <trkpt lat="45.46287" lon="4.67955">
        <ele>667.29223632812</ele>
        <time>2013-05-26T09:11:58Z</time>
      </trkpt>
      <trkpt lat="45.46311" lon="4.67945">
        <ele>664.408203125</ele>
        <time>2013-05-26T09:12:03Z</time>
      </trkpt>
      <trkpt lat="45.4632" lon="4.67942">
        <ele>663.44702148438</ele>
        <time>2013-05-26T09:12:05Z</time>
      </trkpt>
      <trkpt lat="45.46332" lon="4.67935">
        <ele>662.00512695312</ele>
        <time>2013-05-26T09:12:08Z</time>
      </trkpt>
      <trkpt lat="45.46363" lon="4.67913">
        <ele>658.64038085938</ele>
        <time>2013-05-26T09:12:16Z</time>
      </trkpt>
      <trkpt lat="45.46395" lon="4.67889">
        <ele>656.23706054688</ele>
        <time>2013-05-26T09:12:23Z</time>
      </trkpt>
      <trkpt lat="45.46426" lon="4.67846">
        <ele>656.7177734375</ele>
        <time>2013-05-26T09:12:33Z</time>
      </trkpt>
      <trkpt lat="45.46447" lon="4.67824">
        <ele>655.27587890625</ele>
        <time>2013-05-26T09:12:44Z</time>
      </trkpt>
      <trkpt lat="45.46448" lon="4.67825">
        <ele>655.27587890625</ele>
        <time>2013-05-26T09:13:19Z</time>
      </trkpt>
      <trkpt lat="45.46448" lon="4.67823">
        <ele>654.79516601562</ele>
        <time>2013-05-26T09:13:53Z</time>
      </trkpt>
      <trkpt lat="45.46448" lon="4.67823">
        <ele>655.27587890625</ele>
        <time>2013-05-26T09:14:59Z</time>
      </trkpt>
      <trkpt lat="45.46448" lon="4.67823">
        <ele>655.75659179688</ele>
        <time>2013-05-26T09:15:36Z</time>
      </trkpt>
      <trkpt lat="45.46449" lon="4.67823">
        <ele>655.27587890625</ele>
        <time>2013-05-26T09:16:04Z</time>
      </trkpt>
      <trkpt lat="45.46447" lon="4.67822">
        <ele>655.27587890625</ele>
        <time>2013-05-26T09:17:19Z</time>
      </trkpt>
      <trkpt lat="45.46447" lon="4.67823">
        <ele>655.27587890625</ele>
        <time>2013-05-26T09:17:43Z</time>
      </trkpt>
      <trkpt lat="45.46447" lon="4.67823">
        <ele>655.27587890625</ele>
        <time>2013-05-26T09:17:47Z</time>
      </trkpt>
      <trkpt lat="45.46455" lon="4.67835">
        <ele>655.75659179688</ele>
        <time>2013-05-26T09:17:55Z</time>
      </trkpt>
      <trkpt lat="45.46454" lon="4.67863">
        <ele>653.35327148438</ele>
        <time>2013-05-26T09:18:03Z</time>
      </trkpt>
      <trkpt lat="45.46469" lon="4.67888">
        <ele>656.23706054688</ele>
        <time>2013-05-26T09:18:18Z</time>
      </trkpt>
      <trkpt lat="45.46482" lon="4.67904">
        <ele>657.67919921875</ele>
        <time>2013-05-26T09:18:29Z</time>
      </trkpt>
      <trkpt lat="45.46499" lon="4.67929">
        <ele>662.00512695312</ele>
        <time>2013-05-26T09:18:46Z</time>
      </trkpt>
      <trkpt lat="45.46508" lon="4.67969">
        <ele>663.92749023438</ele>
        <time>2013-05-26T09:19:02Z</time>
      </trkpt>
      <trkpt lat="45.4652" lon="4.6801">
        <ele>666.8115234375</ele>
        <time>2013-05-26T09:19:16Z</time>
      </trkpt>
      <trkpt lat="45.46534" lon="4.68045">
        <ele>670.65698242188</ele>
        <time>2013-05-26T09:19:31Z</time>
      </trkpt>
      <trkpt lat="45.46547" lon="4.68078">
        <ele>673.541015625</ele>
        <time>2013-05-26T09:19:45Z</time>
      </trkpt>
      <trkpt lat="45.46554" lon="4.68119">
        <ele>674.98291015625</ele>
        <time>2013-05-26T09:20:00Z</time>
      </trkpt>
      <trkpt lat="45.46556" lon="4.68179">
        <ele>673.541015625</ele>
        <time>2013-05-26T09:20:12Z</time>
      </trkpt>
      <trkpt lat="45.46561" lon="4.68254">
        <ele>673.541015625</ele>
        <time>2013-05-26T09:20:27Z</time>
      </trkpt>
      <trkpt lat="45.46562" lon="4.68331">
        <ele>673.06030273438</ele>
        <time>2013-05-26T09:20:43Z</time>
      </trkpt>
      <trkpt lat="45.46562" lon="4.68395">
        <ele>673.06030273438</ele>
        <time>2013-05-26T09:20:55Z</time>
      </trkpt>
      <trkpt lat="45.46569" lon="4.6849">
        <ele>674.50219726562</ele>
        <time>2013-05-26T09:21:15Z</time>
      </trkpt>
      <trkpt lat="45.46575" lon="4.68549">
        <ele>676.90551757812</ele>
        <time>2013-05-26T09:21:29Z</time>
      </trkpt>
      <trkpt lat="45.46583" lon="4.68612">
        <ele>680.27001953125</ele>
        <time>2013-05-26T09:21:46Z</time>
      </trkpt>
      <trkpt lat="45.46593" lon="4.68666">
        <ele>683.15380859375</ele>
        <time>2013-05-26T09:22:02Z</time>
      </trkpt>
      <trkpt lat="45.46596" lon="4.68709">
        <ele>686.99926757812</ele>
        <time>2013-05-26T09:22:14Z</time>
      </trkpt>
      <trkpt lat="45.46599" lon="4.68732">
        <ele>688.44140625</ele>
        <time>2013-05-26T09:22:20Z</time>
      </trkpt>
      <trkpt lat="45.46605" lon="4.68767">
        <ele>691.80590820312</ele>
        <time>2013-05-26T09:22:30Z</time>
      </trkpt>
      <trkpt lat="45.4661" lon="4.68814">
        <ele>694.68969726562</ele>
        <time>2013-05-26T09:22:43Z</time>
      </trkpt>
      <trkpt lat="45.4661" lon="4.68875">
        <ele>697.57373046875</ele>
        <time>2013-05-26T09:23:01Z</time>
      </trkpt>
      <trkpt lat="45.46609" lon="4.68919">
        <ele>700.9384765625</ele>
        <time>2013-05-26T09:23:14Z</time>
      </trkpt>
      <trkpt lat="45.4661" lon="4.68936">
        <ele>701.89990234375</ele>
        <time>2013-05-26T09:23:19Z</time>
      </trkpt>
      <trkpt lat="45.4661" lon="4.68975">
        <ele>705.26440429688</ele>
        <time>2013-05-26T09:23:32Z</time>
      </trkpt>
      <trkpt lat="45.46615" lon="4.69013">
        <ele>709.10961914062</ele>
        <time>2013-05-26T09:23:44Z</time>
      </trkpt>
      <trkpt lat="45.46622" lon="4.69064">
        <ele>711.99365234375</ele>
        <time>2013-05-26T09:24:00Z</time>
      </trkpt>
      <trkpt lat="45.46638" lon="4.69113">
        <ele>713.916015625</ele>
        <time>2013-05-26T09:24:16Z</time>
      </trkpt>
      <trkpt lat="45.46639" lon="4.69116">
        <ele>713.435546875</ele>
        <time>2013-05-26T09:24:29Z</time>
      </trkpt>
      <trkpt lat="45.46642" lon="4.69115">
        <ele>712.95483398438</ele>
        <time>2013-05-26T09:24:45Z</time>
      </trkpt>
      <trkpt lat="45.46642" lon="4.69114">
        <ele>712.95483398438</ele>
        <time>2013-05-26T09:28:14Z</time>
      </trkpt>
      <trkpt lat="45.46643" lon="4.69125">
        <ele>713.435546875</ele>
        <time>2013-05-26T09:28:19Z</time>
      </trkpt>
      <trkpt lat="45.46652" lon="4.69157">
        <ele>712.47412109375</ele>
        <time>2013-05-26T09:28:26Z</time>
      </trkpt>
      <trkpt lat="45.46664" lon="4.69192">
        <ele>711.0322265625</ele>
        <time>2013-05-26T09:28:31Z</time>
      </trkpt>
      <trkpt lat="45.4667" lon="4.69207">
        <ele>710.55151367188</ele>
        <time>2013-05-26T09:28:33Z</time>
      </trkpt>
      <trkpt lat="45.46681" lon="4.6923">
        <ele>708.62890625</ele>
        <time>2013-05-26T09:28:36Z</time>
      </trkpt>
      <trkpt lat="45.46683" lon="4.6923">
        <ele>709.10961914062</ele>
        <time>2013-05-26T09:28:41Z</time>
      </trkpt>
      <trkpt lat="45.46689" lon="4.69234">
        <ele>709.10961914062</ele>
        <time>2013-05-26T09:28:46Z</time>
      </trkpt>
      <trkpt lat="45.46707" lon="4.69251">
        <ele>712.47412109375</ele>
        <time>2013-05-26T09:29:01Z</time>
      </trkpt>
      <trkpt lat="45.46713" lon="4.69255">
        <ele>713.916015625</ele>
        <time>2013-05-26T09:29:05Z</time>
      </trkpt>
      <trkpt lat="45.46729" lon="4.69273">
        <ele>716.80029296875</ele>
        <time>2013-05-26T09:29:18Z</time>
      </trkpt>
      <trkpt lat="45.46734" lon="4.69277">
        <ele>717.28100585938</ele>
        <time>2013-05-26T09:29:22Z</time>
      </trkpt>
      <trkpt lat="45.46737" lon="4.69283">
        <ele>717.28100585938</ele>
        <time>2013-05-26T09:29:26Z</time>
      </trkpt>
      <trkpt lat="45.46752" lon="4.69306">
        <ele>719.20361328125</ele>
        <time>2013-05-26T09:29:37Z</time>
      </trkpt>
      <trkpt lat="45.46769" lon="4.69327">
        <ele>720.16479492188</ele>
        <time>2013-05-26T09:29:51Z</time>
      </trkpt>
      <trkpt lat="45.46775" lon="4.69337">
        <ele>720.6455078125</ele>
        <time>2013-05-26T09:29:55Z</time>
      </trkpt>
      <trkpt lat="45.468" lon="4.69368">
        <ele>722.56811523438</ele>
        <time>2013-05-26T09:30:09Z</time>
      </trkpt>
      <trkpt lat="45.46806" lon="4.69374">
        <ele>722.56811523438</ele>
        <time>2013-05-26T09:30:12Z</time>
      </trkpt>
      <trkpt lat="45.46829" lon="4.69404">
        <ele>724.49072265625</ele>
        <time>2013-05-26T09:30:24Z</time>
      </trkpt>
      <trkpt lat="45.4685" lon="4.69435">
        <ele>725.45190429688</ele>
        <time>2013-05-26T09:30:36Z</time>
      </trkpt>
      <trkpt lat="45.46875" lon="4.69476">
        <ele>728.3359375</ele>
        <time>2013-05-26T09:30:51Z</time>
      </trkpt>
      <trkpt lat="45.46893" lon="4.69512">
        <ele>731.70043945312</ele>
        <time>2013-05-26T09:31:04Z</time>
      </trkpt>
      <trkpt lat="45.46911" lon="4.69557">
        <ele>732.18139648438</ele>
        <time>2013-05-26T09:31:20Z</time>
      </trkpt>
      <trkpt lat="45.46911" lon="4.6956">
        <ele>732.662109375</ele>
        <time>2013-05-26T09:31:21Z</time>
      </trkpt>
      <trkpt lat="45.46919" lon="4.69581">
        <ele>734.10400390625</ele>
        <time>2013-05-26T09:31:28Z</time>
      </trkpt>
      <trkpt lat="45.46934" lon="4.6961">
        <ele>736.98779296875</ele>
        <time>2013-05-26T09:31:40Z</time>
      </trkpt>
      <trkpt lat="45.46959" lon="4.6964">
        <ele>739.87182617188</ele>
        <time>2013-05-26T09:31:56Z</time>
      </trkpt>
      <trkpt lat="45.46975" lon="4.69652">
        <ele>742.27514648438</ele>
        <time>2013-05-26T09:32:06Z</time>
      </trkpt>
      <trkpt lat="45.4698" lon="4.69656">
        <ele>742.27514648438</ele>
        <time>2013-05-26T09:32:09Z</time>
      </trkpt>
      <trkpt lat="45.46987" lon="4.69653">
        <ele>744.19775390625</ele>
        <time>2013-05-26T09:32:14Z</time>
      </trkpt>
      <trkpt lat="45.46989" lon="4.69645">
        <ele>744.19775390625</ele>
        <time>2013-05-26T09:32:18Z</time>
      </trkpt>
      <trkpt lat="45.46981" lon="4.69625">
        <ele>747.08154296875</ele>
        <time>2013-05-26T09:32:28Z</time>
      </trkpt>
      <trkpt lat="45.46979" lon="4.69611">
        <ele>749.48510742188</ele>
        <time>2013-05-26T09:32:35Z</time>
      </trkpt>
      <trkpt lat="45.46973" lon="4.69597">
        <ele>750.92700195312</ele>
        <time>2013-05-26T09:32:43Z</time>
      </trkpt>
      <trkpt lat="45.46972" lon="4.69565">
        <ele>753.81103515625</ele>
        <time>2013-05-26T09:32:59Z</time>
      </trkpt>
      <trkpt lat="45.46976" lon="4.69533">
        <ele>757.17553710938</ele>
        <time>2013-05-26T09:33:14Z</time>
      </trkpt>
      <trkpt lat="45.46976" lon="4.69506">
        <ele>760.05932617188</ele>
        <time>2013-05-26T09:33:27Z</time>
      </trkpt>
      <trkpt lat="45.46977" lon="4.6948">
        <ele>763.42407226562</ele>
        <time>2013-05-26T09:33:40Z</time>
      </trkpt>
      <trkpt lat="45.46976" lon="4.6946">
        <ele>764.8662109375</ele>
        <time>2013-05-26T09:33:53Z</time>
      </trkpt>
      <trkpt lat="45.46977" lon="4.69444">
        <ele>765.82763671875</ele>
        <time>2013-05-26T09:34:05Z</time>
      </trkpt>
      <trkpt lat="45.46976" lon="4.69442">
        <ele>766.30810546875</ele>
        <time>2013-05-26T09:34:36Z</time>
      </trkpt>
      <trkpt lat="45.46977" lon="4.69431">
        <ele>766.78881835938</ele>
        <time>2013-05-26T09:35:18Z</time>
      </trkpt>
      <trkpt lat="45.46983" lon="4.6941">
        <ele>766.78881835938</ele>
        <time>2013-05-26T09:35:34Z</time>
      </trkpt>
      <trkpt lat="45.46984" lon="4.69413">
        <ele>766.30810546875</ele>
        <time>2013-05-26T09:36:06Z</time>
      </trkpt>
      <trkpt lat="45.46984" lon="4.69413">
        <ele>766.30810546875</ele>
        <time>2013-05-26T09:39:07Z</time>
      </trkpt>
      <trkpt lat="45.46984" lon="4.69413">
        <ele>766.78881835938</ele>
        <time>2013-05-26T09:39:49Z</time>
      </trkpt>
      <trkpt lat="45.46991" lon="4.69426">
        <ele>768.71142578125</ele>
        <time>2013-05-26T09:39:58Z</time>
      </trkpt>
      <trkpt lat="45.47008" lon="4.69453">
        <ele>771.59521484375</ele>
        <time>2013-05-26T09:40:13Z</time>
      </trkpt>
      <trkpt lat="45.47021" lon="4.69478">
        <ele>772.556640625</ele>
        <time>2013-05-26T09:40:32Z</time>
      </trkpt>
      <trkpt lat="45.47021" lon="4.69478">
        <ele>772.07592773438</ele>
        <time>2013-05-26T09:40:33Z</time>
      </trkpt>
      <trkpt lat="45.47022" lon="4.69492">
        <ele>769.6728515625</ele>
        <time>2013-05-26T09:40:43Z</time>
      </trkpt>
      <trkpt lat="45.47025" lon="4.69503">
        <ele>768.23071289062</ele>
        <time>2013-05-26T09:40:46Z</time>
      </trkpt>
      <trkpt lat="45.47033" lon="4.69521">
        <ele>764.38549804688</ele>
        <time>2013-05-26T09:40:50Z</time>
      </trkpt>
      <trkpt lat="45.47061" lon="4.6954">
        <ele>761.50146484375</ele>
        <time>2013-05-26T09:40:59Z</time>
      </trkpt>
      <trkpt lat="45.47072" lon="4.69555">
        <ele>756.69482421875</ele>
        <time>2013-05-26T09:41:04Z</time>
      </trkpt>
      <trkpt lat="45.47078" lon="4.69566">
        <ele>753.33032226562</ele>
        <time>2013-05-26T09:41:09Z</time>
      </trkpt>
      <trkpt lat="45.47084" lon="4.6957">
        <ele>751.88842773438</ele>
        <time>2013-05-26T09:41:12Z</time>
      </trkpt>
      <trkpt lat="45.47088" lon="4.6957">
        <ele>750.44653320312</ele>
        <time>2013-05-26T09:41:14Z</time>
      </trkpt>
      <trkpt lat="45.47098" lon="4.69572">
        <ele>747.56225585938</ele>
        <time>2013-05-26T09:41:19Z</time>
      </trkpt>
      <trkpt lat="45.47103" lon="4.69575">
        <ele>745.15893554688</ele>
        <time>2013-05-26T09:41:23Z</time>
      </trkpt>
      <trkpt lat="45.47105" lon="4.69576">
        <ele>743.71704101562</ele>
        <time>2013-05-26T09:41:24Z</time>
      </trkpt>
      <trkpt lat="45.47112" lon="4.69583">
        <ele>741.31372070312</ele>
        <time>2013-05-26T09:41:29Z</time>
      </trkpt>
      <trkpt lat="45.47118" lon="4.69587">
        <ele>739.39111328125</ele>
        <time>2013-05-26T09:41:33Z</time>
      </trkpt>
      <trkpt lat="45.4712" lon="4.69588">
        <ele>737.94921875</ele>
        <time>2013-05-26T09:41:34Z</time>
      </trkpt>
      <trkpt lat="45.47129" lon="4.69597">
        <ele>734.10400390625</ele>
        <time>2013-05-26T09:41:39Z</time>
      </trkpt>
      <trkpt lat="45.47135" lon="4.69607">
        <ele>732.18139648438</ele>
        <time>2013-05-26T09:41:43Z</time>
      </trkpt>
      <trkpt lat="45.47141" lon="4.69613">
        <ele>728.81665039062</ele>
        <time>2013-05-26T09:41:46Z</time>
      </trkpt>
      <trkpt lat="45.4715" lon="4.69621">
        <ele>725.45190429688</ele>
        <time>2013-05-26T09:41:52Z</time>
      </trkpt>
      <trkpt lat="45.47163" lon="4.69627">
        <ele>722.08740234375</ele>
        <time>2013-05-26T09:41:56Z</time>
      </trkpt>
      <trkpt lat="45.47174" lon="4.69631">
        <ele>719.68432617188</ele>
        <time>2013-05-26T09:41:59Z</time>
      </trkpt>
      <trkpt lat="45.47182" lon="4.69631">
        <ele>718.72290039062</ele>
        <time>2013-05-26T09:42:02Z</time>
      </trkpt>
      <trkpt lat="45.47185" lon="4.69631">
        <ele>717.76147460938</ele>
        <time>2013-05-26T09:42:03Z</time>
      </trkpt>
      <trkpt lat="45.4719" lon="4.69629">
        <ele>716.80029296875</ele>
        <time>2013-05-26T09:42:05Z</time>
      </trkpt>
      <trkpt lat="45.47197" lon="4.69626">
        <ele>715.35815429688</ele>
        <time>2013-05-26T09:42:07Z</time>
      </trkpt>
      <trkpt lat="45.4721" lon="4.69618">
        <ele>713.916015625</ele>
        <time>2013-05-26T09:42:10Z</time>
      </trkpt>
      <trkpt lat="45.47237" lon="4.69592">
        <ele>710.07080078125</ele>
        <time>2013-05-26T09:42:15Z</time>
      </trkpt>
      <trkpt lat="45.47243" lon="4.69583">
        <ele>709.59033203125</ele>
        <time>2013-05-26T09:42:17Z</time>
      </trkpt>
      <trkpt lat="45.47261" lon="4.69562">
        <ele>706.2255859375</ele>
        <time>2013-05-26T09:42:27Z</time>
      </trkpt>
      <trkpt lat="45.47269" lon="4.69553">
        <ele>704.78369140625</ele>
        <time>2013-05-26T09:42:31Z</time>
      </trkpt>
      <trkpt lat="45.47283" lon="4.69532">
        <ele>701.41918945312</ele>
        <time>2013-05-26T09:42:38Z</time>
      </trkpt>
      <trkpt lat="45.47285" lon="4.69528">
        <ele>700.9384765625</ele>
        <time>2013-05-26T09:42:39Z</time>
      </trkpt>
      <trkpt lat="45.47295" lon="4.69509">
        <ele>699.015625</ele>
        <time>2013-05-26T09:42:43Z</time>
      </trkpt>
      <trkpt lat="45.47308" lon="4.6949">
        <ele>696.61254882812</ele>
        <time>2013-05-26T09:42:47Z</time>
      </trkpt>
      <trkpt lat="45.47313" lon="4.69484">
        <ele>695.65112304688</ele>
        <time>2013-05-26T09:42:49Z</time>
      </trkpt>
      <trkpt lat="45.4733" lon="4.69486">
        <ele>691.80590820312</ele>
        <time>2013-05-26T09:42:53Z</time>
      </trkpt>
      <trkpt lat="45.47336" lon="4.69489">
        <ele>690.84448242188</ele>
        <time>2013-05-26T09:42:54Z</time>
      </trkpt>
      <trkpt lat="45.4737" lon="4.6947">
        <ele>686.51879882812</ele>
        <time>2013-05-26T09:43:01Z</time>
      </trkpt>
      <trkpt lat="45.47383" lon="4.69445">
        <ele>683.63452148438</ele>
        <time>2013-05-26T09:43:06Z</time>
      </trkpt>
      <trkpt lat="45.47402" lon="4.69436">
        <ele>681.2314453125</ele>
        <time>2013-05-26T09:43:10Z</time>
      </trkpt>
      <trkpt lat="45.47426" lon="4.69409">
        <ele>676.90551757812</ele>
        <time>2013-05-26T09:43:14Z</time>
      </trkpt>
      <trkpt lat="45.47443" lon="4.69392">
        <ele>672.57958984375</ele>
        <time>2013-05-26T09:43:17Z</time>
      </trkpt>
      <trkpt lat="45.47446" lon="4.69388">
        <ele>671.1376953125</ele>
        <time>2013-05-26T09:43:28Z</time>
      </trkpt>
      <trkpt lat="45.47457" lon="4.69379">
        <ele>669.69580078125</ele>
        <time>2013-05-26T09:44:05Z</time>
      </trkpt>
      <trkpt lat="45.47477" lon="4.69362">
        <ele>669.69580078125</ele>
        <time>2013-05-26T09:44:10Z</time>
      </trkpt>
      <trkpt lat="45.47501" lon="4.69344">
        <ele>666.33081054688</ele>
        <time>2013-05-26T09:44:15Z</time>
      </trkpt>
      <trkpt lat="45.47515" lon="4.69343">
        <ele>665.36962890625</ele>
        <time>2013-05-26T09:44:17Z</time>
      </trkpt>
      <trkpt lat="45.47532" lon="4.69358">
        <ele>663.44702148438</ele>
        <time>2013-05-26T09:44:20Z</time>
      </trkpt>
      <trkpt lat="45.47547" lon="4.69378">
        <ele>662.00512695312</ele>
        <time>2013-05-26T09:44:23Z</time>
      </trkpt>
      <trkpt lat="45.47554" lon="4.69402">
        <ele>659.12109375</ele>
        <time>2013-05-26T09:44:26Z</time>
      </trkpt>
      <trkpt lat="45.47553" lon="4.69422">
        <ele>656.7177734375</ele>
        <time>2013-05-26T09:44:28Z</time>
      </trkpt>
      <trkpt lat="45.47551" lon="4.69453">
        <ele>651.9111328125</ele>
        <time>2013-05-26T09:44:31Z</time>
      </trkpt>
      <trkpt lat="45.47553" lon="4.6947">
        <ele>649.98852539062</ele>
        <time>2013-05-26T09:44:33Z</time>
      </trkpt>
      <trkpt lat="45.47558" lon="4.69531">
        <ele>644.220703125</ele>
        <time>2013-05-26T09:44:38Z</time>
      </trkpt>
      <trkpt lat="45.47563" lon="4.69553">
        <ele>642.77880859375</ele>
        <time>2013-05-26T09:44:40Z</time>
      </trkpt>
      <trkpt lat="45.47572" lon="4.69582">
        <ele>639.89477539062</ele>
        <time>2013-05-26T09:44:43Z</time>
      </trkpt>
      <trkpt lat="45.47595" lon="4.69635">
        <ele>635.56860351562</ele>
        <time>2013-05-26T09:44:48Z</time>
      </trkpt>
      <trkpt lat="45.476" lon="4.69647">
        <ele>635.56860351562</ele>
        <time>2013-05-26T09:44:49Z</time>
      </trkpt>
      <trkpt lat="45.47618" lon="4.69676">
        <ele>632.2041015625</ele>
        <time>2013-05-26T09:44:52Z</time>
      </trkpt>
      <trkpt lat="45.47643" lon="4.69701">
        <ele>629.32006835938</ele>
        <time>2013-05-26T09:44:56Z</time>
      </trkpt>
      <trkpt lat="45.47647" lon="4.69704">
        <ele>628.35888671875</ele>
        <time>2013-05-26T09:44:57Z</time>
      </trkpt>
      <trkpt lat="45.47649" lon="4.69701">
        <ele>628.35888671875</ele>
        <time>2013-05-26T09:45:08Z</time>
      </trkpt>
      <trkpt lat="45.47649" lon="4.69701">
        <ele>627.87817382812</ele>
        <time>2013-05-26T09:45:52Z</time>
      </trkpt>
      <trkpt lat="45.47649" lon="4.69701">
        <ele>627.39770507812</ele>
        <time>2013-05-26T09:49:49Z</time>
      </trkpt>
      <trkpt lat="45.47649" lon="4.69701">
        <ele>627.87817382812</ele>
        <time>2013-05-26T09:52:26Z</time>
      </trkpt>
      <trkpt lat="45.4765" lon="4.697">
        <ele>626.9169921875</ele>
        <time>2013-05-26T09:53:14Z</time>
      </trkpt>
      <trkpt lat="45.47679" lon="4.6971">
        <ele>626.43627929688</ele>
        <time>2013-05-26T09:53:25Z</time>
      </trkpt>
      <trkpt lat="45.47693" lon="4.69756">
        <ele>628.83959960938</ele>
        <time>2013-05-26T09:53:38Z</time>
      </trkpt>
      <trkpt lat="45.47711" lon="4.69795">
        <ele>632.2041015625</ele>
        <time>2013-05-26T09:53:50Z</time>
      </trkpt>
      <trkpt lat="45.47726" lon="4.69832">
        <ele>635.56860351562</ele>
        <time>2013-05-26T09:54:05Z</time>
      </trkpt>
      <trkpt lat="45.47733" lon="4.69862">
        <ele>638.45288085938</ele>
        <time>2013-05-26T09:54:18Z</time>
      </trkpt>
      <trkpt lat="45.47731" lon="4.69888">
        <ele>641.33666992188</ele>
        <time>2013-05-26T09:54:29Z</time>
      </trkpt>
      <trkpt lat="45.47732" lon="4.69917">
        <ele>644.701171875</ele>
        <time>2013-05-26T09:54:42Z</time>
      </trkpt>
      <trkpt lat="45.47735" lon="4.69943">
        <ele>647.1044921875</ele>
        <time>2013-05-26T09:54:53Z</time>
      </trkpt>
      <trkpt lat="45.4775" lon="4.69955">
        <ele>650.46923828125</ele>
        <time>2013-05-26T09:55:05Z</time>
      </trkpt>
      <trkpt lat="45.4777" lon="4.69946">
        <ele>653.35327148438</ele>
        <time>2013-05-26T09:55:18Z</time>
      </trkpt>
      <trkpt lat="45.47783" lon="4.69951">
        <ele>656.7177734375</ele>
        <time>2013-05-26T09:55:27Z</time>
      </trkpt>
      <trkpt lat="45.47796" lon="4.69975">
        <ele>659.60180664062</ele>
        <time>2013-05-26T09:55:40Z</time>
      </trkpt>
      <trkpt lat="45.47816" lon="4.70002">
        <ele>662.96630859375</ele>
        <time>2013-05-26T09:55:57Z</time>
      </trkpt>
      <trkpt lat="45.47835" lon="4.70035">
        <ele>666.33081054688</ele>
        <time>2013-05-26T09:56:16Z</time>
      </trkpt>
      <trkpt lat="45.47848" lon="4.7006">
        <ele>669.69580078125</ele>
        <time>2013-05-26T09:56:29Z</time>
      </trkpt>
      <trkpt lat="45.47887" lon="4.70134">
        <ele>672.09887695312</ele>
        <time>2013-05-26T09:57:02Z</time>
      </trkpt>
      <trkpt lat="45.4789" lon="4.70188">
        <ele>672.09887695312</ele>
        <time>2013-05-26T09:57:21Z</time>
      </trkpt>
      <trkpt lat="45.47884" lon="4.70244">
        <ele>669.69580078125</ele>
        <time>2013-05-26T09:57:31Z</time>
      </trkpt>
      <trkpt lat="45.47886" lon="4.70301">
        <ele>667.29223632812</ele>
        <time>2013-05-26T09:57:36Z</time>
      </trkpt>
      <trkpt lat="45.47888" lon="4.70342">
        <ele>665.36962890625</ele>
        <time>2013-05-26T09:57:40Z</time>
      </trkpt>
      <trkpt lat="45.47889" lon="4.70374">
        <ele>662.96630859375</ele>
        <time>2013-05-26T09:57:43Z</time>
      </trkpt>
      <trkpt lat="45.47887" lon="4.70414">
        <ele>661.5244140625</ele>
        <time>2013-05-26T09:57:47Z</time>
      </trkpt>
      <trkpt lat="45.47885" lon="4.70435">
        <ele>659.60180664062</ele>
        <time>2013-05-26T09:57:49Z</time>
      </trkpt>
      <trkpt lat="45.47877" lon="4.70467">
        <ele>658.64038085938</ele>
        <time>2013-05-26T09:57:52Z</time>
      </trkpt>
      <trkpt lat="45.47864" lon="4.70511">
        <ele>656.23706054688</ele>
        <time>2013-05-26T09:57:56Z</time>
      </trkpt>
      <trkpt lat="45.47856" lon="4.70532">
        <ele>654.79516601562</ele>
        <time>2013-05-26T09:57:58Z</time>
      </trkpt>
      <trkpt lat="45.47853" lon="4.70542">
        <ele>654.79516601562</ele>
        <time>2013-05-26T09:57:59Z</time>
      </trkpt>
      <trkpt lat="45.47848" lon="4.70615">
        <ele>655.27587890625</ele>
        <time>2013-05-26T09:58:09Z</time>
      </trkpt>
      <trkpt lat="45.47844" lon="4.70666">
        <ele>658.15991210938</ele>
        <time>2013-05-26T09:58:19Z</time>
      </trkpt>
      <trkpt lat="45.47856" lon="4.70791">
        <ele>657.19848632812</ele>
        <time>2013-05-26T09:58:40Z</time>
      </trkpt>
      <trkpt lat="45.47899" lon="4.70938">
        <ele>655.75659179688</ele>
        <time>2013-05-26T09:59:04Z</time>
      </trkpt>
      <trkpt lat="45.47953" lon="4.7106">
        <ele>654.31469726562</ele>
        <time>2013-05-26T09:59:27Z</time>
      </trkpt>
      <trkpt lat="45.48012" lon="4.71133">
        <ele>654.79516601562</ele>
        <time>2013-05-26T09:59:46Z</time>
      </trkpt>
      <trkpt lat="45.48066" lon="4.71186">
        <ele>652.39184570312</ele>
        <time>2013-05-26T10:00:01Z</time>
      </trkpt>
      <trkpt lat="45.48083" lon="4.71198">
        <ele>651.9111328125</ele>
        <time>2013-05-26T10:00:12Z</time>
      </trkpt>
      <trkpt lat="45.48085" lon="4.712">
        <ele>651.9111328125</ele>
        <time>2013-05-26T10:00:36Z</time>
      </trkpt>
      <trkpt lat="45.48103" lon="4.71212">
        <ele>651.43041992188</ele>
        <time>2013-05-26T10:01:03Z</time>
      </trkpt>
      <trkpt lat="45.48161" lon="4.71273">
        <ele>651.43041992188</ele>
        <time>2013-05-26T10:01:24Z</time>
      </trkpt>
      <trkpt lat="45.48202" lon="4.71324">
        <ele>650.94970703125</ele>
        <time>2013-05-26T10:01:41Z</time>
      </trkpt>
      <trkpt lat="45.48229" lon="4.71364">
        <ele>649.02709960938</ele>
        <time>2013-05-26T10:01:51Z</time>
      </trkpt>
      <trkpt lat="45.48232" lon="4.71369">
        <ele>648.54638671875</ele>
        <time>2013-05-26T10:01:52Z</time>
      </trkpt>
      <trkpt lat="45.48286" lon="4.71415">
        <ele>650.46923828125</ele>
        <time>2013-05-26T10:02:08Z</time>
      </trkpt>
      <trkpt lat="45.48343" lon="4.71432">
        <ele>649.5078125</ele>
        <time>2013-05-26T10:02:24Z</time>
      </trkpt>
      <trkpt lat="45.48388" lon="4.71406">
        <ele>648.54638671875</ele>
        <time>2013-05-26T10:02:38Z</time>
      </trkpt>
      <trkpt lat="45.48434" lon="4.71358">
        <ele>647.1044921875</ele>
        <time>2013-05-26T10:02:54Z</time>
      </trkpt>
      <trkpt lat="45.48448" lon="4.71317">
        <ele>649.98852539062</ele>
        <time>2013-05-26T10:03:08Z</time>
      </trkpt>
      <trkpt lat="45.48475" lon="4.71288">
        <ele>650.94970703125</ele>
        <time>2013-05-26T10:03:24Z</time>
      </trkpt>
      <trkpt lat="45.4852" lon="4.71246">
        <ele>653.35327148438</ele>
        <time>2013-05-26T10:03:44Z</time>
      </trkpt>
      <trkpt lat="45.48555" lon="4.7124">
        <ele>653.35327148438</ele>
        <time>2013-05-26T10:03:58Z</time>
      </trkpt>
      <trkpt lat="45.48586" lon="4.71255">
        <ele>653.35327148438</ele>
        <time>2013-05-26T10:04:12Z</time>
      </trkpt>
      <trkpt lat="45.48628" lon="4.71266">
        <ele>653.833984375</ele>
        <time>2013-05-26T10:04:25Z</time>
      </trkpt>
      <trkpt lat="45.48658" lon="4.71274">
        <ele>654.79516601562</ele>
        <time>2013-05-26T10:04:35Z</time>
      </trkpt>
      <trkpt lat="45.48702" lon="4.71285">
        <ele>656.23706054688</ele>
        <time>2013-05-26T10:04:47Z</time>
      </trkpt>
      <trkpt lat="45.48738" lon="4.71302">
        <ele>655.75659179688</ele>
        <time>2013-05-26T10:05:01Z</time>
      </trkpt>
      <trkpt lat="45.48743" lon="4.71302">
        <ele>655.27587890625</ele>
        <time>2013-05-26T10:05:19Z</time>
      </trkpt>
      <trkpt lat="45.48744" lon="4.71303">
        <ele>655.75659179688</ele>
        <time>2013-05-26T10:06:10Z</time>
      </trkpt>
      <trkpt lat="45.48749" lon="4.71291">
        <ele>656.7177734375</ele>
        <time>2013-05-26T10:06:16Z</time>
      </trkpt>
      <trkpt lat="45.48754" lon="4.71273">
        <ele>657.19848632812</ele>
        <time>2013-05-26T10:06:29Z</time>
      </trkpt>
      <trkpt lat="45.48756" lon="4.7127">
        <ele>657.67919921875</ele>
        <time>2013-05-26T10:06:48Z</time>
      </trkpt>
      <trkpt lat="45.48766" lon="4.71261">
        <ele>655.27587890625</ele>
        <time>2013-05-26T10:06:56Z</time>
      </trkpt>
      <trkpt lat="45.48771" lon="4.7126">
        <ele>654.31469726562</ele>
        <time>2013-05-26T10:06:58Z</time>
      </trkpt>
      <trkpt lat="45.48795" lon="4.71249">
        <ele>651.43041992188</ele>
        <time>2013-05-26T10:07:04Z</time>
      </trkpt>
      <trkpt lat="45.48821" lon="4.712">
        <ele>649.5078125</ele>
        <time>2013-05-26T10:07:14Z</time>
      </trkpt>
      <trkpt lat="45.48863" lon="4.7113">
        <ele>647.58520507812</ele>
        <time>2013-05-26T10:07:25Z</time>
      </trkpt>
      <trkpt lat="45.48877" lon="4.71099">
        <ele>646.6240234375</ele>
        <time>2013-05-26T10:07:35Z</time>
      </trkpt>
      <trkpt lat="45.48876" lon="4.71102">
        <ele>646.14331054688</ele>
        <time>2013-05-26T10:09:09Z</time>
      </trkpt>
      <trkpt lat="45.48876" lon="4.71102">
        <ele>645.66259765625</ele>
        <time>2013-05-26T10:09:21Z</time>
      </trkpt>
      <trkpt lat="45.4888" lon="4.71116">
        <ele>644.220703125</ele>
        <time>2013-05-26T10:09:27Z</time>
      </trkpt>
      <trkpt lat="45.48885" lon="4.7113">
        <ele>640.85595703125</ele>
        <time>2013-05-26T10:09:30Z</time>
      </trkpt>
      <trkpt lat="45.48891" lon="4.71128">
        <ele>637.97216796875</ele>
        <time>2013-05-26T10:09:32Z</time>
      </trkpt>
      <trkpt lat="45.48894" lon="4.71124">
        <ele>636.5302734375</ele>
        <time>2013-05-26T10:09:33Z</time>
      </trkpt>
      <trkpt lat="45.48908" lon="4.71104">
        <ele>633.16528320312</ele>
        <time>2013-05-26T10:09:37Z</time>
      </trkpt>
      <trkpt lat="45.48913" lon="4.71089">
        <ele>630.76220703125</ele>
        <time>2013-05-26T10:09:40Z</time>
      </trkpt>
      <trkpt lat="45.48914" lon="4.71085">
        <ele>630.28149414062</ele>
        <time>2013-05-26T10:09:41Z</time>
      </trkpt>
      <trkpt lat="45.48917" lon="4.71076">
        <ele>625.95556640625</ele>
        <time>2013-05-26T10:09:47Z</time>
      </trkpt>
      <trkpt lat="45.48917" lon="4.71076">
        <ele>624.513671875</ele>
        <time>2013-05-26T10:09:49Z</time>
      </trkpt>
      <trkpt lat="45.4892" lon="4.71078">
        <ele>623.07177734375</ele>
        <time>2013-05-26T10:09:52Z</time>
      </trkpt>
      <trkpt lat="45.48925" lon="4.7108">
        <ele>621.62963867188</ele>
        <time>2013-05-26T10:09:54Z</time>
      </trkpt>
      <trkpt lat="45.48944" lon="4.71086">
        <ele>616.82299804688</ele>
        <time>2013-05-26T10:10:00Z</time>
      </trkpt>
      <trkpt lat="45.48948" lon="4.71088">
        <ele>616.82299804688</ele>
        <time>2013-05-26T10:10:01Z</time>
      </trkpt>
      <trkpt lat="45.4896" lon="4.71093">
        <ele>613.45849609375</ele>
        <time>2013-05-26T10:10:04Z</time>
      </trkpt>
      <trkpt lat="45.48965" lon="4.71095">
        <ele>613.45849609375</ele>
        <time>2013-05-26T10:10:05Z</time>
      </trkpt>
      <trkpt lat="45.48996" lon="4.71104">
        <ele>610.57446289062</ele>
        <time>2013-05-26T10:10:09Z</time>
      </trkpt>
      <trkpt lat="45.4901" lon="4.71108">
        <ele>609.61328125</ele>
        <time>2013-05-26T10:10:11Z</time>
      </trkpt>
      <trkpt lat="45.49022" lon="4.71114">
        <ele>607.2099609375</ele>
        <time>2013-05-26T10:10:13Z</time>
      </trkpt>
      <trkpt lat="45.49049" lon="4.71138">
        <ele>601.92260742188</ele>
        <time>2013-05-26T10:10:17Z</time>
      </trkpt>
      <trkpt lat="45.49064" lon="4.71154">
        <ele>596.63549804688</ele>
        <time>2013-05-26T10:10:19Z</time>
      </trkpt>
      <trkpt lat="45.49081" lon="4.71172">
        <ele>592.79028320312</ele>
        <time>2013-05-26T10:10:22Z</time>
      </trkpt>
      <trkpt lat="45.49104" lon="4.71182">
        <ele>587.50268554688</ele>
        <time>2013-05-26T10:10:26Z</time>
      </trkpt>
      <trkpt lat="45.4911" lon="4.71183">
        <ele>586.54150390625</ele>
        <time>2013-05-26T10:10:27Z</time>
      </trkpt>
      <trkpt lat="45.49121" lon="4.71184">
        <ele>584.61889648438</ele>
        <time>2013-05-26T10:10:29Z</time>
      </trkpt>
      <trkpt lat="45.49136" lon="4.7118">
        <ele>581.73486328125</ele>
        <time>2013-05-26T10:10:32Z</time>
      </trkpt>
      <trkpt lat="45.49161" lon="4.71182">
        <ele>577.4091796875</ele>
        <time>2013-05-26T10:10:36Z</time>
      </trkpt>
      <trkpt lat="45.4917" lon="4.7119">
        <ele>574.04443359375</ele>
        <time>2013-05-26T10:10:39Z</time>
      </trkpt>
      <trkpt lat="45.49175" lon="4.71199">
        <ele>572.6025390625</ele>
        <time>2013-05-26T10:10:41Z</time>
      </trkpt>
      <trkpt lat="45.49185" lon="4.71214">
        <ele>570.6796875</ele>
        <time>2013-05-26T10:10:44Z</time>
      </trkpt>
      <trkpt lat="45.49194" lon="4.71222">
        <ele>569.71850585938</ele>
        <time>2013-05-26T10:10:46Z</time>
      </trkpt>
      <trkpt lat="45.49212" lon="4.71243">
        <ele>567.79565429688</ele>
        <time>2013-05-26T10:10:50Z</time>
      </trkpt>
      <trkpt lat="45.49247" lon="4.71247">
        <ele>564.91186523438</ele>
        <time>2013-05-26T10:10:56Z</time>
      </trkpt>
      <trkpt lat="45.4926" lon="4.71238">
        <ele>564.91186523438</ele>
        <time>2013-05-26T10:10:59Z</time>
      </trkpt>
      <trkpt lat="45.49304" lon="4.71185">
        <ele>565.392578125</ele>
        <time>2013-05-26T10:11:12Z</time>
      </trkpt>
      <trkpt lat="45.49319" lon="4.71156">
        <ele>564.91186523438</ele>
        <time>2013-05-26T10:11:20Z</time>
      </trkpt>
      <trkpt lat="45.49332" lon="4.71125">
        <ele>563.95043945312</ele>
        <time>2013-05-26T10:11:30Z</time>
      </trkpt>
      <trkpt lat="45.49335" lon="4.71114">
        <ele>562.9892578125</ele>
        <time>2013-05-26T10:11:33Z</time>
      </trkpt>
      <trkpt lat="45.49355" lon="4.71081">
        <ele>561.06665039062</ele>
        <time>2013-05-26T10:11:43Z</time>
      </trkpt>
      <trkpt lat="45.49362" lon="4.71069">
        <ele>562.02807617188</ele>
        <time>2013-05-26T10:11:48Z</time>
      </trkpt>
      <trkpt lat="45.49399" lon="4.71046">
        <ele>563.46997070312</ele>
        <time>2013-05-26T10:12:01Z</time>
      </trkpt>
      <trkpt lat="45.49437" lon="4.71005">
        <ele>564.43115234375</ele>
        <time>2013-05-26T10:12:14Z</time>
      </trkpt>
      <trkpt lat="45.49473" lon="4.70962">
        <ele>565.392578125</ele>
        <time>2013-05-26T10:12:27Z</time>
      </trkpt>
      <trkpt lat="45.49499" lon="4.70934">
        <ele>564.91186523438</ele>
        <time>2013-05-26T10:12:38Z</time>
      </trkpt>
      <trkpt lat="45.49531" lon="4.70903">
        <ele>561.54736328125</ele>
        <time>2013-05-26T10:12:45Z</time>
      </trkpt>
      <trkpt lat="45.49542" lon="4.70892">
        <ele>562.02807617188</ele>
        <time>2013-05-26T10:12:47Z</time>
      </trkpt>
      <trkpt lat="45.49554" lon="4.70881">
        <ele>560.10522460938</ele>
        <time>2013-05-26T10:12:50Z</time>
      </trkpt>
      <trkpt lat="45.4957" lon="4.70889">
        <ele>557.22143554688</ele>
        <time>2013-05-26T10:12:57Z</time>
      </trkpt>
      <trkpt lat="45.49604" lon="4.70894">
        <ele>555.779296875</ele>
        <time>2013-05-26T10:13:07Z</time>
      </trkpt>
      <trkpt lat="45.49605" lon="4.70899">
        <ele>555.779296875</ele>
        <time>2013-05-26T10:13:11Z</time>
      </trkpt>
      <trkpt lat="45.49593" lon="4.70899">
        <ele>556.26000976562</ele>
        <time>2013-05-26T10:13:18Z</time>
      </trkpt>
      <trkpt lat="45.49584" lon="4.70901">
        <ele>556.26000976562</ele>
        <time>2013-05-26T10:13:21Z</time>
      </trkpt>
      <trkpt lat="45.49579" lon="4.70898">
        <ele>555.779296875</ele>
        <time>2013-05-26T10:13:30Z</time>
      </trkpt>
      <trkpt lat="45.49578" lon="4.70897">
        <ele>555.779296875</ele>
        <time>2013-05-26T10:16:04Z</time>
      </trkpt>
      <trkpt lat="45.49596" lon="4.70896">
        <ele>556.74072265625</ele>
        <time>2013-05-26T10:16:11Z</time>
      </trkpt>
      <trkpt lat="45.49626" lon="4.70889">
        <ele>556.26000976562</ele>
        <time>2013-05-26T10:16:19Z</time>
      </trkpt>
      <trkpt lat="45.49695" lon="4.70836">
        <ele>554.33740234375</ele>
        <time>2013-05-26T10:16:35Z</time>
      </trkpt>
      <trkpt lat="45.49762" lon="4.70775">
        <ele>552.41455078125</ele>
        <time>2013-05-26T10:16:48Z</time>
      </trkpt>
      <trkpt lat="45.4982" lon="4.70724">
        <ele>551.45336914062</ele>
        <time>2013-05-26T10:17:01Z</time>
      </trkpt>
      <trkpt lat="45.49913" lon="4.70671">
        <ele>550.97265625</ele>
        <time>2013-05-26T10:17:20Z</time>
      </trkpt>
      <trkpt lat="45.49943" lon="4.70671">
        <ele>550.01147460938</ele>
        <time>2013-05-26T10:17:25Z</time>
      </trkpt>
      <trkpt lat="45.49961" lon="4.70678">
        <ele>548.5693359375</ele>
        <time>2013-05-26T10:17:28Z</time>
      </trkpt>
      <trkpt lat="45.49981" lon="4.70698">
        <ele>544.72424316406</ele>
        <time>2013-05-26T10:17:32Z</time>
      </trkpt>
      <trkpt lat="45.50009" lon="4.70746">
        <ele>540.39831542969</ele>
        <time>2013-05-26T10:17:38Z</time>
      </trkpt>
      <trkpt lat="45.50034" lon="4.70792">
        <ele>537.99499511719</ele>
        <time>2013-05-26T10:17:43Z</time>
      </trkpt>
      <trkpt lat="45.50038" lon="4.70802">
        <ele>537.03369140625</ele>
        <time>2013-05-26T10:17:44Z</time>
      </trkpt>
      <trkpt lat="45.50066" lon="4.70833">
        <ele>535.11096191406</ele>
        <time>2013-05-26T10:17:49Z</time>
      </trkpt>
      <trkpt lat="45.50087" lon="4.70822">
        <ele>534.14965820312</ele>
        <time>2013-05-26T10:17:52Z</time>
      </trkpt>
      <trkpt lat="45.5012" lon="4.70773">
        <ele>531.74633789062</ele>
        <time>2013-05-26T10:17:58Z</time>
      </trkpt>
      <trkpt lat="45.50139" lon="4.70756">
        <ele>530.30444335938</ele>
        <time>2013-05-26T10:18:01Z</time>
      </trkpt>
      <trkpt lat="45.50193" lon="4.70732">
        <ele>528.3818359375</ele>
        <time>2013-05-26T10:18:09Z</time>
      </trkpt>
      <trkpt lat="45.50213" lon="4.70727">
        <ele>527.90100097656</ele>
        <time>2013-05-26T10:18:12Z</time>
      </trkpt>
      <trkpt lat="45.50244" lon="4.7071">
        <ele>528.3818359375</ele>
        <time>2013-05-26T10:18:18Z</time>
      </trkpt>
      <trkpt lat="45.50264" lon="4.70704">
        <ele>530.30444335938</ele>
        <time>2013-05-26T10:18:27Z</time>
      </trkpt>
      <trkpt lat="45.50306" lon="4.70691">
        <ele>532.70776367188</ele>
        <time>2013-05-26T10:18:42Z</time>
      </trkpt>
      <trkpt lat="45.50345" lon="4.70696">
        <ele>535.59155273438</ele>
        <time>2013-05-26T10:18:57Z</time>
      </trkpt>
      <trkpt lat="45.50379" lon="4.70714">
        <ele>535.11096191406</ele>
        <time>2013-05-26T10:19:11Z</time>
      </trkpt>
      <trkpt lat="45.50403" lon="4.70761">
        <ele>536.55310058594</ele>
        <time>2013-05-26T10:19:24Z</time>
      </trkpt>
      <trkpt lat="45.50408" lon="4.70792">
        <ele>535.59155273438</ele>
        <time>2013-05-26T10:19:30Z</time>
      </trkpt>
      <trkpt lat="45.50414" lon="4.70824">
        <ele>535.11096191406</ele>
        <time>2013-05-26T10:19:35Z</time>
      </trkpt>
      <trkpt lat="45.50416" lon="4.7086">
        <ele>534.14965820312</ele>
        <time>2013-05-26T10:19:40Z</time>
      </trkpt>
      <trkpt lat="45.50416" lon="4.70867">
        <ele>534.14965820312</ele>
        <time>2013-05-26T10:19:41Z</time>
      </trkpt>
      <trkpt lat="45.50418" lon="4.70909">
        <ele>532.22705078125</ele>
        <time>2013-05-26T10:19:50Z</time>
      </trkpt>
      <trkpt lat="45.50418" lon="4.70915">
        <ele>532.70776367188</ele>
        <time>2013-05-26T10:19:53Z</time>
      </trkpt>
      <trkpt lat="45.50419" lon="4.70926">
        <ele>531.74633789062</ele>
        <time>2013-05-26T10:19:57Z</time>
      </trkpt>
      <trkpt lat="45.50427" lon="4.70958">
        <ele>532.70776367188</ele>
        <time>2013-05-26T10:20:04Z</time>
      </trkpt>
      <trkpt lat="45.50456" lon="4.71019">
        <ele>535.59155273438</ele>
        <time>2013-05-26T10:20:18Z</time>
      </trkpt>
      <trkpt lat="45.50479" lon="4.71068">
        <ele>538.95629882812</ele>
        <time>2013-05-26T10:20:31Z</time>
      </trkpt>
      <trkpt lat="45.50515" lon="4.71148">
        <ele>540.39831542969</ele>
        <time>2013-05-26T10:20:50Z</time>
      </trkpt>
      <trkpt lat="45.50523" lon="4.71155">
        <ele>538.95629882812</ele>
        <time>2013-05-26T10:20:53Z</time>
      </trkpt>
      <trkpt lat="45.50524" lon="4.71161">
        <ele>538.47570800781</ele>
        <time>2013-05-26T10:20:57Z</time>
      </trkpt>
      <trkpt lat="45.50514" lon="4.71203">
        <ele>539.91760253906</ele>
        <time>2013-05-26T10:21:10Z</time>
      </trkpt>
      <trkpt lat="45.50554" lon="4.71231">
        <ele>537.99499511719</ele>
        <time>2013-05-26T10:21:24Z</time>
      </trkpt>
      <trkpt lat="45.50583" lon="4.71237">
        <ele>539.43688964844</ele>
        <time>2013-05-26T10:21:34Z</time>
      </trkpt>
      <trkpt lat="45.50639" lon="4.71293">
        <ele>541.35949707031</ele>
        <time>2013-05-26T10:21:51Z</time>
      </trkpt>
      <trkpt lat="45.50705" lon="4.71351">
        <ele>543.28210449219</ele>
        <time>2013-05-26T10:22:13Z</time>
      </trkpt>
      <trkpt lat="45.50744" lon="4.71368">
        <ele>542.32092285156</ele>
        <time>2013-05-26T10:22:24Z</time>
      </trkpt>
      <trkpt lat="45.50795" lon="4.71401">
        <ele>538.47570800781</ele>
        <time>2013-05-26T10:22:34Z</time>
      </trkpt>
      <trkpt lat="45.50837" lon="4.71428">
        <ele>535.59155273438</ele>
        <time>2013-05-26T10:22:40Z</time>
      </trkpt>
      <trkpt lat="45.50895" lon="4.71473">
        <ele>531.74633789062</ele>
        <time>2013-05-26T10:22:49Z</time>
      </trkpt>
      <trkpt lat="45.509" lon="4.71478">
        <ele>531.74633789062</ele>
        <time>2013-05-26T10:22:50Z</time>
      </trkpt>
      <trkpt lat="45.5096" lon="4.71546">
        <ele>531.26574707031</ele>
        <time>2013-05-26T10:23:02Z</time>
      </trkpt>
      <trkpt lat="45.50971" lon="4.71558">
        <ele>529.34313964844</ele>
        <time>2013-05-26T10:23:04Z</time>
      </trkpt>
      <trkpt lat="45.51005" lon="4.71579">
        <ele>525.97839355469</ele>
        <time>2013-05-26T10:23:09Z</time>
      </trkpt>
      <trkpt lat="45.51041" lon="4.71602">
        <ele>522.61389160156</ele>
        <time>2013-05-26T10:23:14Z</time>
      </trkpt>
      <trkpt lat="45.51057" lon="4.71609">
        <ele>521.17199707031</ele>
        <time>2013-05-26T10:23:16Z</time>
      </trkpt>
      <trkpt lat="45.51065" lon="4.71613">
        <ele>519.72985839844</ele>
        <time>2013-05-26T10:23:17Z</time>
      </trkpt>
      <trkpt lat="45.51088" lon="4.7163">
        <ele>516.365234375</ele>
        <time>2013-05-26T10:23:20Z</time>
      </trkpt>
      <trkpt lat="45.51109" lon="4.71652">
        <ele>513.00073242188</ele>
        <time>2013-05-26T10:23:23Z</time>
      </trkpt>
      <trkpt lat="45.51115" lon="4.71659">
        <ele>510.11669921875</ele>
        <time>2013-05-26T10:23:24Z</time>
      </trkpt>
      <trkpt lat="45.51131" lon="4.71679">
        <ele>505.79089355469</ele>
        <time>2013-05-26T10:23:27Z</time>
      </trkpt>
      <trkpt lat="45.51145" lon="4.71696">
        <ele>503.38745117188</ele>
        <time>2013-05-26T10:23:30Z</time>
      </trkpt>
      <trkpt lat="45.51154" lon="4.71707">
        <ele>500.02294921875</ele>
        <time>2013-05-26T10:23:32Z</time>
      </trkpt>
      <trkpt lat="45.51165" lon="4.71723">
        <ele>496.65832519531</ele>
        <time>2013-05-26T10:23:35Z</time>
      </trkpt>
      <trkpt lat="45.51169" lon="4.71728">
        <ele>495.69689941406</ele>
        <time>2013-05-26T10:23:36Z</time>
      </trkpt>
      <trkpt lat="45.5118" lon="4.71741">
        <ele>492.33239746094</ele>
        <time>2013-05-26T10:23:39Z</time>
      </trkpt>
      <trkpt lat="45.51192" lon="4.71759">
        <ele>488.00646972656</ele>
        <time>2013-05-26T10:23:43Z</time>
      </trkpt>
      <trkpt lat="45.51202" lon="4.71777">
        <ele>484.1611328125</ele>
        <time>2013-05-26T10:23:47Z</time>
      </trkpt>
      <trkpt lat="45.51212" lon="4.71796">
        <ele>480.79663085938</ele>
        <time>2013-05-26T10:23:51Z</time>
      </trkpt>
      <trkpt lat="45.51216" lon="4.71803">
        <ele>480.31591796875</ele>
        <time>2013-05-26T10:23:53Z</time>
      </trkpt>
      <trkpt lat="45.51216" lon="4.71803">
        <ele>478.87390136719</ele>
        <time>2013-05-26T10:24:04Z</time>
      </trkpt>
      <trkpt lat="45.51216" lon="4.71803">
        <ele>478.87390136719</ele>
        <time>2013-05-26T10:24:34Z</time>
      </trkpt>
      <trkpt lat="45.51214" lon="4.71803">
        <ele>479.3544921875</ele>
        <time>2013-05-26T10:25:03Z</time>
      </trkpt>
      <trkpt lat="45.51214" lon="4.71803">
        <ele>478.87390136719</ele>
        <time>2013-05-26T10:28:13Z</time>
      </trkpt>
      <trkpt lat="45.51217" lon="4.71804">
        <ele>479.3544921875</ele>
        <time>2013-05-26T10:28:50Z</time>
      </trkpt>
      <trkpt lat="45.51242" lon="4.71825">
        <ele>475.02868652344</ele>
        <time>2013-05-26T10:28:55Z</time>
      </trkpt>
      <trkpt lat="45.51257" lon="4.71835">
        <ele>472.14465332031</ele>
        <time>2013-05-26T10:28:57Z</time>
      </trkpt>
      <trkpt lat="45.5127" lon="4.71844">
        <ele>468.29931640625</ele>
        <time>2013-05-26T10:28:59Z</time>
      </trkpt>
      <trkpt lat="45.51287" lon="4.7185">
        <ele>462.53137207031</ele>
        <time>2013-05-26T10:29:02Z</time>
      </trkpt>
      <trkpt lat="45.51301" lon="4.71856">
        <ele>459.64758300781</ele>
        <time>2013-05-26T10:29:05Z</time>
      </trkpt>
      <trkpt lat="45.5132" lon="4.71859">
        <ele>458.68615722656</ele>
        <time>2013-05-26T10:29:08Z</time>
      </trkpt>
      <trkpt lat="45.51346" lon="4.71852">
        <ele>454.8408203125</ele>
        <time>2013-05-26T10:29:11Z</time>
      </trkpt>
      <trkpt lat="45.51392" lon="4.71837">
        <ele>450.99560546875</ele>
        <time>2013-05-26T10:29:16Z</time>
      </trkpt>
      <trkpt lat="45.51424" lon="4.71817">
        <ele>447.63098144531</ele>
        <time>2013-05-26T10:29:20Z</time>
      </trkpt>
      <trkpt lat="45.5143" lon="4.71813">
        <ele>446.18908691406</ele>
        <time>2013-05-26T10:29:21Z</time>
      </trkpt>
      <trkpt lat="45.5144" lon="4.7181">
        <ele>445.22766113281</ele>
        <time>2013-05-26T10:29:23Z</time>
      </trkpt>
      <trkpt lat="45.51448" lon="4.71816">
        <ele>443.78576660156</ele>
        <time>2013-05-26T10:29:25Z</time>
      </trkpt>
      <trkpt lat="45.51463" lon="4.71853">
        <ele>439.9404296875</ele>
        <time>2013-05-26T10:29:29Z</time>
      </trkpt>
      <trkpt lat="45.51497" lon="4.71884">
        <ele>436.09521484375</ele>
        <time>2013-05-26T10:29:33Z</time>
      </trkpt>
      <trkpt lat="45.51519" lon="4.71891">
        <ele>432.25</ele>
        <time>2013-05-26T10:29:35Z</time>
      </trkpt>
      <trkpt lat="45.51552" lon="4.71906">
        <ele>426.96276855469</ele>
        <time>2013-05-26T10:29:38Z</time>
      </trkpt>
      <trkpt lat="45.51562" lon="4.71914">
        <ele>425.04016113281</ele>
        <time>2013-05-26T10:29:39Z</time>
      </trkpt>
      <trkpt lat="45.51586" lon="4.71945">
        <ele>419.27221679688</ele>
        <time>2013-05-26T10:29:42Z</time>
      </trkpt>
      <trkpt lat="45.51592" lon="4.71957">
        <ele>417.349609375</ele>
        <time>2013-05-26T10:29:43Z</time>
      </trkpt>
      <trkpt lat="45.51606" lon="4.71994">
        <ele>412.06225585938</ele>
        <time>2013-05-26T10:29:46Z</time>
      </trkpt>
      <trkpt lat="45.51613" lon="4.72017">
        <ele>408.21704101562</ele>
        <time>2013-05-26T10:29:49Z</time>
      </trkpt>
      <trkpt lat="45.51615" lon="4.72023">
        <ele>406.29431152344</ele>
        <time>2013-05-26T10:29:51Z</time>
      </trkpt>
      <trkpt lat="45.51614" lon="4.72021">
        <ele>406.77490234375</ele>
        <time>2013-05-26T10:30:13Z</time>
      </trkpt>
      <trkpt lat="45.51615" lon="4.72021">
        <ele>406.77490234375</ele>
        <time>2013-05-26T10:30:14Z</time>
      </trkpt>
      <trkpt lat="45.51622" lon="4.72014">
        <ele>406.77490234375</ele>
        <time>2013-05-26T10:30:19Z</time>
      </trkpt>
      <trkpt lat="45.51652" lon="4.71938">
        <ele>408.69763183594</ele>
        <time>2013-05-26T10:30:33Z</time>
      </trkpt>
      <trkpt lat="45.51662" lon="4.7191">
        <ele>407.736328125</ele>
        <time>2013-05-26T10:30:43Z</time>
      </trkpt>
      <trkpt lat="45.51668" lon="4.71883">
        <ele>409.65905761719</ele>
        <time>2013-05-26T10:30:59Z</time>
      </trkpt>
      <trkpt lat="45.51676" lon="4.71803">
        <ele>412.06225585938</ele>
        <time>2013-05-26T10:31:15Z</time>
      </trkpt>
      <trkpt lat="45.51673" lon="4.71763">
        <ele>411.10095214844</ele>
        <time>2013-05-26T10:31:27Z</time>
      </trkpt>
      <trkpt lat="45.51681" lon="4.71762">
        <ele>411.10095214844</ele>
        <time>2013-05-26T10:31:32Z</time>
      </trkpt>
      <trkpt lat="45.51717" lon="4.71736">
        <ele>406.77490234375</ele>
        <time>2013-05-26T10:31:43Z</time>
      </trkpt>
      <trkpt lat="45.51721" lon="4.71733">
        <ele>406.77490234375</ele>
        <time>2013-05-26T10:31:44Z</time>
      </trkpt>
      <trkpt lat="45.51757" lon="4.71705">
        <ele>402.44909667969</ele>
        <time>2013-05-26T10:31:52Z</time>
      </trkpt>
      <trkpt lat="45.51762" lon="4.71702">
        <ele>402.44909667969</ele>
        <time>2013-05-26T10:31:53Z</time>
      </trkpt>
      <trkpt lat="45.51789" lon="4.71685">
        <ele>400.52648925781</ele>
        <time>2013-05-26T10:31:58Z</time>
      </trkpt>
      <trkpt lat="45.51819" lon="4.71665">
        <ele>397.16174316406</ele>
        <time>2013-05-26T10:32:05Z</time>
      </trkpt>
      <trkpt lat="45.51854" lon="4.71642">
        <ele>395.23913574219</ele>
        <time>2013-05-26T10:32:13Z</time>
      </trkpt>
      <trkpt lat="45.51868" lon="4.71631">
        <ele>393.31652832031</ele>
        <time>2013-05-26T10:32:22Z</time>
      </trkpt>
      <trkpt lat="45.51884" lon="4.71617">
        <ele>392.8359375</ele>
        <time>2013-05-26T10:32:37Z</time>
      </trkpt>
      <trkpt lat="45.51911" lon="4.71565">
        <ele>389.95190429688</ele>
        <time>2013-05-26T10:32:54Z</time>
      </trkpt>
      <trkpt lat="45.51934" lon="4.71527">
        <ele>388.51000976562</ele>
        <time>2013-05-26T10:33:10Z</time>
      </trkpt>
      <trkpt lat="45.51971" lon="4.71477">
        <ele>385.6259765625</ele>
        <time>2013-05-26T10:33:26Z</time>
      </trkpt>
      <trkpt lat="45.51976" lon="4.7147">
        <ele>384.66479492188</ele>
        <time>2013-05-26T10:33:28Z</time>
      </trkpt>
      <trkpt lat="45.51989" lon="4.7145">
        <ele>382.74206542969</ele>
        <time>2013-05-26T10:33:33Z</time>
      </trkpt>
      <trkpt lat="45.52009" lon="4.71423">
        <ele>379.37744140625</ele>
        <time>2013-05-26T10:33:41Z</time>
      </trkpt>
      <trkpt lat="45.52035" lon="4.7139">
        <ele>377.45483398438</ele>
        <time>2013-05-26T10:33:56Z</time>
      </trkpt>
      <trkpt lat="45.52063" lon="4.71352">
        <ele>373.60949707031</ele>
        <time>2013-05-26T10:34:07Z</time>
      </trkpt>
      <trkpt lat="45.52085" lon="4.71329">
        <ele>370.7255859375</ele>
        <time>2013-05-26T10:34:14Z</time>
      </trkpt>
      <trkpt lat="45.52094" lon="4.71323">
        <ele>369.28369140625</ele>
        <time>2013-05-26T10:34:17Z</time>
      </trkpt>
      <trkpt lat="45.52112" lon="4.71312">
        <ele>365.9189453125</ele>
        <time>2013-05-26T10:34:22Z</time>
      </trkpt>
      <trkpt lat="45.5212" lon="4.71308">
        <ele>364.95764160156</ele>
        <time>2013-05-26T10:34:24Z</time>
      </trkpt>
      <trkpt lat="45.52136" lon="4.71303">
        <ele>363.03503417969</ele>
        <time>2013-05-26T10:34:28Z</time>
      </trkpt>
      <trkpt lat="45.52178" lon="4.71297">
        <ele>359.67041015625</ele>
        <time>2013-05-26T10:34:40Z</time>
      </trkpt>
      <trkpt lat="45.52209" lon="4.71292">
        <ele>356.30578613281</ele>
        <time>2013-05-26T10:34:48Z</time>
      </trkpt>
      <trkpt lat="45.52225" lon="4.71291">
        <ele>354.38317871094</ele>
        <time>2013-05-26T10:34:52Z</time>
      </trkpt>
      <trkpt lat="45.52248" lon="4.71291">
        <ele>351.49914550781</ele>
        <time>2013-05-26T10:34:58Z</time>
      </trkpt>
      <trkpt lat="45.52263" lon="4.71288">
        <ele>347.65393066406</ele>
        <time>2013-05-26T10:35:03Z</time>
      </trkpt>
      <trkpt lat="45.52279" lon="4.7129">
        <ele>343.80859375</ele>
        <time>2013-05-26T10:35:09Z</time>
      </trkpt>
      <trkpt lat="45.52291" lon="4.71286">
        <ele>340.44409179688</ele>
        <time>2013-05-26T10:35:17Z</time>
      </trkpt>
      <trkpt lat="45.52292" lon="4.71286">
        <ele>339.96337890625</ele>
        <time>2013-05-26T10:35:18Z</time>
      </trkpt>
      <trkpt lat="45.52299" lon="4.7128">
        <ele>336.59887695312</ele>
        <time>2013-05-26T10:35:24Z</time>
      </trkpt>
      <trkpt lat="45.52305" lon="4.71272">
        <ele>334.67614746094</ele>
        <time>2013-05-26T10:35:28Z</time>
      </trkpt>
      <trkpt lat="45.5231" lon="4.71267">
        <ele>333.23413085938</ele>
        <time>2013-05-26T10:35:31Z</time>
      </trkpt>
      <trkpt lat="45.52334" lon="4.7126">
        <ele>334.19543457031</ele>
        <time>2013-05-26T10:35:41Z</time>
      </trkpt>
      <trkpt lat="45.5235" lon="4.71267">
        <ele>335.15673828125</ele>
        <time>2013-05-26T10:35:50Z</time>
      </trkpt>
      <trkpt lat="45.52365" lon="4.71282">
        <ele>337.07946777344</ele>
        <time>2013-05-26T10:36:21Z</time>
      </trkpt>
      <trkpt lat="45.52396" lon="4.71305">
        <ele>339.00207519531</ele>
        <time>2013-05-26T10:36:37Z</time>
      </trkpt>
      <trkpt lat="45.52405" lon="4.7131">
        <ele>340.44409179688</ele>
        <time>2013-05-26T10:36:45Z</time>
      </trkpt>
      <trkpt lat="45.52409" lon="4.71301">
        <ele>341.88598632812</ele>
        <time>2013-05-26T10:36:51Z</time>
      </trkpt>
      <trkpt lat="45.52412" lon="4.71293">
        <ele>342.84729003906</ele>
        <time>2013-05-26T10:37:02Z</time>
      </trkpt>
      <trkpt lat="45.52413" lon="4.71292">
        <ele>342.84729003906</ele>
        <time>2013-05-26T10:37:03Z</time>
      </trkpt>
      <trkpt lat="45.52415" lon="4.71288">
        <ele>343.32788085938</ele>
        <time>2013-05-26T10:37:07Z</time>
      </trkpt>
      <trkpt lat="45.52416" lon="4.71284">
        <ele>344.28942871094</ele>
        <time>2013-05-26T10:37:12Z</time>
      </trkpt>
      <trkpt lat="45.52419" lon="4.7128">
        <ele>345.25061035156</ele>
        <time>2013-05-26T10:37:16Z</time>
      </trkpt>
      <trkpt lat="45.52422" lon="4.71275">
        <ele>345.73132324219</ele>
        <time>2013-05-26T10:37:19Z</time>
      </trkpt>
      <trkpt lat="45.52438" lon="4.71259">
        <ele>348.615234375</ele>
        <time>2013-05-26T10:37:36Z</time>
      </trkpt>
      <trkpt lat="45.52444" lon="4.71252">
        <ele>349.57653808594</ele>
        <time>2013-05-26T10:37:49Z</time>
      </trkpt>
      <trkpt lat="45.52455" lon="4.71238">
        <ele>351.49914550781</ele>
        <time>2013-05-26T10:38:07Z</time>
      </trkpt>
      <trkpt lat="45.52467" lon="4.71226">
        <ele>353.90258789062</ele>
        <time>2013-05-26T10:38:29Z</time>
      </trkpt>
      <trkpt lat="45.52475" lon="4.71218">
        <ele>355.8251953125</ele>
        <time>2013-05-26T10:38:43Z</time>
      </trkpt>
      <trkpt lat="45.52495" lon="4.71202">
        <ele>357.26708984375</ele>
        <time>2013-05-26T10:39:02Z</time>
      </trkpt>
      <trkpt lat="45.52502" lon="4.71196">
        <ele>358.708984375</ele>
        <time>2013-05-26T10:39:16Z</time>
      </trkpt>
      <trkpt lat="45.52506" lon="4.71194">
        <ele>360.15112304688</ele>
        <time>2013-05-26T10:39:22Z</time>
      </trkpt>
      <trkpt lat="45.52532" lon="4.71175">
        <ele>363.51574707031</ele>
        <time>2013-05-26T10:39:43Z</time>
      </trkpt>
      <trkpt lat="45.52566" lon="4.71151">
        <ele>365.43835449219</ele>
        <time>2013-05-26T10:40:05Z</time>
      </trkpt>
      <trkpt lat="45.52578" lon="4.71136">
        <ele>364.95764160156</ele>
        <time>2013-05-26T10:40:13Z</time>
      </trkpt>
      <trkpt lat="45.52577" lon="4.71134">
        <ele>364.47692871094</ele>
        <time>2013-05-26T10:40:28Z</time>
      </trkpt>
      <trkpt lat="45.52576" lon="4.71135">
        <ele>364.95764160156</ele>
        <time>2013-05-26T10:40:59Z</time>
      </trkpt>
      <trkpt lat="45.52578" lon="4.71136">
        <ele>364.47692871094</ele>
        <time>2013-05-26T10:41:13Z</time>
      </trkpt>
      <trkpt lat="45.52575" lon="4.71136">
        <ele>364.47692871094</ele>
        <time>2013-05-26T10:41:43Z</time>
      </trkpt>
      <trkpt lat="45.52575" lon="4.71136">
        <ele>364.95764160156</ele>
        <time>2013-05-26T10:42:42Z</time>
      </trkpt>
      <trkpt lat="45.52576" lon="4.71136">
        <ele>364.95764160156</ele>
        <time>2013-05-26T10:43:54Z</time>
      </trkpt>
      <trkpt lat="45.52577" lon="4.71134">
        <ele>364.95764160156</ele>
        <time>2013-05-26T10:44:43Z</time>
      </trkpt>
      <trkpt lat="45.52577" lon="4.71134">
        <ele>365.43835449219</ele>
        <time>2013-05-26T10:45:00Z</time>
      </trkpt>
      <trkpt lat="45.52581" lon="4.71129">
        <ele>364.95764160156</ele>
        <time>2013-05-26T10:45:22Z</time>
      </trkpt>
      <trkpt lat="45.52607" lon="4.711">
        <ele>364.47692871094</ele>
        <time>2013-05-26T10:45:41Z</time>
      </trkpt>
      <trkpt lat="45.52627" lon="4.71094">
        <ele>363.51574707031</ele>
        <time>2013-05-26T10:45:56Z</time>
      </trkpt>
      <trkpt lat="45.52626" lon="4.71094">
        <ele>363.51574707031</ele>
        <time>2013-05-26T10:46:00Z</time>
      </trkpt>
      <trkpt lat="45.52635" lon="4.71137">
        <ele>363.99633789062</ele>
        <time>2013-05-26T10:46:15Z</time>
      </trkpt>
      <trkpt lat="45.52656" lon="4.71161">
        <ele>364.47692871094</ele>
        <time>2013-05-26T10:46:28Z</time>
      </trkpt>
      <trkpt lat="45.52695" lon="4.71147">
        <ele>363.51574707031</ele>
        <time>2013-05-26T10:46:39Z</time>
      </trkpt>
      <trkpt lat="45.52699" lon="4.71143">
        <ele>363.51574707031</ele>
        <time>2013-05-26T10:46:44Z</time>
      </trkpt>
      <trkpt lat="45.52715" lon="4.71102">
        <ele>360.15112304688</ele>
        <time>2013-05-26T10:46:59Z</time>
      </trkpt>
      <trkpt lat="45.52734" lon="4.71068">
        <ele>358.22839355469</ele>
        <time>2013-05-26T10:47:03Z</time>
      </trkpt>
      <trkpt lat="45.52752" lon="4.71051">
        <ele>354.86376953125</ele>
        <time>2013-05-26T10:47:08Z</time>
      </trkpt>
      <trkpt lat="45.52755" lon="4.71051">
        <ele>354.38317871094</ele>
        <time>2013-05-26T10:47:24Z</time>
      </trkpt>
      <trkpt lat="45.52754" lon="4.71051">
        <ele>353.90258789062</ele>
        <time>2013-05-26T10:47:37Z</time>
      </trkpt>
      <trkpt lat="45.52756" lon="4.71047">
        <ele>353.421875</ele>
        <time>2013-05-26T10:47:40Z</time>
      </trkpt>
      <trkpt lat="45.5277" lon="4.71033">
        <ele>350.53784179688</ele>
        <time>2013-05-26T10:47:48Z</time>
      </trkpt>
      <trkpt lat="45.52796" lon="4.71014">
        <ele>347.17321777344</ele>
        <time>2013-05-26T10:47:57Z</time>
      </trkpt>
      <trkpt lat="45.52827" lon="4.70993">
        <ele>345.25061035156</ele>
        <time>2013-05-26T10:48:07Z</time>
      </trkpt>
      <trkpt lat="45.52834" lon="4.70988">
        <ele>343.80859375</ele>
        <time>2013-05-26T10:48:10Z</time>
      </trkpt>
      <trkpt lat="45.52839" lon="4.70984">
        <ele>342.84729003906</ele>
        <time>2013-05-26T10:48:13Z</time>
      </trkpt>
      <trkpt lat="45.5286" lon="4.70963">
        <ele>340.44409179688</ele>
        <time>2013-05-26T10:48:25Z</time>
      </trkpt>
      <trkpt lat="45.52889" lon="4.70937">
        <ele>337.07946777344</ele>
        <time>2013-05-26T10:48:36Z</time>
      </trkpt>
      <trkpt lat="45.52922" lon="4.70897">
        <ele>333.71472167969</ele>
        <time>2013-05-26T10:48:48Z</time>
      </trkpt>
      <trkpt lat="45.52945" lon="4.70871">
        <ele>330.83093261719</ele>
        <time>2013-05-26T10:48:55Z</time>
      </trkpt>
      <trkpt lat="45.52952" lon="4.70863">
        <ele>329.38891601562</ele>
        <time>2013-05-26T10:48:57Z</time>
      </trkpt>
      <trkpt lat="45.52981" lon="4.70836">
        <ele>326.5048828125</ele>
        <time>2013-05-26T10:49:04Z</time>
      </trkpt>
      <trkpt lat="45.53004" lon="4.70817">
        <ele>324.1015625</ele>
        <time>2013-05-26T10:49:10Z</time>
      </trkpt>
      <trkpt lat="45.53025" lon="4.70792">
        <ele>320.25634765625</ele>
        <time>2013-05-26T10:49:16Z</time>
      </trkpt>
      <trkpt lat="45.53036" lon="4.70778">
        <ele>317.85302734375</ele>
        <time>2013-05-26T10:49:19Z</time>
      </trkpt>
      <trkpt lat="45.53043" lon="4.7077">
        <ele>314.48840332031</ele>
        <time>2013-05-26T10:49:21Z</time>
      </trkpt>
      <trkpt lat="45.53046" lon="4.70766">
        <ele>313.04650878906</ele>
        <time>2013-05-26T10:49:22Z</time>
      </trkpt>
      <trkpt lat="45.53064" lon="4.7076">
        <ele>308.23986816406</ele>
        <time>2013-05-26T10:49:27Z</time>
      </trkpt>
      <trkpt lat="45.53067" lon="4.70763">
        <ele>308.23986816406</ele>
        <time>2013-05-26T10:49:28Z</time>
      </trkpt>
      <trkpt lat="45.5307" lon="4.70782">
        <ele>304.87524414062</ele>
        <time>2013-05-26T10:49:32Z</time>
      </trkpt>
      <trkpt lat="45.5307" lon="4.70792">
        <ele>303.43322753906</ele>
        <time>2013-05-26T10:49:34Z</time>
      </trkpt>
      <trkpt lat="45.5307" lon="4.70801">
        <ele>302.47192382812</ele>
        <time>2013-05-26T10:49:36Z</time>
      </trkpt>
      <trkpt lat="45.5307" lon="4.70816">
        <ele>300.54931640625</ele>
        <time>2013-05-26T10:49:39Z</time>
      </trkpt>
      <trkpt lat="45.53069" lon="4.7083">
        <ele>299.58801269531</ele>
        <time>2013-05-26T10:49:41Z</time>
      </trkpt>
      <trkpt lat="45.53068" lon="4.70847">
        <ele>298.14611816406</ele>
        <time>2013-05-26T10:49:43Z</time>
      </trkpt>
      <trkpt lat="45.53074" lon="4.70883">
        <ele>294.78137207031</ele>
        <time>2013-05-26T10:49:48Z</time>
      </trkpt>
      <trkpt lat="45.53074" lon="4.70889">
        <ele>293.82006835938</ele>
        <time>2013-05-26T10:49:50Z</time>
      </trkpt>
      <trkpt lat="45.53065" lon="4.70899">
        <ele>292.37817382812</ele>
        <time>2013-05-26T10:50:02Z</time>
      </trkpt>
      <trkpt lat="45.53065" lon="4.709">
        <ele>292.37817382812</ele>
        <time>2013-05-26T10:50:59Z</time>
      </trkpt>
      <trkpt lat="45.53065" lon="4.70901">
        <ele>291.8974609375</ele>
        <time>2013-05-26T10:51:18Z</time>
      </trkpt>
      <trkpt lat="45.53073" lon="4.70918">
        <ele>289.494140625</ele>
        <time>2013-05-26T10:51:26Z</time>
      </trkpt>
      <trkpt lat="45.53074" lon="4.7093">
        <ele>289.01354980469</ele>
        <time>2013-05-26T10:51:31Z</time>
      </trkpt>
      <trkpt lat="45.53087" lon="4.70947">
        <ele>289.01354980469</ele>
        <time>2013-05-26T10:51:45Z</time>
      </trkpt>
      <trkpt lat="45.53088" lon="4.70947">
        <ele>288.05224609375</ele>
        <time>2013-05-26T10:51:47Z</time>
      </trkpt>
      <trkpt lat="45.53096" lon="4.70947">
        <ele>289.01354980469</ele>
        <time>2013-05-26T10:51:57Z</time>
      </trkpt>
      <trkpt lat="45.53101" lon="4.70954">
        <ele>289.97485351562</ele>
        <time>2013-05-26T10:52:10Z</time>
      </trkpt>
      <trkpt lat="45.53102" lon="4.70953">
        <ele>292.85876464844</ele>
        <time>2013-05-26T10:54:59Z</time>
      </trkpt>
      <trkpt lat="45.53108" lon="4.7093">
        <ele>295.74267578125</ele>
        <time>2013-05-26T10:55:18Z</time>
      </trkpt>
      <trkpt lat="45.53115" lon="4.70921">
        <ele>298.14611816406</ele>
        <time>2013-05-26T10:55:34Z</time>
      </trkpt>
      <trkpt lat="45.53114" lon="4.70922">
        <ele>298.62670898438</ele>
        <time>2013-05-26T10:55:58Z</time>
      </trkpt>
      <trkpt lat="45.53113" lon="4.70922">
        <ele>298.14611816406</ele>
        <time>2013-05-26T10:57:31Z</time>
      </trkpt>
      <trkpt lat="45.53109" lon="4.70922">
        <ele>297.66540527344</ele>
        <time>2013-05-26T10:57:45Z</time>
      </trkpt>
      <trkpt lat="45.53104" lon="4.70944">
        <ele>294.30078125</ele>
        <time>2013-05-26T10:57:55Z</time>
      </trkpt>
      <trkpt lat="45.53101" lon="4.70959">
        <ele>292.85876464844</ele>
        <time>2013-05-26T10:58:07Z</time>
      </trkpt>
      <trkpt lat="45.531" lon="4.70953">
        <ele>292.37817382812</ele>
        <time>2013-05-26T10:58:46Z</time>
      </trkpt>
      <trkpt lat="45.531" lon="4.70953">
        <ele>293.33935546875</ele>
        <time>2013-05-26T10:59:02Z</time>
      </trkpt>
      <trkpt lat="45.5309" lon="4.70947">
        <ele>292.85876464844</ele>
        <time>2013-05-26T10:59:14Z</time>
      </trkpt>
      <trkpt lat="45.53083" lon="4.70946">
        <ele>293.82006835938</ele>
        <time>2013-05-26T10:59:27Z</time>
      </trkpt>
      <trkpt lat="45.53077" lon="4.70954">
        <ele>295.74267578125</ele>
        <time>2013-05-26T10:59:41Z</time>
      </trkpt>
      <trkpt lat="45.53075" lon="4.7096">
        <ele>295.26196289062</ele>
        <time>2013-05-26T10:59:58Z</time>
      </trkpt>
      <trkpt lat="45.53076" lon="4.70966">
        <ele>293.82006835938</ele>
        <time>2013-05-26T11:00:19Z</time>
      </trkpt>
      <trkpt lat="45.53073" lon="4.70962">
        <ele>296.7041015625</ele>
        <time>2013-05-26T11:00:55Z</time>
      </trkpt>
      <trkpt lat="45.53074" lon="4.70959">
        <ele>297.18469238281</ele>
        <time>2013-05-26T11:00:58Z</time>
      </trkpt>
      <trkpt lat="45.53093" lon="4.70952">
        <ele>293.33935546875</ele>
        <time>2013-05-26T11:01:10Z</time>
      </trkpt>
      <trkpt lat="45.53099" lon="4.70948">
        <ele>294.78137207031</ele>
        <time>2013-05-26T11:01:22Z</time>
      </trkpt>
      <trkpt lat="45.53103" lon="4.70951">
        <ele>295.74267578125</ele>
        <time>2013-05-26T11:01:35Z</time>
      </trkpt>
      <trkpt lat="45.53108" lon="4.70936">
        <ele>299.10729980469</ele>
        <time>2013-05-26T11:01:46Z</time>
      </trkpt>
      <trkpt lat="45.53113" lon="4.70923">
        <ele>300.54931640625</ele>
        <time>2013-05-26T11:02:00Z</time>
      </trkpt>
      <trkpt lat="45.53114" lon="4.70923">
        <ele>301.02990722656</ele>
        <time>2013-05-26T11:02:02Z</time>
      </trkpt>
      <trkpt lat="45.53113" lon="4.7093">
        <ele>301.99133300781</ele>
        <time>2013-05-26T11:02:16Z</time>
      </trkpt>
      <trkpt lat="45.53114" lon="4.70957">
        <ele>304.87524414062</ele>
        <time>2013-05-26T11:02:33Z</time>
      </trkpt>
      <trkpt lat="45.53116" lon="4.70967">
        <ele>306.31726074219</ele>
        <time>2013-05-26T11:02:44Z</time>
      </trkpt>
      <trkpt lat="45.53123" lon="4.70983">
        <ele>308.23986816406</ele>
        <time>2013-05-26T11:02:56Z</time>
      </trkpt>
      <trkpt lat="45.53124" lon="4.70984">
        <ele>308.23986816406</ele>
        <time>2013-05-26T11:02:57Z</time>
      </trkpt>
      <trkpt lat="45.5313" lon="4.71006">
        <ele>311.6044921875</ele>
        <time>2013-05-26T11:03:11Z</time>
      </trkpt>
      <trkpt lat="45.53136" lon="4.71022">
        <ele>314.48840332031</ele>
        <time>2013-05-26T11:03:24Z</time>
      </trkpt>
      <trkpt lat="45.53142" lon="4.71018">
        <ele>315.93041992188</ele>
        <time>2013-05-26T11:03:37Z</time>
      </trkpt>
      <trkpt lat="45.53144" lon="4.71017">
        <ele>316.89172363281</ele>
        <time>2013-05-26T11:03:40Z</time>
      </trkpt>
      <trkpt lat="45.53146" lon="4.71007">
        <ele>317.37243652344</ele>
        <time>2013-05-26T11:03:49Z</time>
      </trkpt>
      <trkpt lat="45.53149" lon="4.70994">
        <ele>318.33361816406</ele>
        <time>2013-05-26T11:03:56Z</time>
      </trkpt>
      <trkpt lat="45.53149" lon="4.70976">
        <ele>321.2177734375</ele>
        <time>2013-05-26T11:04:06Z</time>
      </trkpt>
      <trkpt lat="45.53147" lon="4.70974">
        <ele>321.2177734375</ele>
        <time>2013-05-26T11:04:18Z</time>
      </trkpt>
      <trkpt lat="45.53146" lon="4.70957">
        <ele>323.62097167969</ele>
        <time>2013-05-26T11:04:38Z</time>
      </trkpt>
      <trkpt lat="45.53146" lon="4.70951">
        <ele>325.54357910156</ele>
        <time>2013-05-26T11:04:57Z</time>
      </trkpt>
      <trkpt lat="45.53152" lon="4.70916">
        <ele>328.90832519531</ele>
        <time>2013-05-26T11:05:22Z</time>
      </trkpt>
      <trkpt lat="45.53159" lon="4.70901">
        <ele>330.35021972656</ele>
        <time>2013-05-26T11:05:44Z</time>
      </trkpt>
      <trkpt lat="45.53159" lon="4.709">
        <ele>330.83093261719</ele>
        <time>2013-05-26T11:05:48Z</time>
      </trkpt>
      <trkpt lat="45.53163" lon="4.70895">
        <ele>331.79211425781</ele>
        <time>2013-05-26T11:06:37Z</time>
      </trkpt>
      <trkpt lat="45.53175" lon="4.70875">
        <ele>334.67614746094</ele>
        <time>2013-05-26T11:06:49Z</time>
      </trkpt>
      <trkpt lat="45.53187" lon="4.70857">
        <ele>336.59887695312</ele>
        <time>2013-05-26T11:07:06Z</time>
      </trkpt>
      <trkpt lat="45.53195" lon="4.70848">
        <ele>338.04077148438</ele>
        <time>2013-05-26T11:07:17Z</time>
      </trkpt>
      <trkpt lat="45.53205" lon="4.7084">
        <ele>339.96337890625</ele>
        <time>2013-05-26T11:07:25Z</time>
      </trkpt>
      <trkpt lat="45.5322" lon="4.70833">
        <ele>341.88598632812</ele>
        <time>2013-05-26T11:07:38Z</time>
      </trkpt>
      <trkpt lat="45.53228" lon="4.70829">
        <ele>343.32788085938</ele>
        <time>2013-05-26T11:07:44Z</time>
      </trkpt>
      <trkpt lat="45.53243" lon="4.70826">
        <ele>346.69262695312</ele>
        <time>2013-05-26T11:07:56Z</time>
      </trkpt>
      <trkpt lat="45.53245" lon="4.70827">
        <ele>347.17321777344</ele>
        <time>2013-05-26T11:07:58Z</time>
      </trkpt>
      <trkpt lat="45.53247" lon="4.70839">
        <ele>347.65393066406</ele>
        <time>2013-05-26T11:08:07Z</time>
      </trkpt>
      <trkpt lat="45.53248" lon="4.70841">
        <ele>348.13464355469</ele>
        <time>2013-05-26T11:08:09Z</time>
      </trkpt>
      <trkpt lat="45.53253" lon="4.70852">
        <ele>351.01843261719</ele>
        <time>2013-05-26T11:08:18Z</time>
      </trkpt>
      <trkpt lat="45.53261" lon="4.70876">
        <ele>354.38317871094</ele>
        <time>2013-05-26T11:08:33Z</time>
      </trkpt>
      <trkpt lat="45.53264" lon="4.70899">
        <ele>356.30578613281</ele>
        <time>2013-05-26T11:08:45Z</time>
      </trkpt>
      <trkpt lat="45.53271" lon="4.70938">
        <ele>356.30578613281</ele>
        <time>2013-05-26T11:09:06Z</time>
      </trkpt>
      <trkpt lat="45.53279" lon="4.70975">
        <ele>358.708984375</ele>
        <time>2013-05-26T11:09:25Z</time>
      </trkpt>
      <trkpt lat="45.53281" lon="4.7098">
        <ele>358.22839355469</ele>
        <time>2013-05-26T11:09:28Z</time>
      </trkpt>
      <trkpt lat="45.53302" lon="4.70992">
        <ele>358.708984375</ele>
        <time>2013-05-26T11:09:43Z</time>
      </trkpt>
      <trkpt lat="45.53308" lon="4.71041">
        <ele>360.63171386719</ele>
        <time>2013-05-26T11:10:02Z</time>
      </trkpt>
      <trkpt lat="45.53316" lon="4.71104">
        <ele>362.07373046875</ele>
        <time>2013-05-26T11:10:25Z</time>
      </trkpt>
      <trkpt lat="45.53325" lon="4.71165">
        <ele>363.51574707031</ele>
        <time>2013-05-26T11:10:46Z</time>
      </trkpt>
      <trkpt lat="45.53333" lon="4.71249">
        <ele>365.9189453125</ele>
        <time>2013-05-26T11:11:12Z</time>
      </trkpt>
      <trkpt lat="45.53336" lon="4.71284">
        <ele>369.28369140625</ele>
        <time>2013-05-26T11:11:25Z</time>
      </trkpt>
      <trkpt lat="45.53338" lon="4.71343">
        <ele>372.64819335938</ele>
        <time>2013-05-26T11:11:43Z</time>
      </trkpt>
      <trkpt lat="45.53341" lon="4.71382">
        <ele>376.01281738281</ele>
        <time>2013-05-26T11:11:55Z</time>
      </trkpt>
      <trkpt lat="45.53341" lon="4.71385">
        <ele>375.53210449219</ele>
        <time>2013-05-26T11:11:56Z</time>
      </trkpt>
      <trkpt lat="45.53345" lon="4.71431">
        <ele>378.89685058594</ele>
        <time>2013-05-26T11:12:10Z</time>
      </trkpt>
      <trkpt lat="45.5335" lon="4.71471">
        <ele>382.26135253906</ele>
        <time>2013-05-26T11:12:23Z</time>
      </trkpt>
      <trkpt lat="45.53356" lon="4.71503">
        <ele>385.6259765625</ele>
        <time>2013-05-26T11:12:33Z</time>
      </trkpt>
      <trkpt lat="45.53357" lon="4.71506">
        <ele>385.6259765625</ele>
        <time>2013-05-26T11:12:34Z</time>
      </trkpt>
      <trkpt lat="45.53382" lon="4.71582">
        <ele>388.51000976562</ele>
        <time>2013-05-26T11:12:58Z</time>
      </trkpt>
      <trkpt lat="45.53411" lon="4.7164">
        <ele>391.87451171875</ele>
        <time>2013-05-26T11:13:17Z</time>
      </trkpt>
      <trkpt lat="45.53464" lon="4.71717">
        <ele>395.23913574219</ele>
        <time>2013-05-26T11:13:43Z</time>
      </trkpt>
      <trkpt lat="45.53533" lon="4.71816">
        <ele>396.20056152344</ele>
        <time>2013-05-26T11:14:13Z</time>
      </trkpt>
      <trkpt lat="45.53565" lon="4.71871">
        <ele>399.56506347656</ele>
        <time>2013-05-26T11:14:29Z</time>
      </trkpt>
      <trkpt lat="45.53597" lon="4.71972">
        <ele>402.9296875</ele>
        <time>2013-05-26T11:14:53Z</time>
      </trkpt>
      <trkpt lat="45.53644" lon="4.72058">
        <ele>404.85229492188</ele>
        <time>2013-05-26T11:15:16Z</time>
      </trkpt>
      <trkpt lat="45.53718" lon="4.7211">
        <ele>408.21704101562</ele>
        <time>2013-05-26T11:15:41Z</time>
      </trkpt>
      <trkpt lat="45.5374" lon="4.72151">
        <ele>408.69763183594</ele>
        <time>2013-05-26T11:15:56Z</time>
      </trkpt>
      <trkpt lat="45.5374" lon="4.72152">
        <ele>407.736328125</ele>
        <time>2013-05-26T11:16:11Z</time>
      </trkpt>
      <trkpt lat="45.5374" lon="4.72151">
        <ele>408.21704101562</ele>
        <time>2013-05-26T11:18:54Z</time>
      </trkpt>
      <trkpt lat="45.53743" lon="4.72167">
        <ele>409.65905761719</ele>
        <time>2013-05-26T11:19:48Z</time>
      </trkpt>
      <trkpt lat="45.5375" lon="4.72213">
        <ele>413.02355957031</ele>
        <time>2013-05-26T11:20:02Z</time>
      </trkpt>
      <trkpt lat="45.5376" lon="4.72263">
        <ele>416.38818359375</ele>
        <time>2013-05-26T11:20:16Z</time>
      </trkpt>
      <trkpt lat="45.53762" lon="4.72271">
        <ele>416.86889648438</ele>
        <time>2013-05-26T11:20:18Z</time>
      </trkpt>
      <trkpt lat="45.53791" lon="4.72327">
        <ele>419.75280761719</ele>
        <time>2013-05-26T11:20:35Z</time>
      </trkpt>
      <trkpt lat="45.53841" lon="4.7241">
        <ele>423.11743164062</ele>
        <time>2013-05-26T11:21:00Z</time>
      </trkpt>
      <trkpt lat="45.53881" lon="4.72468">
        <ele>426.00134277344</ele>
        <time>2013-05-26T11:21:18Z</time>
      </trkpt>
      <trkpt lat="45.53893" lon="4.72484">
        <ele>427.443359375</ele>
        <time>2013-05-26T11:21:23Z</time>
      </trkpt>
      <trkpt lat="45.53933" lon="4.72539">
        <ele>430.80798339844</ele>
        <time>2013-05-26T11:21:40Z</time>
      </trkpt>
      <trkpt lat="45.5398" lon="4.72589">
        <ele>433.69189453125</ele>
        <time>2013-05-26T11:21:58Z</time>
      </trkpt>
      <trkpt lat="45.54015" lon="4.72623">
        <ele>435.13391113281</ele>
        <time>2013-05-26T11:22:16Z</time>
      </trkpt>
      <trkpt lat="45.54015" lon="4.72625">
        <ele>435.61450195312</ele>
        <time>2013-05-26T11:22:36Z</time>
      </trkpt>
      <trkpt lat="45.54015" lon="4.72625">
        <ele>435.61450195312</ele>
        <time>2013-05-26T11:23:15Z</time>
      </trkpt>
      <trkpt lat="45.54019" lon="4.72627">
        <ele>436.57592773438</ele>
        <time>2013-05-26T11:23:19Z</time>
      </trkpt>
      <trkpt lat="45.54046" lon="4.72647">
        <ele>437.537109375</ele>
        <time>2013-05-26T11:23:33Z</time>
      </trkpt>
      <trkpt lat="45.54045" lon="4.72647">
        <ele>436.09521484375</ele>
        <time>2013-05-26T11:26:36Z</time>
      </trkpt>
      <trkpt lat="45.54037" lon="4.72652">
        <ele>435.61450195312</ele>
        <time>2013-05-26T11:26:43Z</time>
      </trkpt>
      <trkpt lat="45.53986" lon="4.72702">
        <ele>432.73071289062</ele>
        <time>2013-05-26T11:26:58Z</time>
      </trkpt>
      <trkpt lat="45.53937" lon="4.7273">
        <ele>428.88537597656</ele>
        <time>2013-05-26T11:27:06Z</time>
      </trkpt>
      <trkpt lat="45.53892" lon="4.7275">
        <ele>426.00134277344</ele>
        <time>2013-05-26T11:27:13Z</time>
      </trkpt>
      <trkpt lat="45.53863" lon="4.72765">
        <ele>422.63671875</ele>
        <time>2013-05-26T11:27:17Z</time>
      </trkpt>
      <trkpt lat="45.5383" lon="4.72786">
        <ele>419.27221679688</ele>
        <time>2013-05-26T11:27:22Z</time>
      </trkpt>
      <trkpt lat="45.5382" lon="4.72798">
        <ele>418.31079101562</ele>
        <time>2013-05-26T11:27:24Z</time>
      </trkpt>
      <trkpt lat="45.53813" lon="4.72813">
        <ele>417.349609375</ele>
        <time>2013-05-26T11:27:26Z</time>
      </trkpt>
      <trkpt lat="45.53776" lon="4.72837">
        <ele>414.46545410156</ele>
        <time>2013-05-26T11:27:32Z</time>
      </trkpt>
      <trkpt lat="45.53766" lon="4.72844">
        <ele>413.50427246094</ele>
        <time>2013-05-26T11:27:34Z</time>
      </trkpt>
      <trkpt lat="45.53758" lon="4.72851">
        <ele>412.54284667969</ele>
        <time>2013-05-26T11:27:36Z</time>
      </trkpt>
      <trkpt lat="45.53745" lon="4.72865">
        <ele>411.10095214844</ele>
        <time>2013-05-26T11:27:39Z</time>
      </trkpt>
      <trkpt lat="45.53729" lon="4.7289">
        <ele>408.69763183594</ele>
        <time>2013-05-26T11:27:43Z</time>
      </trkpt>
      <trkpt lat="45.53725" lon="4.72896">
        <ele>408.69763183594</ele>
        <time>2013-05-26T11:27:44Z</time>
      </trkpt>
      <trkpt lat="45.53702" lon="4.72911">
        <ele>406.77490234375</ele>
        <time>2013-05-26T11:27:48Z</time>
      </trkpt>
      <trkpt lat="45.53698" lon="4.72914">
        <ele>406.77490234375</ele>
        <time>2013-05-26T11:27:49Z</time>
      </trkpt>
      <trkpt lat="45.53688" lon="4.72921">
        <ele>405.81372070312</ele>
        <time>2013-05-26T11:27:51Z</time>
      </trkpt>
      <trkpt lat="45.53667" lon="4.72929">
        <ele>403.41040039062</ele>
        <time>2013-05-26T11:27:55Z</time>
      </trkpt>
      <trkpt lat="45.53646" lon="4.72939">
        <ele>401.96850585938</ele>
        <time>2013-05-26T11:27:59Z</time>
      </trkpt>
      <trkpt lat="45.53636" lon="4.72945">
        <ele>401.00708007812</ele>
        <time>2013-05-26T11:28:01Z</time>
      </trkpt>
      <trkpt lat="45.53617" lon="4.72959">
        <ele>399.08435058594</ele>
        <time>2013-05-26T11:28:05Z</time>
      </trkpt>
      <trkpt lat="45.5359" lon="4.72982">
        <ele>396.68115234375</ele>
        <time>2013-05-26T11:28:10Z</time>
      </trkpt>
      <trkpt lat="45.53581" lon="4.72986">
        <ele>394.75854492188</ele>
        <time>2013-05-26T11:28:12Z</time>
      </trkpt>
      <trkpt lat="45.53558" lon="4.72991">
        <ele>394.27795410156</ele>
        <time>2013-05-26T11:28:16Z</time>
      </trkpt>
      <trkpt lat="45.53548" lon="4.72996">
        <ele>393.31652832031</ele>
        <time>2013-05-26T11:28:18Z</time>
      </trkpt>
      <trkpt lat="45.53537" lon="4.73002">
        <ele>392.35534667969</ele>
        <time>2013-05-26T11:28:20Z</time>
      </trkpt>
      <trkpt lat="45.53514" lon="4.73009">
        <ele>390.4326171875</ele>
        <time>2013-05-26T11:28:24Z</time>
      </trkpt>
      <trkpt lat="45.53495" lon="4.73015">
        <ele>388.99060058594</ele>
        <time>2013-05-26T11:28:27Z</time>
      </trkpt>
      <trkpt lat="45.53471" lon="4.73028">
        <ele>386.58740234375</ele>
        <time>2013-05-26T11:28:32Z</time>
      </trkpt>
      <trkpt lat="45.53466" lon="4.73031">
        <ele>386.58740234375</ele>
        <time>2013-05-26T11:28:33Z</time>
      </trkpt>
      <trkpt lat="45.53436" lon="4.73044">
        <ele>384.18408203125</ele>
        <time>2013-05-26T11:28:38Z</time>
      </trkpt>
      <trkpt lat="45.5343" lon="4.73046">
        <ele>383.70324707031</ele>
        <time>2013-05-26T11:28:39Z</time>
      </trkpt>
      <trkpt lat="45.53412" lon="4.73057">
        <ele>382.26135253906</ele>
        <time>2013-05-26T11:28:42Z</time>
      </trkpt>
      <trkpt lat="45.53404" lon="4.73099">
        <ele>380.81945800781</ele>
        <time>2013-05-26T11:28:47Z</time>
      </trkpt>
      <trkpt lat="45.53419" lon="4.73141">
        <ele>376.97424316406</ele>
        <time>2013-05-26T11:28:52Z</time>
      </trkpt>
      <trkpt lat="45.53426" lon="4.73161">
        <ele>375.53210449219</ele>
        <time>2013-05-26T11:28:54Z</time>
      </trkpt>
      <trkpt lat="45.53445" lon="4.73197">
        <ele>374.09008789062</ele>
        <time>2013-05-26T11:28:58Z</time>
      </trkpt>
      <trkpt lat="45.53456" lon="4.7322">
        <ele>371.68688964844</ele>
        <time>2013-05-26T11:29:01Z</time>
      </trkpt>
      <trkpt lat="45.53469" lon="4.73256">
        <ele>369.76428222656</ele>
        <time>2013-05-26T11:29:06Z</time>
      </trkpt>
      <trkpt lat="45.53463" lon="4.73273">
        <ele>370.24487304688</ele>
        <time>2013-05-26T11:29:11Z</time>
      </trkpt>
      <trkpt lat="45.53444" lon="4.73275">
        <ele>370.7255859375</ele>
        <time>2013-05-26T11:29:17Z</time>
      </trkpt>
      <trkpt lat="45.53427" lon="4.73259">
        <ele>372.16748046875</ele>
        <time>2013-05-26T11:29:26Z</time>
      </trkpt>
      <trkpt lat="45.53377" lon="4.73243">
        <ele>373.60949707031</ele>
        <time>2013-05-26T11:29:43Z</time>
      </trkpt>
      <trkpt lat="45.53358" lon="4.73286">
        <ele>375.53210449219</ele>
        <time>2013-05-26T11:29:55Z</time>
      </trkpt>
      <trkpt lat="45.53348" lon="4.73336">
        <ele>377.45483398438</ele>
        <time>2013-05-26T11:30:08Z</time>
      </trkpt>
      <trkpt lat="45.53347" lon="4.73365">
        <ele>377.93542480469</ele>
        <time>2013-05-26T11:30:15Z</time>
      </trkpt>
      <trkpt lat="45.53338" lon="4.73403">
        <ele>378.89685058594</ele>
        <time>2013-05-26T11:30:25Z</time>
      </trkpt>
      <trkpt lat="45.53328" lon="4.734">
        <ele>378.89685058594</ele>
        <time>2013-05-26T11:30:32Z</time>
      </trkpt>
      <trkpt lat="45.53329" lon="4.73395">
        <ele>379.37744140625</ele>
        <time>2013-05-26T11:30:34Z</time>
      </trkpt>
      <trkpt lat="45.53329" lon="4.73362">
        <ele>380.81945800781</ele>
        <time>2013-05-26T11:30:44Z</time>
      </trkpt>
      <trkpt lat="45.53328" lon="4.7335">
        <ele>382.26135253906</ele>
        <time>2013-05-26T11:30:47Z</time>
      </trkpt>
      <trkpt lat="45.53323" lon="4.73342">
        <ele>382.74206542969</ele>
        <time>2013-05-26T11:30:49Z</time>
      </trkpt>
      <trkpt lat="45.53319" lon="4.73327">
        <ele>383.70324707031</ele>
        <time>2013-05-26T11:30:53Z</time>
      </trkpt>
      <trkpt lat="45.53316" lon="4.73295">
        <ele>385.14538574219</ele>
        <time>2013-05-26T11:31:02Z</time>
      </trkpt>
      <trkpt lat="45.53318" lon="4.73261">
        <ele>387.06799316406</ele>
        <time>2013-05-26T11:31:12Z</time>
      </trkpt>
      <trkpt lat="45.53318" lon="4.73258">
        <ele>386.58740234375</ele>
        <time>2013-05-26T11:31:13Z</time>
      </trkpt>
      <trkpt lat="45.5332" lon="4.73251">
        <ele>387.06799316406</ele>
        <time>2013-05-26T11:31:15Z</time>
      </trkpt>
      <trkpt lat="45.53317" lon="4.73236">
        <ele>388.51000976562</ele>
        <time>2013-05-26T11:31:19Z</time>
      </trkpt>
      <trkpt lat="45.53285" lon="4.73227">
        <ele>391.39379882812</ele>
        <time>2013-05-26T11:31:32Z</time>
      </trkpt>
      <trkpt lat="45.53282" lon="4.73231">
        <ele>391.39379882812</ele>
        <time>2013-05-26T11:31:34Z</time>
      </trkpt>
      <trkpt lat="45.53277" lon="4.73238">
        <ele>392.35534667969</ele>
        <time>2013-05-26T11:31:38Z</time>
      </trkpt>
      <trkpt lat="45.53252" lon="4.73246">
        <ele>394.27795410156</ele>
        <time>2013-05-26T11:31:48Z</time>
      </trkpt>
      <trkpt lat="45.5324" lon="4.73243">
        <ele>395.23913574219</ele>
        <time>2013-05-26T11:31:52Z</time>
      </trkpt>
      <trkpt lat="45.53216" lon="4.73226">
        <ele>396.68115234375</ele>
        <time>2013-05-26T11:32:04Z</time>
      </trkpt>
      <trkpt lat="45.53202" lon="4.73246">
        <ele>399.08435058594</ele>
        <time>2013-05-26T11:32:16Z</time>
      </trkpt>
      <trkpt lat="45.53201" lon="4.73243">
        <ele>398.60375976562</ele>
        <time>2013-05-26T11:32:29Z</time>
      </trkpt>
      <trkpt lat="45.53201" lon="4.73243">
        <ele>397.64245605469</ele>
        <time>2013-05-26T11:32:53Z</time>
      </trkpt>
      <trkpt lat="45.53201" lon="4.73243">
        <ele>399.56506347656</ele>
        <time>2013-05-26T11:33:15Z</time>
      </trkpt>
      <trkpt lat="45.53202" lon="4.73247">
        <ele>399.56506347656</ele>
        <time>2013-05-26T11:33:22Z</time>
      </trkpt>
      <trkpt lat="45.53208" lon="4.73265">
        <ele>400.52648925781</ele>
        <time>2013-05-26T11:33:31Z</time>
      </trkpt>
      <trkpt lat="45.53234" lon="4.7333">
        <ele>404.37170410156</ele>
        <time>2013-05-26T11:33:53Z</time>
      </trkpt>
      <trkpt lat="45.53234" lon="4.73333">
        <ele>404.37170410156</ele>
        <time>2013-05-26T11:33:54Z</time>
      </trkpt>
      <trkpt lat="45.53225" lon="4.73351">
        <ele>405.81372070312</ele>
        <time>2013-05-26T11:34:01Z</time>
      </trkpt>
      <trkpt lat="45.53198" lon="4.73401">
        <ele>408.69763183594</ele>
        <time>2013-05-26T11:34:20Z</time>
      </trkpt>
      <trkpt lat="45.53184" lon="4.7348">
        <ele>411.58166503906</ele>
        <time>2013-05-26T11:34:43Z</time>
      </trkpt>
      <trkpt lat="45.53179" lon="4.7353">
        <ele>414.94616699219</ele>
        <time>2013-05-26T11:34:58Z</time>
      </trkpt>
      <trkpt lat="45.53202" lon="4.73556">
        <ele>416.38818359375</ele>
        <time>2013-05-26T11:35:11Z</time>
      </trkpt>
      <trkpt lat="45.53236" lon="4.73579">
        <ele>419.27221679688</ele>
        <time>2013-05-26T11:35:26Z</time>
      </trkpt>
      <trkpt lat="45.53258" lon="4.73612">
        <ele>422.63671875</ele>
        <time>2013-05-26T11:35:40Z</time>
      </trkpt>
      <trkpt lat="45.53258" lon="4.73649">
        <ele>424.55944824219</ele>
        <time>2013-05-26T11:35:53Z</time>
      </trkpt>
      <trkpt lat="45.53256" lon="4.73649">
        <ele>425.04016113281</ele>
        <time>2013-05-26T11:35:54Z</time>
      </trkpt>
      <trkpt lat="45.53221" lon="4.73633">
        <ele>426.96276855469</ele>
        <time>2013-05-26T11:36:08Z</time>
      </trkpt>
      <trkpt lat="45.53177" lon="4.73636">
        <ele>429.84655761719</ele>
        <time>2013-05-26T11:36:26Z</time>
      </trkpt>
      <trkpt lat="45.5313" lon="4.73639">
        <ele>432.73071289062</ele>
        <time>2013-05-26T11:36:45Z</time>
      </trkpt>
      <trkpt lat="45.53093" lon="4.73641">
        <ele>436.09521484375</ele>
        <time>2013-05-26T11:37:00Z</time>
      </trkpt>
      <trkpt lat="45.53058" lon="4.73656">
        <ele>439.45971679688</ele>
        <time>2013-05-26T11:37:15Z</time>
      </trkpt>
      <trkpt lat="45.53033" lon="4.737">
        <ele>442.34387207031</ele>
        <time>2013-05-26T11:37:30Z</time>
      </trkpt>
      <trkpt lat="45.5301" lon="4.73746">
        <ele>445.70837402344</ele>
        <time>2013-05-26T11:37:45Z</time>
      </trkpt>
      <trkpt lat="45.52978" lon="4.73808">
        <ele>449.07299804688</ele>
        <time>2013-05-26T11:38:06Z</time>
      </trkpt>
      <trkpt lat="45.52977" lon="4.73811">
        <ele>449.07299804688</ele>
        <time>2013-05-26T11:38:07Z</time>
      </trkpt>
      <trkpt lat="45.5295" lon="4.7385">
        <ele>452.43762207031</ele>
        <time>2013-05-26T11:38:22Z</time>
      </trkpt>
      <trkpt lat="45.52926" lon="4.73885">
        <ele>455.80224609375</ele>
        <time>2013-05-26T11:38:35Z</time>
      </trkpt>
      <trkpt lat="45.529" lon="4.73923">
        <ele>459.16687011719</ele>
        <time>2013-05-26T11:38:49Z</time>
      </trkpt>
      <trkpt lat="45.52888" lon="4.73956">
        <ele>460.60876464844</ele>
        <time>2013-05-26T11:39:04Z</time>
      </trkpt>
      <trkpt lat="45.52888" lon="4.73956">
        <ele>461.08947753906</ele>
        <time>2013-05-26T11:39:20Z</time>
      </trkpt>
      <trkpt lat="45.52906" lon="4.73984">
        <ele>464.93481445312</ele>
        <time>2013-05-26T11:39:33Z</time>
      </trkpt>
      <trkpt lat="45.52918" lon="4.7404">
        <ele>468.29931640625</ele>
        <time>2013-05-26T11:39:51Z</time>
      </trkpt>
      <trkpt lat="45.52908" lon="4.74103">
        <ele>472.14465332031</ele>
        <time>2013-05-26T11:40:10Z</time>
      </trkpt>
      <trkpt lat="45.52906" lon="4.74108">
        <ele>472.14465332031</ele>
        <time>2013-05-26T11:40:12Z</time>
      </trkpt>
      <trkpt lat="45.52897" lon="4.74105">
        <ele>474.06726074219</ele>
        <time>2013-05-26T11:40:17Z</time>
      </trkpt>
      <trkpt lat="45.52854" lon="4.74075">
        <ele>475.98986816406</ele>
        <time>2013-05-26T11:40:37Z</time>
      </trkpt>
      <trkpt lat="45.52814" lon="4.7409">
        <ele>477.91247558594</ele>
        <time>2013-05-26T11:40:50Z</time>
      </trkpt>
      <trkpt lat="45.52759" lon="4.74136">
        <ele>481.27722167969</ele>
        <time>2013-05-26T11:41:09Z</time>
      </trkpt>
      <trkpt lat="45.52726" lon="4.74167">
        <ele>483.19982910156</ele>
        <time>2013-05-26T11:41:21Z</time>
      </trkpt>
      <trkpt lat="45.52679" lon="4.74197">
        <ele>485.60302734375</ele>
        <time>2013-05-26T11:41:35Z</time>
      </trkpt>
      <trkpt lat="45.52643" lon="4.74215">
        <ele>487.52563476562</ele>
        <time>2013-05-26T11:41:46Z</time>
      </trkpt>
      <trkpt lat="45.5261" lon="4.74217">
        <ele>488.9677734375</ele>
        <time>2013-05-26T11:41:57Z</time>
      </trkpt>
      <trkpt lat="45.52585" lon="4.74212">
        <ele>489.92907714844</ele>
        <time>2013-05-26T11:42:03Z</time>
      </trkpt>
      <trkpt lat="45.52514" lon="4.74207">
        <ele>492.81298828125</ele>
        <time>2013-05-26T11:42:21Z</time>
      </trkpt>
      <trkpt lat="45.52446" lon="4.74207">
        <ele>496.177734375</ele>
        <time>2013-05-26T11:42:39Z</time>
      </trkpt>
      <trkpt lat="45.5237" lon="4.74263">
        <ele>499.54223632812</ele>
        <time>2013-05-26T11:43:03Z</time>
      </trkpt>
      <trkpt lat="45.52308" lon="4.74331">
        <ele>502.42614746094</ele>
        <time>2013-05-26T11:43:25Z</time>
      </trkpt>
      <trkpt lat="45.52251" lon="4.74348">
        <ele>505.31018066406</ele>
        <time>2013-05-26T11:43:43Z</time>
      </trkpt>
      <trkpt lat="45.5222" lon="4.74341">
        <ele>505.79089355469</ele>
        <time>2013-05-26T11:43:56Z</time>
      </trkpt>
      <trkpt lat="45.52189" lon="4.74349">
        <ele>506.75207519531</ele>
        <time>2013-05-26T11:44:10Z</time>
      </trkpt>
      <trkpt lat="45.52181" lon="4.7435">
        <ele>507.23278808594</ele>
        <time>2013-05-26T11:44:13Z</time>
      </trkpt>
      <trkpt lat="45.5218" lon="4.74365">
        <ele>506.75207519531</ele>
        <time>2013-05-26T11:44:20Z</time>
      </trkpt>
      <trkpt lat="45.52229" lon="4.74395">
        <ele>506.271484375</ele>
        <time>2013-05-26T11:44:36Z</time>
      </trkpt>
      <trkpt lat="45.5223" lon="4.74401">
        <ele>506.75207519531</ele>
        <time>2013-05-26T11:44:48Z</time>
      </trkpt>
      <trkpt lat="45.5223" lon="4.74401">
        <ele>504.82946777344</ele>
        <time>2013-05-26T11:45:28Z</time>
      </trkpt>
      <trkpt lat="45.5223" lon="4.74401">
        <ele>506.75207519531</ele>
        <time>2013-05-26T11:46:03Z</time>
      </trkpt>
      <trkpt lat="45.52231" lon="4.744">
        <ele>505.79089355469</ele>
        <time>2013-05-26T11:46:46Z</time>
      </trkpt>
      <trkpt lat="45.5223" lon="4.744">
        <ele>504.82946777344</ele>
        <time>2013-05-26T11:47:49Z</time>
      </trkpt>
      <trkpt lat="45.5223" lon="4.744">
        <ele>507.23278808594</ele>
        <time>2013-05-26T11:51:18Z</time>
      </trkpt>
      <trkpt lat="45.52237" lon="4.74403">
        <ele>507.71350097656</ele>
        <time>2013-05-26T11:51:27Z</time>
      </trkpt>
      <trkpt lat="45.5224" lon="4.74404">
        <ele>507.71350097656</ele>
        <time>2013-05-26T11:51:30Z</time>
      </trkpt>
      <trkpt lat="45.52241" lon="4.74421">
        <ele>509.15539550781</ele>
        <time>2013-05-26T11:51:38Z</time>
      </trkpt>
      <trkpt lat="45.52257" lon="4.7451">
        <ele>512.03942871094</ele>
        <time>2013-05-26T11:51:57Z</time>
      </trkpt>
      <trkpt lat="45.52271" lon="4.74551">
        <ele>511.55871582031</ele>
        <time>2013-05-26T11:52:05Z</time>
      </trkpt>
      <trkpt lat="45.52279" lon="4.74565">
        <ele>511.55871582031</ele>
        <time>2013-05-26T11:52:08Z</time>
      </trkpt>
      <trkpt lat="45.5229" lon="4.74577">
        <ele>511.07800292969</ele>
        <time>2013-05-26T11:52:11Z</time>
      </trkpt>
      <trkpt lat="45.52365" lon="4.74627">
        <ele>511.55871582031</ele>
        <time>2013-05-26T11:52:27Z</time>
      </trkpt>
      <trkpt lat="45.52416" lon="4.74658">
        <ele>509.15539550781</ele>
        <time>2013-05-26T11:52:39Z</time>
      </trkpt>
      <trkpt lat="45.52444" lon="4.74694">
        <ele>510.11669921875</ele>
        <time>2013-05-26T11:52:46Z</time>
      </trkpt>
      <trkpt lat="45.52452" lon="4.74723">
        <ele>509.15539550781</ele>
        <time>2013-05-26T11:52:50Z</time>
      </trkpt>
      <trkpt lat="45.52461" lon="4.74814">
        <ele>509.15539550781</ele>
        <time>2013-05-26T11:53:02Z</time>
      </trkpt>
      <trkpt lat="45.52473" lon="4.74844">
        <ele>507.71350097656</ele>
        <time>2013-05-26T11:53:06Z</time>
      </trkpt>
      <trkpt lat="45.52482" lon="4.74855">
        <ele>506.271484375</ele>
        <time>2013-05-26T11:53:08Z</time>
      </trkpt>
      <trkpt lat="45.52493" lon="4.74864">
        <ele>505.79089355469</ele>
        <time>2013-05-26T11:53:10Z</time>
      </trkpt>
      <trkpt lat="45.52529" lon="4.74888">
        <ele>504.34887695312</ele>
        <time>2013-05-26T11:53:16Z</time>
      </trkpt>
      <trkpt lat="45.52561" lon="4.74928">
        <ele>503.8681640625</ele>
        <time>2013-05-26T11:53:22Z</time>
      </trkpt>
      <trkpt lat="45.52569" lon="4.74945">
        <ele>503.38745117188</ele>
        <time>2013-05-26T11:53:24Z</time>
      </trkpt>
      <trkpt lat="45.52594" lon="4.74958">
        <ele>502.90673828125</ele>
        <time>2013-05-26T11:53:28Z</time>
      </trkpt>
      <trkpt lat="45.52609" lon="4.74957">
        <ele>502.42614746094</ele>
        <time>2013-05-26T11:53:30Z</time>
      </trkpt>
      <trkpt lat="45.52633" lon="4.75004">
        <ele>500.50354003906</ele>
        <time>2013-05-26T11:53:36Z</time>
      </trkpt>
      <trkpt lat="45.52618" lon="4.7506">
        <ele>500.50354003906</ele>
        <time>2013-05-26T11:53:41Z</time>
      </trkpt>
      <trkpt lat="45.52609" lon="4.75079">
        <ele>500.50354003906</ele>
        <time>2013-05-26T11:53:43Z</time>
      </trkpt>
      <trkpt lat="45.52613" lon="4.75122">
        <ele>499.0615234375</ele>
        <time>2013-05-26T11:53:47Z</time>
      </trkpt>
      <trkpt lat="45.52623" lon="4.75142">
        <ele>498.58093261719</ele>
        <time>2013-05-26T11:53:49Z</time>
      </trkpt>
      <trkpt lat="45.52626" lon="4.75223">
        <ele>496.177734375</ele>
        <time>2013-05-26T11:53:56Z</time>
      </trkpt>
      <trkpt lat="45.5261" lon="4.75278">
        <ele>497.13891601562</ele>
        <time>2013-05-26T11:54:01Z</time>
      </trkpt>
      <trkpt lat="45.52602" lon="4.75329">
        <ele>494.25500488281</ele>
        <time>2013-05-26T11:54:06Z</time>
      </trkpt>
      <trkpt lat="45.52611" lon="4.75349">
        <ele>493.77429199219</ele>
        <time>2013-05-26T11:54:08Z</time>
      </trkpt>
      <trkpt lat="45.52621" lon="4.75367">
        <ele>493.77429199219</ele>
        <time>2013-05-26T11:54:10Z</time>
      </trkpt>
      <trkpt lat="45.52627" lon="4.75431">
        <ele>490.40979003906</ele>
        <time>2013-05-26T11:54:16Z</time>
      </trkpt>
      <trkpt lat="45.52623" lon="4.75441">
        <ele>489.92907714844</ele>
        <time>2013-05-26T11:54:17Z</time>
      </trkpt>
      <trkpt lat="45.52611" lon="4.75458">
        <ele>489.92907714844</ele>
        <time>2013-05-26T11:54:19Z</time>
      </trkpt>
      <trkpt lat="45.52593" lon="4.755">
        <ele>489.44836425781</ele>
        <time>2013-05-26T11:54:24Z</time>
      </trkpt>
      <trkpt lat="45.52601" lon="4.75531">
        <ele>488.48718261719</ele>
        <time>2013-05-26T11:54:27Z</time>
      </trkpt>
      <trkpt lat="45.52592" lon="4.75581">
        <ele>486.564453125</ele>
        <time>2013-05-26T11:54:32Z</time>
      </trkpt>
      <trkpt lat="45.52554" lon="4.75639">
        <ele>484.64184570312</ele>
        <time>2013-05-26T11:54:39Z</time>
      </trkpt>
      <trkpt lat="45.52557" lon="4.75718">
        <ele>484.1611328125</ele>
        <time>2013-05-26T11:54:47Z</time>
      </trkpt>
      <trkpt lat="45.52603" lon="4.75796">
        <ele>480.79663085938</ele>
        <time>2013-05-26T11:54:56Z</time>
      </trkpt>
      <trkpt lat="45.52641" lon="4.75864">
        <ele>478.39318847656</ele>
        <time>2013-05-26T11:55:03Z</time>
      </trkpt>
      <trkpt lat="45.52663" lon="4.75905">
        <ele>475.98986816406</ele>
        <time>2013-05-26T11:55:07Z</time>
      </trkpt>
      <trkpt lat="45.52673" lon="4.75941">
        <ele>472.14465332031</ele>
        <time>2013-05-26T11:55:10Z</time>
      </trkpt>
      <trkpt lat="45.52664" lon="4.75983">
        <ele>470.22192382812</ele>
        <time>2013-05-26T11:55:13Z</time>
      </trkpt>
      <trkpt lat="45.52621" lon="4.76066">
        <ele>466.857421875</ele>
        <time>2013-05-26T11:55:20Z</time>
      </trkpt>
      <trkpt lat="45.52539" lon="4.76246">
        <ele>464.4541015625</ele>
        <time>2013-05-26T11:55:38Z</time>
      </trkpt>
      <trkpt lat="45.52501" lon="4.76327">
        <ele>466.857421875</ele>
        <time>2013-05-26T11:55:50Z</time>
      </trkpt>
      <trkpt lat="45.52427" lon="4.76492">
        <ele>466.37670898438</ele>
        <time>2013-05-26T11:56:13Z</time>
      </trkpt>
      <trkpt lat="45.52409" lon="4.76544">
        <ele>466.37670898438</ele>
        <time>2013-05-26T11:56:20Z</time>
      </trkpt>
      <trkpt lat="45.52411" lon="4.76638">
        <ele>465.89611816406</ele>
        <time>2013-05-26T11:56:31Z</time>
      </trkpt>
      <trkpt lat="45.52394" lon="4.76761">
        <ele>462.53137207031</ele>
        <time>2013-05-26T11:56:45Z</time>
      </trkpt>
      <trkpt lat="45.52375" lon="4.76817">
        <ele>459.64758300781</ele>
        <time>2013-05-26T11:56:52Z</time>
      </trkpt>
      <trkpt lat="45.52363" lon="4.76826">
        <ele>458.68615722656</ele>
        <time>2013-05-26T11:56:56Z</time>
      </trkpt>
      <trkpt lat="45.52335" lon="4.76824">
        <ele>459.64758300781</ele>
        <time>2013-05-26T11:57:10Z</time>
      </trkpt>
      <trkpt lat="45.52329" lon="4.76823">
        <ele>458.68615722656</ele>
        <time>2013-05-26T11:57:24Z</time>
      </trkpt>
      <trkpt lat="45.52312" lon="4.76819">
        <ele>458.20556640625</ele>
        <time>2013-05-26T11:57:48Z</time>
      </trkpt>
      <trkpt lat="45.52279" lon="4.76802">
        <ele>457.24426269531</ele>
        <time>2013-05-26T11:57:55Z</time>
      </trkpt>
      <trkpt lat="45.52249" lon="4.76762">
        <ele>456.28295898438</ele>
        <time>2013-05-26T11:58:01Z</time>
      </trkpt>
      <trkpt lat="45.52231" lon="4.76745">
        <ele>454.36022949219</ele>
        <time>2013-05-26T11:58:04Z</time>
      </trkpt>
      <trkpt lat="45.52197" lon="4.76764">
        <ele>454.8408203125</ele>
        <time>2013-05-26T11:58:09Z</time>
      </trkpt>
      <trkpt lat="45.52129" lon="4.76841">
        <ele>457.24426269531</ele>
        <time>2013-05-26T11:58:25Z</time>
      </trkpt>
      <trkpt lat="45.52059" lon="4.76874">
        <ele>453.87963867188</ele>
        <time>2013-05-26T11:58:37Z</time>
      </trkpt>
      <trkpt lat="45.51961" lon="4.76905">
        <ele>450.51501464844</ele>
        <time>2013-05-26T11:58:51Z</time>
      </trkpt>
      <trkpt lat="45.51932" lon="4.76958">
        <ele>447.63098144531</ele>
        <time>2013-05-26T11:58:58Z</time>
      </trkpt>
      <trkpt lat="45.51933" lon="4.76995">
        <ele>445.70837402344</ele>
        <time>2013-05-26T11:59:01Z</time>
      </trkpt>
      <trkpt lat="45.5192" lon="4.77032">
        <ele>442.82446289062</ele>
        <time>2013-05-26T11:59:05Z</time>
      </trkpt>
      <trkpt lat="45.51904" lon="4.77038">
        <ele>441.86315917969</ele>
        <time>2013-05-26T11:59:07Z</time>
      </trkpt>
      <trkpt lat="45.51886" lon="4.7704">
        <ele>440.42126464844</ele>
        <time>2013-05-26T11:59:09Z</time>
      </trkpt>
      <trkpt lat="45.51844" lon="4.77086">
        <ele>437.537109375</ele>
        <time>2013-05-26T11:59:15Z</time>
      </trkpt>
      <trkpt lat="45.51842" lon="4.77131">
        <ele>435.13391113281</ele>
        <time>2013-05-26T11:59:18Z</time>
      </trkpt>
      <trkpt lat="45.51848" lon="4.77175">
        <ele>433.21130371094</ele>
        <time>2013-05-26T11:59:21Z</time>
      </trkpt>
      <trkpt lat="45.5182" lon="4.77267">
        <ele>430.32727050781</ele>
        <time>2013-05-26T11:59:28Z</time>
      </trkpt>
      <trkpt lat="45.51811" lon="4.77288">
        <ele>429.36596679688</ele>
        <time>2013-05-26T11:59:30Z</time>
      </trkpt>
      <trkpt lat="45.51754" lon="4.77326">
        <ele>427.443359375</ele>
        <time>2013-05-26T11:59:38Z</time>
      </trkpt>
      <trkpt lat="45.51747" lon="4.77325">
        <ele>427.443359375</ele>
        <time>2013-05-26T11:59:39Z</time>
      </trkpt>
      <trkpt lat="45.51683" lon="4.77313">
        <ele>426.96276855469</ele>
        <time>2013-05-26T11:59:50Z</time>
      </trkpt>
      <trkpt lat="45.51652" lon="4.77293">
        <ele>428.40466308594</ele>
        <time>2013-05-26T11:59:59Z</time>
      </trkpt>
      <trkpt lat="45.51628" lon="4.77283">
        <ele>428.40466308594</ele>
        <time>2013-05-26T12:00:04Z</time>
      </trkpt>
      <trkpt lat="45.51595" lon="4.77271">
        <ele>430.80798339844</ele>
        <time>2013-05-26T12:00:11Z</time>
      </trkpt>
      <trkpt lat="45.51562" lon="4.77251">
        <ele>431.28857421875</ele>
        <time>2013-05-26T12:00:19Z</time>
      </trkpt>
      <trkpt lat="45.51542" lon="4.77251">
        <ele>431.76916503906</ele>
        <time>2013-05-26T12:00:24Z</time>
      </trkpt>
      <trkpt lat="45.51535" lon="4.77255">
        <ele>431.76916503906</ele>
        <time>2013-05-26T12:00:26Z</time>
      </trkpt>
      <trkpt lat="45.51509" lon="4.77233">
        <ele>433.21130371094</ele>
        <time>2013-05-26T12:00:37Z</time>
      </trkpt>
      <trkpt lat="45.5148" lon="4.77207">
        <ele>434.17260742188</ele>
        <time>2013-05-26T12:00:49Z</time>
      </trkpt>
      <trkpt lat="45.51474" lon="4.77201">
        <ele>434.6533203125</ele>
        <time>2013-05-26T12:00:52Z</time>
      </trkpt>
      <trkpt lat="45.5147" lon="4.77196">
        <ele>434.6533203125</ele>
        <time>2013-05-26T12:00:55Z</time>
      </trkpt>
      <trkpt lat="45.51443" lon="4.77166">
        <ele>435.61450195312</ele>
        <time>2013-05-26T12:01:06Z</time>
      </trkpt>
      <trkpt lat="45.51434" lon="4.77152">
        <ele>436.09521484375</ele>
        <time>2013-05-26T12:01:12Z</time>
      </trkpt>
      <trkpt lat="45.51425" lon="4.77138">
        <ele>436.57592773438</ele>
        <time>2013-05-26T12:01:16Z</time>
      </trkpt>
      <trkpt lat="45.51414" lon="4.77115">
        <ele>437.537109375</ele>
        <time>2013-05-26T12:01:23Z</time>
      </trkpt>
      <trkpt lat="45.51406" lon="4.77099">
        <ele>436.57592773438</ele>
        <time>2013-05-26T12:01:27Z</time>
      </trkpt>
      <trkpt lat="45.51393" lon="4.77071">
        <ele>437.537109375</ele>
        <time>2013-05-26T12:01:34Z</time>
      </trkpt>
      <trkpt lat="45.51373" lon="4.77029">
        <ele>435.61450195312</ele>
        <time>2013-05-26T12:01:43Z</time>
      </trkpt>
      <trkpt lat="45.51349" lon="4.77009">
        <ele>436.57592773438</ele>
        <time>2013-05-26T12:01:53Z</time>
      </trkpt>
      <trkpt lat="45.51344" lon="4.77002">
        <ele>436.09521484375</ele>
        <time>2013-05-26T12:01:55Z</time>
      </trkpt>
      <trkpt lat="45.51338" lon="4.76988">
        <ele>436.09521484375</ele>
        <time>2013-05-26T12:01:58Z</time>
      </trkpt>
      <trkpt lat="45.51321" lon="4.76967">
        <ele>435.61450195312</ele>
        <time>2013-05-26T12:02:02Z</time>
      </trkpt>
      <trkpt lat="45.51294" lon="4.76946">
        <ele>434.6533203125</ele>
        <time>2013-05-26T12:02:06Z</time>
      </trkpt>
      <trkpt lat="45.51284" lon="4.76938">
        <ele>434.6533203125</ele>
        <time>2013-05-26T12:02:08Z</time>
      </trkpt>
      <trkpt lat="45.51267" lon="4.76918">
        <ele>432.73071289062</ele>
        <time>2013-05-26T12:02:14Z</time>
      </trkpt>
      <trkpt lat="45.51257" lon="4.76905">
        <ele>432.73071289062</ele>
        <time>2013-05-26T12:02:17Z</time>
      </trkpt>
      <trkpt lat="45.51246" lon="4.76865">
        <ele>432.73071289062</ele>
        <time>2013-05-26T12:02:24Z</time>
      </trkpt>
      <trkpt lat="45.51241" lon="4.76853">
        <ele>432.73071289062</ele>
        <time>2013-05-26T12:02:27Z</time>
      </trkpt>
      <trkpt lat="45.51201" lon="4.76795">
        <ele>432.73071289062</ele>
        <time>2013-05-26T12:02:38Z</time>
      </trkpt>
      <trkpt lat="45.51174" lon="4.76778">
        <ele>432.25</ele>
        <time>2013-05-26T12:02:43Z</time>
      </trkpt>
      <trkpt lat="45.51106" lon="4.76783">
        <ele>429.36596679688</ele>
        <time>2013-05-26T12:02:54Z</time>
      </trkpt>
      <trkpt lat="45.51057" lon="4.76801">
        <ele>425.52075195312</ele>
        <time>2013-05-26T12:03:00Z</time>
      </trkpt>
      <trkpt lat="45.51033" lon="4.76825">
        <ele>423.11743164062</ele>
        <time>2013-05-26T12:03:03Z</time>
      </trkpt>
      <trkpt lat="45.51027" lon="4.76836">
        <ele>422.63671875</ele>
        <time>2013-05-26T12:03:04Z</time>
      </trkpt>
      <trkpt lat="45.51015" lon="4.76859">
        <ele>420.71411132812</ele>
        <time>2013-05-26T12:03:06Z</time>
      </trkpt>
      <trkpt lat="45.50997" lon="4.76872">
        <ele>419.75280761719</ele>
        <time>2013-05-26T12:03:08Z</time>
      </trkpt>
      <trkpt lat="45.50977" lon="4.76879">
        <ele>418.79150390625</ele>
        <time>2013-05-26T12:03:10Z</time>
      </trkpt>
      <trkpt lat="45.50938" lon="4.76914">
        <ele>416.38818359375</ele>
        <time>2013-05-26T12:03:15Z</time>
      </trkpt>
      <trkpt lat="45.50908" lon="4.76969">
        <ele>415.90747070312</ele>
        <time>2013-05-26T12:03:21Z</time>
      </trkpt>
      <trkpt lat="45.50872" lon="4.77005">
        <ele>413.98486328125</ele>
        <time>2013-05-26T12:03:26Z</time>
      </trkpt>
      <trkpt lat="45.50855" lon="4.77013">
        <ele>412.06225585938</ele>
        <time>2013-05-26T12:03:28Z</time>
      </trkpt>
      <trkpt lat="45.50809" lon="4.77023">
        <ele>408.21704101562</ele>
        <time>2013-05-26T12:03:33Z</time>
      </trkpt>
      <trkpt lat="45.50792" lon="4.77027">
        <ele>406.77490234375</ele>
        <time>2013-05-26T12:03:35Z</time>
      </trkpt>
      <trkpt lat="45.50784" lon="4.77029">
        <ele>405.81372070312</ele>
        <time>2013-05-26T12:03:36Z</time>
      </trkpt>
      <trkpt lat="45.50717" lon="4.77015">
        <ele>401.00708007812</ele>
        <time>2013-05-26T12:03:43Z</time>
      </trkpt>
      <trkpt lat="45.50678" lon="4.77022">
        <ele>398.60375976562</ele>
        <time>2013-05-26T12:03:47Z</time>
      </trkpt>
      <trkpt lat="45.50659" lon="4.77027">
        <ele>396.68115234375</ele>
        <time>2013-05-26T12:03:49Z</time>
      </trkpt>
      <trkpt lat="45.50574" lon="4.77024">
        <ele>395.71984863281</ele>
        <time>2013-05-26T12:03:59Z</time>
      </trkpt>
      <trkpt lat="45.50493" lon="4.77009">
        <ele>398.60375976562</ele>
        <time>2013-05-26T12:04:13Z</time>
      </trkpt>
      <trkpt lat="45.50473" lon="4.77008">
        <ele>399.56506347656</ele>
        <time>2013-05-26T12:04:18Z</time>
      </trkpt>
      <trkpt lat="45.50426" lon="4.76994">
        <ele>402.44909667969</ele>
        <time>2013-05-26T12:04:31Z</time>
      </trkpt>
      <trkpt lat="45.50382" lon="4.76981">
        <ele>405.3330078125</ele>
        <time>2013-05-26T12:04:45Z</time>
      </trkpt>
      <trkpt lat="45.50345" lon="4.76975">
        <ele>408.69763183594</ele>
        <time>2013-05-26T12:04:56Z</time>
      </trkpt>
      <trkpt lat="45.50323" lon="4.76967">
        <ele>410.1396484375</ele>
        <time>2013-05-26T12:05:03Z</time>
      </trkpt>
      <trkpt lat="45.50291" lon="4.76955">
        <ele>412.54284667969</ele>
        <time>2013-05-26T12:05:17Z</time>
      </trkpt>
      <trkpt lat="45.50242" lon="4.76936">
        <ele>410.1396484375</ele>
        <time>2013-05-26T12:05:31Z</time>
      </trkpt>
      <trkpt lat="45.50192" lon="4.76897">
        <ele>406.77490234375</ele>
        <time>2013-05-26T12:05:43Z</time>
      </trkpt>
      <trkpt lat="45.50157" lon="4.7686">
        <ele>403.41040039062</ele>
        <time>2013-05-26T12:05:49Z</time>
      </trkpt>
      <trkpt lat="45.50137" lon="4.76844">
        <ele>400.0458984375</ele>
        <time>2013-05-26T12:05:52Z</time>
      </trkpt>
      <trkpt lat="45.50123" lon="4.76834">
        <ele>397.16174316406</ele>
        <time>2013-05-26T12:05:54Z</time>
      </trkpt>
      <trkpt lat="45.50086" lon="4.76805">
        <ele>393.79724121094</ele>
        <time>2013-05-26T12:05:59Z</time>
      </trkpt>
      <trkpt lat="45.50045" lon="4.76774">
        <ele>389.47119140625</ele>
        <time>2013-05-26T12:06:04Z</time>
      </trkpt>
      <trkpt lat="45.50018" lon="4.76754">
        <ele>386.58740234375</ele>
        <time>2013-05-26T12:06:08Z</time>
      </trkpt>
      <trkpt lat="45.50006" lon="4.76744">
        <ele>384.66479492188</ele>
        <time>2013-05-26T12:06:11Z</time>
      </trkpt>
      <trkpt lat="45.49991" lon="4.76724">
        <ele>383.22265625</ele>
        <time>2013-05-26T12:06:15Z</time>
      </trkpt>
      <trkpt lat="45.4996" lon="4.76682">
        <ele>379.85803222656</ele>
        <time>2013-05-26T12:06:20Z</time>
      </trkpt>
      <trkpt lat="45.49939" lon="4.76655">
        <ele>378.41613769531</ele>
        <time>2013-05-26T12:06:23Z</time>
      </trkpt>
      <trkpt lat="45.49917" lon="4.76629">
        <ele>376.97424316406</ele>
        <time>2013-05-26T12:06:26Z</time>
      </trkpt>
      <trkpt lat="45.4989" lon="4.76594">
        <ele>375.05151367188</ele>
        <time>2013-05-26T12:06:30Z</time>
      </trkpt>
      <trkpt lat="45.49803" lon="4.76514">
        <ele>372.16748046875</ele>
        <time>2013-05-26T12:06:43Z</time>
      </trkpt>
      <trkpt lat="45.49739" lon="4.76461">
        <ele>371.68688964844</ele>
        <time>2013-05-26T12:06:56Z</time>
      </trkpt>
      <trkpt lat="45.49709" lon="4.76431">
        <ele>370.7255859375</ele>
        <time>2013-05-26T12:07:03Z</time>
      </trkpt>
      <trkpt lat="45.4969" lon="4.7642">
        <ele>370.24487304688</ele>
        <time>2013-05-26T12:07:07Z</time>
      </trkpt>
      <trkpt lat="45.4967" lon="4.7642">
        <ele>370.24487304688</ele>
        <time>2013-05-26T12:07:11Z</time>
      </trkpt>
      <trkpt lat="45.49611" lon="4.76445">
        <ele>369.76428222656</ele>
        <time>2013-05-26T12:07:24Z</time>
      </trkpt>
      <trkpt lat="45.49545" lon="4.76486">
        <ele>370.24487304688</ele>
        <time>2013-05-26T12:07:41Z</time>
      </trkpt>
      <trkpt lat="45.49451" lon="4.76545">
        <ele>369.76428222656</ele>
        <time>2013-05-26T12:08:03Z</time>
      </trkpt>
      <trkpt lat="45.49358" lon="4.76606">
        <ele>371.20629882812</ele>
        <time>2013-05-26T12:08:27Z</time>
      </trkpt>
      <trkpt lat="45.49306" lon="4.76683">
        <ele>371.68688964844</ele>
        <time>2013-05-26T12:08:45Z</time>
      </trkpt>
      <trkpt lat="45.49299" lon="4.7669">
        <ele>372.64819335938</ele>
        <time>2013-05-26T12:08:47Z</time>
      </trkpt>
      <trkpt lat="45.49222" lon="4.76773">
        <ele>375.53210449219</ele>
        <time>2013-05-26T12:09:10Z</time>
      </trkpt>
      <trkpt lat="45.49163" lon="4.76816">
        <ele>373.60949707031</ele>
        <time>2013-05-26T12:09:27Z</time>
      </trkpt>
      <trkpt lat="45.49133" lon="4.76832">
        <ele>373.60949707031</ele>
        <time>2013-05-26T12:09:37Z</time>
      </trkpt>
      <trkpt lat="45.49039" lon="4.76925">
        <ele>372.16748046875</ele>
        <time>2013-05-26T12:10:00Z</time>
      </trkpt>
      <trkpt lat="45.48946" lon="4.77019">
        <ele>369.28369140625</ele>
        <time>2013-05-26T12:10:19Z</time>
      </trkpt>
      <trkpt lat="45.48886" lon="4.77078">
        <ele>367.84155273438</ele>
        <time>2013-05-26T12:10:31Z</time>
      </trkpt>
      <trkpt lat="45.48866" lon="4.77078">
        <ele>365.9189453125</ele>
        <time>2013-05-26T12:10:35Z</time>
      </trkpt>
      <trkpt lat="45.48802" lon="4.76962">
        <ele>368.322265625</ele>
        <time>2013-05-26T12:10:53Z</time>
      </trkpt>
      <trkpt lat="45.48784" lon="4.76949">
        <ele>368.80297851562</ele>
        <time>2013-05-26T12:10:57Z</time>
      </trkpt>
      <trkpt lat="45.48659" lon="4.76895">
        <ele>368.322265625</ele>
        <time>2013-05-26T12:11:20Z</time>
      </trkpt>
      <trkpt lat="45.48592" lon="4.76839">
        <ele>365.9189453125</ele>
        <time>2013-05-26T12:11:34Z</time>
      </trkpt>
      <trkpt lat="45.48565" lon="4.76817">
        <ele>363.51574707031</ele>
        <time>2013-05-26T12:11:39Z</time>
      </trkpt>
      <trkpt lat="45.48552" lon="4.76783">
        <ele>361.11242675781</ele>
        <time>2013-05-26T12:11:43Z</time>
      </trkpt>
      <trkpt lat="45.48539" lon="4.7675">
        <ele>355.34448242188</ele>
        <time>2013-05-26T12:11:48Z</time>
      </trkpt>
      <trkpt lat="45.48485" lon="4.7677">
        <ele>350.53784179688</ele>
        <time>2013-05-26T12:11:53Z</time>
      </trkpt>
      <trkpt lat="45.48438" lon="4.76782">
        <ele>346.21203613281</ele>
        <time>2013-05-26T12:11:57Z</time>
      </trkpt>
      <trkpt lat="45.48399" lon="4.76795">
        <ele>341.88598632812</ele>
        <time>2013-05-26T12:12:00Z</time>
      </trkpt>
      <trkpt lat="45.48374" lon="4.76807">
        <ele>339.00207519531</ele>
        <time>2013-05-26T12:12:02Z</time>
      </trkpt>
      <trkpt lat="45.48326" lon="4.76844">
        <ele>335.15673828125</ele>
        <time>2013-05-26T12:12:06Z</time>
      </trkpt>
      <trkpt lat="45.48275" lon="4.76861">
        <ele>331.3115234375</ele>
        <time>2013-05-26T12:12:10Z</time>
      </trkpt>
      <trkpt lat="45.4823" lon="4.76871">
        <ele>326.98559570312</ele>
        <time>2013-05-26T12:12:14Z</time>
      </trkpt>
      <trkpt lat="45.48199" lon="4.7687">
        <ele>322.17895507812</ele>
        <time>2013-05-26T12:12:18Z</time>
      </trkpt>
      <trkpt lat="45.48182" lon="4.76871">
        <ele>321.2177734375</ele>
        <time>2013-05-26T12:12:20Z</time>
      </trkpt>
      <trkpt lat="45.48154" lon="4.76878">
        <ele>317.37243652344</ele>
        <time>2013-05-26T12:12:23Z</time>
      </trkpt>
      <trkpt lat="45.48143" lon="4.7688">
        <ele>316.41101074219</ele>
        <time>2013-05-26T12:12:24Z</time>
      </trkpt>
      <trkpt lat="45.48094" lon="4.76894">
        <ele>310.16247558594</ele>
        <time>2013-05-26T12:12:28Z</time>
      </trkpt>
      <trkpt lat="45.48054" lon="4.76907">
        <ele>306.7978515625</ele>
        <time>2013-05-26T12:12:31Z</time>
      </trkpt>
      <trkpt lat="45.48026" lon="4.76918">
        <ele>305.83666992188</ele>
        <time>2013-05-26T12:12:33Z</time>
      </trkpt>
      <trkpt lat="45.48014" lon="4.76925">
        <ele>304.39465332031</ele>
        <time>2013-05-26T12:12:34Z</time>
      </trkpt>
      <trkpt lat="45.47957" lon="4.76981">
        <ele>304.39465332031</ele>
        <time>2013-05-26T12:12:41Z</time>
      </trkpt>
      <trkpt lat="45.47913" lon="4.77013">
        <ele>305.35595703125</ele>
        <time>2013-05-26T12:12:49Z</time>
      </trkpt>
      <trkpt lat="45.47897" lon="4.77032">
        <ele>307.75927734375</ele>
        <time>2013-05-26T12:12:53Z</time>
      </trkpt>
      <trkpt lat="45.47881" lon="4.77117">
        <ele>308.72045898438</ele>
        <time>2013-05-26T12:13:06Z</time>
      </trkpt>
      <trkpt lat="45.47878" lon="4.77142">
        <ele>307.75927734375</ele>
        <time>2013-05-26T12:13:09Z</time>
      </trkpt>
      <trkpt lat="45.47866" lon="4.77189">
        <ele>305.83666992188</ele>
        <time>2013-05-26T12:13:14Z</time>
      </trkpt>
      <trkpt lat="45.47843" lon="4.77216">
        <ele>305.35595703125</ele>
        <time>2013-05-26T12:13:19Z</time>
      </trkpt>
      <trkpt lat="45.47831" lon="4.77215">
        <ele>304.39465332031</ele>
        <time>2013-05-26T12:13:21Z</time>
      </trkpt>
      <trkpt lat="45.47807" lon="4.77229">
        <ele>306.7978515625</ele>
        <time>2013-05-26T12:13:26Z</time>
      </trkpt>
      <trkpt lat="45.47792" lon="4.77316">
        <ele>309.201171875</ele>
        <time>2013-05-26T12:13:40Z</time>
      </trkpt>
      <trkpt lat="45.47773" lon="4.77359">
        <ele>308.72045898438</ele>
        <time>2013-05-26T12:13:51Z</time>
      </trkpt>
      <trkpt lat="45.47777" lon="4.77405">
        <ele>310.64306640625</ele>
        <time>2013-05-26T12:14:05Z</time>
      </trkpt>
      <trkpt lat="45.47779" lon="4.77411">
        <ele>311.6044921875</ele>
        <time>2013-05-26T12:14:06Z</time>
      </trkpt>
      <trkpt lat="45.47782" lon="4.77431">
        <ele>310.16247558594</ele>
        <time>2013-05-26T12:14:09Z</time>
      </trkpt>
      <trkpt lat="45.47789" lon="4.77459">
        <ele>309.68188476562</ele>
        <time>2013-05-26T12:14:13Z</time>
      </trkpt>
      <trkpt lat="45.47792" lon="4.77474">
        <ele>308.72045898438</ele>
        <time>2013-05-26T12:14:15Z</time>
      </trkpt>
      <trkpt lat="45.47809" lon="4.77528">
        <ele>309.201171875</ele>
        <time>2013-05-26T12:14:24Z</time>
      </trkpt>
      <trkpt lat="45.47831" lon="4.7761">
        <ele>307.27856445312</ele>
        <time>2013-05-26T12:14:36Z</time>
      </trkpt>
      <trkpt lat="45.47882" lon="4.77692">
        <ele>304.87524414062</ele>
        <time>2013-05-26T12:14:48Z</time>
      </trkpt>
      <trkpt lat="45.47897" lon="4.77707">
        <ele>303.43322753906</ele>
        <time>2013-05-26T12:14:51Z</time>
      </trkpt>
      <trkpt lat="45.47901" lon="4.77729">
        <ele>301.99133300781</ele>
        <time>2013-05-26T12:14:55Z</time>
      </trkpt>
      <trkpt lat="45.4788" lon="4.77758">
        <ele>297.18469238281</ele>
        <time>2013-05-26T12:14:59Z</time>
      </trkpt>
      <trkpt lat="45.47867" lon="4.77768">
        <ele>295.74267578125</ele>
        <time>2013-05-26T12:15:03Z</time>
      </trkpt>
      <trkpt lat="45.47827" lon="4.77739">
        <ele>294.30078125</ele>
        <time>2013-05-26T12:15:11Z</time>
      </trkpt>
      <trkpt lat="45.47792" lon="4.77709">
        <ele>291.41674804688</ele>
        <time>2013-05-26T12:15:16Z</time>
      </trkpt>
      <trkpt lat="45.47768" lon="4.77692">
        <ele>289.494140625</ele>
        <time>2013-05-26T12:15:19Z</time>
      </trkpt>
      <trkpt lat="45.4774" lon="4.77682">
        <ele>285.64880371094</ele>
        <time>2013-05-26T12:15:23Z</time>
      </trkpt>
      <trkpt lat="45.47717" lon="4.77671">
        <ele>284.20690917969</ele>
        <time>2013-05-26T12:15:27Z</time>
      </trkpt>
      <trkpt lat="45.47701" lon="4.77647">
        <ele>280.84240722656</ele>
        <time>2013-05-26T12:15:31Z</time>
      </trkpt>
      <trkpt lat="45.47684" lon="4.77625">
        <ele>276.9970703125</ele>
        <time>2013-05-26T12:15:35Z</time>
      </trkpt>
      <trkpt lat="45.47679" lon="4.77621">
        <ele>276.51635742188</ele>
        <time>2013-05-26T12:15:36Z</time>
      </trkpt>
      <trkpt lat="45.47669" lon="4.77609">
        <ele>273.63244628906</ele>
        <time>2013-05-26T12:15:39Z</time>
      </trkpt>
      <trkpt lat="45.47664" lon="4.77599">
        <ele>272.1904296875</ele>
        <time>2013-05-26T12:15:41Z</time>
      </trkpt>
      <trkpt lat="45.47655" lon="4.77585">
        <ele>269.30651855469</ele>
        <time>2013-05-26T12:15:44Z</time>
      </trkpt>
      <trkpt lat="45.4765" lon="4.77574">
        <ele>267.38391113281</ele>
        <time>2013-05-26T12:15:46Z</time>
      </trkpt>
      <trkpt lat="45.47648" lon="4.77568">
        <ele>265.94189453125</ele>
        <time>2013-05-26T12:15:47Z</time>
      </trkpt>
      <trkpt lat="45.4763" lon="4.77551">
        <ele>262.5771484375</ele>
        <time>2013-05-26T12:15:51Z</time>
      </trkpt>
      <trkpt lat="45.47613" lon="4.77539">
        <ele>258.25134277344</ele>
        <time>2013-05-26T12:15:55Z</time>
      </trkpt>
      <trkpt lat="45.47605" lon="4.77533">
        <ele>256.80932617188</ele>
        <time>2013-05-26T12:15:58Z</time>
      </trkpt>
      <trkpt lat="45.47584" lon="4.77527">
        <ele>253.44470214844</ele>
        <time>2013-05-26T12:16:08Z</time>
      </trkpt>
      <trkpt lat="45.47569" lon="4.7753">
        <ele>251.04138183594</ele>
        <time>2013-05-26T12:16:11Z</time>
      </trkpt>
      <trkpt lat="45.47558" lon="4.77532">
        <ele>250.08020019531</ele>
        <time>2013-05-26T12:16:13Z</time>
      </trkpt>
      <trkpt lat="45.47547" lon="4.77531">
        <ele>248.15759277344</ele>
        <time>2013-05-26T12:16:15Z</time>
      </trkpt>
      <trkpt lat="45.47518" lon="4.77538">
        <ele>245.75415039062</ele>
        <time>2013-05-26T12:16:21Z</time>
      </trkpt>
      <trkpt lat="45.47496" lon="4.7755">
        <ele>241.90893554688</ele>
        <time>2013-05-26T12:16:29Z</time>
      </trkpt>
      <trkpt lat="45.47496" lon="4.7755">
        <ele>240.94763183594</ele>
        <time>2013-05-26T12:16:33Z</time>
      </trkpt>
      <trkpt lat="45.47492" lon="4.77553">
        <ele>240.46704101562</ele>
        <time>2013-05-26T12:16:36Z</time>
      </trkpt>
      <trkpt lat="45.47488" lon="4.77554">
        <ele>239.50549316406</ele>
        <time>2013-05-26T12:16:46Z</time>
      </trkpt>
      <trkpt lat="45.47474" lon="4.77565">
        <ele>238.06359863281</ele>
        <time>2013-05-26T12:16:53Z</time>
      </trkpt>
      <trkpt lat="45.47466" lon="4.77569">
        <ele>236.62170410156</ele>
        <time>2013-05-26T12:16:56Z</time>
      </trkpt>
      <trkpt lat="45.47446" lon="4.77585">
        <ele>234.69909667969</ele>
        <time>2013-05-26T12:17:02Z</time>
      </trkpt>
      <trkpt lat="45.47432" lon="4.77596">
        <ele>232.29577636719</ele>
        <time>2013-05-26T12:17:10Z</time>
      </trkpt>
      <trkpt lat="45.47428" lon="4.77599">
        <ele>231.33435058594</ele>
        <time>2013-05-26T12:17:12Z</time>
      </trkpt>
      <trkpt lat="45.47419" lon="4.77605">
        <ele>227.48913574219</ele>
        <time>2013-05-26T12:17:16Z</time>
      </trkpt>
      <trkpt lat="45.47408" lon="4.77611">
        <ele>226.04711914062</ele>
        <time>2013-05-26T12:17:22Z</time>
      </trkpt>
      <trkpt lat="45.47402" lon="4.776">
        <ele>225.56652832031</ele>
        <time>2013-05-26T12:17:26Z</time>
      </trkpt>
      <trkpt lat="45.47401" lon="4.77554">
        <ele>223.64379882812</ele>
        <time>2013-05-26T12:17:32Z</time>
      </trkpt>
      <trkpt lat="45.47403" lon="4.77535">
        <ele>222.20178222656</ele>
        <time>2013-05-26T12:17:34Z</time>
      </trkpt>
      <trkpt lat="45.47413" lon="4.77493">
        <ele>221.24060058594</ele>
        <time>2013-05-26T12:17:38Z</time>
      </trkpt>
      <trkpt lat="45.47441" lon="4.77444">
        <ele>218.35656738281</ele>
        <time>2013-05-26T12:17:43Z</time>
      </trkpt>
      <trkpt lat="45.47456" lon="4.77429">
        <ele>216.91467285156</ele>
        <time>2013-05-26T12:17:45Z</time>
      </trkpt>
      <trkpt lat="45.475" lon="4.77403">
        <ele>213.0693359375</ele>
        <time>2013-05-26T12:17:50Z</time>
      </trkpt>
      <trkpt lat="45.47518" lon="4.77397">
        <ele>210.666015625</ele>
        <time>2013-05-26T12:17:52Z</time>
      </trkpt>
      <trkpt lat="45.47527" lon="4.77362">
        <ele>205.85949707031</ele>
        <time>2013-05-26T12:17:57Z</time>
      </trkpt>
      <trkpt lat="45.47519" lon="4.77363">
        <ele>205.37878417969</ele>
        <time>2013-05-26T12:17:58Z</time>
      </trkpt>
      <trkpt lat="45.47474" lon="4.77384">
        <ele>202.01428222656</ele>
        <time>2013-05-26T12:18:03Z</time>
      </trkpt>
      <trkpt lat="45.47464" lon="4.77385">
        <ele>201.53356933594</ele>
        <time>2013-05-26T12:18:04Z</time>
      </trkpt>
      <trkpt lat="45.47436" lon="4.77393">
        <ele>199.61083984375</ele>
        <time>2013-05-26T12:18:07Z</time>
      </trkpt>
      <trkpt lat="45.47384" lon="4.77415">
        <ele>194.80432128906</ele>
        <time>2013-05-26T12:18:12Z</time>
      </trkpt>
      <trkpt lat="45.47347" lon="4.77449">
        <ele>190.958984375</ele>
        <time>2013-05-26T12:18:16Z</time>
      </trkpt>
      <trkpt lat="45.47316" lon="4.77499">
        <ele>188.07507324219</ele>
        <time>2013-05-26T12:18:20Z</time>
      </trkpt>
      <trkpt lat="45.47292" lon="4.77534">
        <ele>184.71057128906</ele>
        <time>2013-05-26T12:18:23Z</time>
      </trkpt>
      <trkpt lat="45.47284" lon="4.77545">
        <ele>183.7490234375</ele>
        <time>2013-05-26T12:18:24Z</time>
      </trkpt>
      <trkpt lat="45.47281" lon="4.776">
        <ele>180.38452148438</ele>
        <time>2013-05-26T12:18:28Z</time>
      </trkpt>
      <trkpt lat="45.47279" lon="4.77692">
        <ele>175.57788085938</ele>
        <time>2013-05-26T12:18:34Z</time>
      </trkpt>
      <trkpt lat="45.47277" lon="4.77723">
        <ele>173.17468261719</ele>
        <time>2013-05-26T12:18:36Z</time>
      </trkpt>
      <trkpt lat="45.47282" lon="4.77763">
        <ele>170.29064941406</ele>
        <time>2013-05-26T12:18:39Z</time>
      </trkpt>
      <trkpt lat="45.47286" lon="4.77772">
        <ele>166.92602539062</ele>
        <time>2013-05-26T12:18:40Z</time>
      </trkpt>
      <trkpt lat="45.47276" lon="4.7778">
        <ele>163.5615234375</ele>
        <time>2013-05-26T12:18:44Z</time>
      </trkpt>
      <trkpt lat="45.47255" lon="4.77752">
        <ele>161.63891601562</ele>
        <time>2013-05-26T12:18:47Z</time>
      </trkpt>
      <trkpt lat="45.4725" lon="4.77742">
        <ele>160.67749023438</ele>
        <time>2013-05-26T12:18:48Z</time>
      </trkpt>
      <trkpt lat="45.47241" lon="4.77718">
        <ele>160.19689941406</ele>
        <time>2013-05-26T12:18:50Z</time>
      </trkpt>
      <trkpt lat="45.47213" lon="4.77677">
        <ele>156.83215332031</ele>
        <time>2013-05-26T12:18:54Z</time>
      </trkpt>
      <trkpt lat="45.4718" lon="4.77641">
        <ele>153.46765136719</ele>
        <time>2013-05-26T12:18:58Z</time>
      </trkpt>
      <trkpt lat="45.47156" lon="4.77621">
        <ele>151.544921875</ele>
        <time>2013-05-26T12:19:01Z</time>
      </trkpt>
      <trkpt lat="45.47148" lon="4.77616">
        <ele>150.58361816406</ele>
        <time>2013-05-26T12:19:02Z</time>
      </trkpt>
      <trkpt lat="45.47129" lon="4.77599">
        <ele>150.10302734375</ele>
        <time>2013-05-26T12:19:05Z</time>
      </trkpt>
      <trkpt lat="45.47122" lon="4.77586">
        <ele>150.58361816406</ele>
        <time>2013-05-26T12:19:07Z</time>
      </trkpt>
      <trkpt lat="45.47109" lon="4.77568">
        <ele>151.06420898438</ele>
        <time>2013-05-26T12:19:11Z</time>
      </trkpt>
      <trkpt lat="45.47091" lon="4.77556">
        <ele>150.58361816406</ele>
        <time>2013-05-26T12:19:15Z</time>
      </trkpt>
      <trkpt lat="45.47057" lon="4.77538">
        <ele>150.10302734375</ele>
        <time>2013-05-26T12:19:23Z</time>
      </trkpt>
      <trkpt lat="45.47047" lon="4.77547">
        <ele>150.10302734375</ele>
        <time>2013-05-26T12:19:27Z</time>
      </trkpt>
      <trkpt lat="45.47013" lon="4.77527">
        <ele>149.62231445312</ele>
        <time>2013-05-26T12:19:36Z</time>
      </trkpt>
      <trkpt lat="45.46972" lon="4.77471">
        <ele>150.10302734375</ele>
        <time>2013-05-26T12:19:50Z</time>
      </trkpt>
      <trkpt lat="45.46963" lon="4.77456">
        <ele>149.1416015625</ele>
        <time>2013-05-26T12:19:54Z</time>
      </trkpt>
      <trkpt lat="45.46953" lon="4.7744">
        <ele>149.62231445312</ele>
        <time>2013-05-26T12:20:02Z</time>
      </trkpt>
      <trkpt lat="45.46918" lon="4.77412">
        <ele>149.62231445312</ele>
        <time>2013-05-26T12:20:12Z</time>
      </trkpt>
      <trkpt lat="45.46919" lon="4.77395">
        <ele>150.10302734375</ele>
        <time>2013-05-26T12:20:18Z</time>
      </trkpt>
      <trkpt lat="45.4694" lon="4.77347">
        <ele>150.10302734375</ele>
        <time>2013-05-26T12:20:28Z</time>
      </trkpt>
      <trkpt lat="45.46935" lon="4.77333">
        <ele>151.06420898438</ele>
        <time>2013-05-26T12:20:33Z</time>
      </trkpt>
      <trkpt lat="45.46862" lon="4.77295">
        <ele>152.02575683594</ele>
        <time>2013-05-26T12:20:54Z</time>
      </trkpt>
      <trkpt lat="45.46764" lon="4.77233">
        <ele>151.06420898438</ele>
        <time>2013-05-26T12:21:15Z</time>
      </trkpt>
      <trkpt lat="45.46675" lon="4.77164">
        <ele>150.58361816406</ele>
        <time>2013-05-26T12:21:33Z</time>
      </trkpt>
      <trkpt lat="45.46577" lon="4.77045">
        <ele>149.1416015625</ele>
        <time>2013-05-26T12:21:55Z</time>
      </trkpt>
      <trkpt lat="45.46518" lon="4.76954">
        <ele>151.06420898438</ele>
        <time>2013-05-26T12:22:12Z</time>
      </trkpt>
      <trkpt lat="45.46434" lon="4.76842">
        <ele>149.62231445312</ele>
        <time>2013-05-26T12:22:32Z</time>
      </trkpt>
      <trkpt lat="45.46419" lon="4.7683">
        <ele>149.1416015625</ele>
        <time>2013-05-26T12:22:35Z</time>
      </trkpt>
      <trkpt lat="45.46377" lon="4.76783">
        <ele>150.10302734375</ele>
        <time>2013-05-26T12:22:49Z</time>
      </trkpt>
      <trkpt lat="45.46387" lon="4.76752">
        <ele>152.02575683594</ele>
        <time>2013-05-26T12:22:58Z</time>
      </trkpt>
      <trkpt lat="45.4639" lon="4.76744">
        <ele>153.46765136719</ele>
        <time>2013-05-26T12:23:00Z</time>
      </trkpt>
      <trkpt lat="45.46399" lon="4.76719">
        <ele>153.46765136719</ele>
        <time>2013-05-26T12:23:06Z</time>
      </trkpt>
      <trkpt lat="45.46375" lon="4.76696">
        <ele>153.46765136719</ele>
        <time>2013-05-26T12:23:16Z</time>
      </trkpt>
      <trkpt lat="45.46352" lon="4.76689">
        <ele>152.50634765625</ele>
        <time>2013-05-26T12:23:26Z</time>
      </trkpt>
      <trkpt lat="45.46339" lon="4.76679">
        <ele>152.98693847656</ele>
        <time>2013-05-26T12:23:31Z</time>
      </trkpt>
      <trkpt lat="45.46354" lon="4.76644">
        <ele>154.90954589844</ele>
        <time>2013-05-26T12:23:41Z</time>
      </trkpt>
      <trkpt lat="45.46367" lon="4.76632">
        <ele>155.39025878906</ele>
        <time>2013-05-26T12:23:48Z</time>
      </trkpt>
      <trkpt lat="45.46374" lon="4.76608">
        <ele>156.83215332031</ele>
        <time>2013-05-26T12:23:56Z</time>
      </trkpt>
      <trkpt lat="45.46414" lon="4.76585">
        <ele>157.79357910156</ele>
        <time>2013-05-26T12:24:06Z</time>
      </trkpt>
      <trkpt lat="45.46436" lon="4.76534">
        <ele>158.75476074219</ele>
        <time>2013-05-26T12:24:17Z</time>
      </trkpt>
      <trkpt lat="45.46417" lon="4.76516">
        <ele>161.158203125</ele>
        <time>2013-05-26T12:24:26Z</time>
      </trkpt>
      <trkpt lat="45.46415" lon="4.76515">
        <ele>161.158203125</ele>
        <time>2013-05-26T12:24:27Z</time>
      </trkpt>
      <trkpt lat="45.46386" lon="4.76515">
        <ele>164.52270507812</ele>
        <time>2013-05-26T12:24:39Z</time>
      </trkpt>
      <trkpt lat="45.46382" lon="4.76516">
        <ele>164.04211425781</ele>
        <time>2013-05-26T12:24:52Z</time>
      </trkpt>
      <trkpt lat="45.46378" lon="4.76513">
        <ele>164.52270507812</ele>
        <time>2013-05-26T12:25:05Z</time>
      </trkpt>
      <trkpt lat="45.46377" lon="4.76514">
        <ele>165.48413085938</ele>
        <time>2013-05-26T12:25:12Z</time>
      </trkpt>
    </trkseg>
  </trk>
</gpx>